[[{"header":{"parameterUnit":"m.s-1","parameterCategory":1,"la1":30.6,"la2":28.766,"lo1":-90.7593,"lo2":-88.6598,"dx":0.0162,"dy":0.0183,"nx":116,"ny":114,"refTime":"2022-12-08T18:00:00:Z","depth":0,"parameterNumber":2,"parameterNumberName":"U-component_of_WINDS"},"data":[0.0,0.0,0.0,0.0,0.0,0.0,0.0,0.0,0.0,0.0,0.0,0.0,0.0,0.0,0.0,0.0,0.0,0.0,0.0,0.0,0.0,0.0,0.0,0.0,0.0,0.0,0.0,0.0,0.0,0.0,0.0,0.0,0.0,0.0,0.0,0.0,0.0,0.0,0.0,0.0,0.0,0.0,0.0,0.0,0.0,0.0,0.0,0.0,0.0,0.0,0.0,0.0,0.0,0.0,0.0,0.0,0.0,0.0,0.0,0.0,0.0,0.0,0.0,0.0,0.0,0.0,0.0,0.0,0.0,0.0,0.0,0.0,0.0,0.0,0.0,0.0,0.0,0.0,0.0,0.0,0.0,0.0,0.0,0.0,0.0,0.0,0.0,0.0,0.0,0.0,0.0,0.0,0.0,0.0,0.0,0.0,0.0,0.0,0.0,0.0,0.0,0.0,0.0,0.0,0.0,0.0,0.0,0.0,0.0,0.0,0.0,0.0,0.0,0.0,0.0,0.0,0.0,0.0,0.0,0.0,0.0,0.0,0.0,0.0,0.0,0.0,0.0,0.0,0.0,0.0,0.0,0.0,0.0,0.0,0.0,0.0,0.0,0.0,0.0,0.0,0.0,0.0,0.0,0.0,0.0,0.0,0.0,0.0,0.0,0.0,0.0,0.0,0.0,0.0,0.0,0.0,0.0,0.0,0.0,0.0,0.0,0.0,0.0,0.0,0.0,0.0,0.0,0.0,0.0,0.0,0.0,0.0,0.0,0.0,0.0,0.0,0.0,0.0,0.0,0.0,0.0,0.0,0.0,0.0,0.0,0.0,0.0,0.0,0.0,0.0,0.0,0.0,0.0,0.0,0.0,0.0,0.0,0.0,0.0,0.0,0.0,0.0,0.0,0.0,0.0,0.0,0.0,0.0,0.0,0.0,0.0,0.0,0.0,0.0,0.0,0.0,0.0,0.0,0.0,0.0,0.0,0.0,0.0,0.0,0.0,0.0,0.0,0.0,0.0,0.0,0.0,0.0,0.0,0.0,0.0,0.0,0.0,0.0,0.0,0.0,0.0,0.0,0.0,0.0,0.0,0.0,0.0,0.0,0.0,0.0,0.0,0.0,0.0,0.0,0.0,0.0,0.0,0.0,0.0,0.0,0.0,0.0,0.0,0.0,0.0,0.0,0.0,0.0,0.0,0.0,0.0,0.0,0.0,0.0,0.0,0.0,0.0,0.0,0.0,0.0,0.0,0.0,0.0,0.0,0.0,0.0,0.0,0.0,0.0,0.0,0.0,0.0,0.0,0.0,0.0,0.0,0.0,0.0,0.0,0.0,0.0,0.0,0.0,0.0,0.0,0.0,0.0,0.0,0.0,0.0,0.0,0.0,0.0,0.0,0.0,0.0,0.0,0.0,0.0,0.0,0.0,0.0,0.0,0.0,0.0,0.0,0.0,0.0,0.0,0.0,0.0,0.0,0.0,0.0,0.0,0.0,0.0,0.0,0.0,0.0,0.0,0.0,0.0,0.0,0.0,0.0,0.0,0.0,0.0,0.0,0.0,0.0,0.0,0.0,0.0,0.0,0.0,0.0,0.0,0.0,0.0,0.0,0.0,0.0,0.0,0.0,0.0,0.0,0.0,0.0,0.0,0.0,0.0,0.0,0.0,0.0,0.0,0.0,0.0,0.0,0.0,0.0,0.0,0.0,0.0,0.0,0.0,0.0,0.0,0.0,0.0,0.0,0.0,0.0,0.0,0.0,0.0,0.0,0.0,0.0,0.0,0.0,0.0,0.0,0.0,0.0,0.0,0.0,0.0,0.0,0.0,0.0,0.0,0.0,0.0,0.0,0.0,0.0,0.0,0.0,0.0,0.0,0.0,0.0,0.0,0.0,0.0,0.0,0.0,0.0,0.0,0.0,0.0,0.0,0.0,0.0,0.0,0.0,0.0,0.0,0.0,0.0,0.0,0.0,0.0,0.0,0.0,0.0,0.0,0.0,0.0,0.0,0.0,0.0,0.0,0.0,0.0,0.0,0.0,0.0,0.0,0.0,0.0,0.0,0.0,0.0,0.0,0.0,0.0,0.0,0.0,0.0,0.0,0.0,0.0,0.0,0.0,0.0,0.0,0.0,0.0,0.0,0.0,0.0,0.0,0.0,0.0,0.0,0.0,0.0,0.0,0.0,0.0,0.0,0.0,0.0,0.0,0.0,0.0,0.0,0.0,0.0,0.0,0.0,0.0,0.0,0.0,0.0,0.0,0.0,0.0,0.0,0.0,0.0,0.0,0.0,0.0,0.0,0.0,0.0,0.0,0.0,0.0,0.0,0.0,0.0,0.0,0.0,0.0,0.0,0.0,0.0,0.0,0.0,0.0,0.0,0.0,0.0,0.0,0.0,0.0,0.0,0.0,0.0,0.0,0.0,0.0,0.0,0.0,0.0,0.0,0.0,0.0,0.0,0.0,0.0,0.0,0.0,0.0,0.0,0.0,0.0,0.0,0.0,0.0,0.0,0.0,0.0,0.0,0.0,0.0,0.0,0.0,0.0,0.0,0.0,0.0,0.0,0.0,0.0,0.0,0.0,0.0,0.0,0.0,0.0,0.0,0.0,0.0,0.0,0.0,0.0,0.0,0.0,0.0,0.0,0.0,0.0,0.0,0.0,0.0,0.0,0.0,0.0,0.0,0.0,0.0,0.0,0.0,0.0,0.0,0.0,0.0,0.0,0.0,0.0,0.0,0.0,0.0,0.0,0.0,0.0,0.0,0.0,0.0,0.0,0.0,0.0,0.0,0.0,0.0,0.0,0.0,0.0,0.0,0.0,0.0,0.0,0.0,0.0,0.0,0.0,0.0,0.0,0.0,0.0,0.0,0.0,0.0,0.0,0.0,0.0,0.0,0.0,0.0,0.0,0.0,0.0,0.0,0.0,0.0,0.0,0.0,0.0,0.0,0.0,0.0,0.0,0.0,0.0,0.0,0.0,0.0,0.0,0.0,0.0,0.0,0.0,0.0,0.0,0.0,0.0,0.0,0.0,0.0,0.0,0.0,0.0,0.0,0.0,0.0,0.0,0.0,0.0,0.0,0.0,0.0,0.0,0.0,0.0,0.0,0.0,0.0,0.0,0.0,0.0,0.0,0.0,0.0,0.0,0.0,0.0,0.0,0.0,0.0,0.0,0.0,0.0,0.0,0.0,0.0,0.0,0.0,0.0,0.0,0.0,0.0,0.0,0.0,0.0,0.0,0.0,0.0,0.0,0.0,0.0,0.0,0.0,0.0,0.0,0.0,0.0,0.0,0.0,0.0,0.0,0.0,0.0,0.0,0.0,0.0,0.0,0.0,0.0,0.0,0.0,0.0,0.0,0.0,0.0,0.0,0.0,0.0,0.0,0.0,0.0,0.0,0.0,0.0,0.0,0.0,0.0,0.0,0.0,0.0,0.0,0.0,0.0,0.0,0.0,0.0,0.0,0.0,0.0,0.0,0.0,0.0,0.0,0.0,0.0,0.0,0.0,0.0,0.0,0.0,0.0,0.0,0.0,0.0,0.0,0.0,0.0,0.0,0.0,0.0,0.0,0.0,0.0,0.0,0.0,0.0,0.0,0.0,0.0,0.0,0.0,0.0,0.0,0.0,0.0,0.0,0.0,0.0,0.0,0.0,0.0,0.0,0.0,0.0,0.0,0.0,0.0,0.0,0.0,0.0,0.0,0.0,0.0,0.0,0.0,0.0,0.0,0.0,0.0,0.0,0.0,0.0,0.0,0.0,0.0,0.0,0.0,0.0,0.0,0.0,0.0,0.0,0.0,0.0,0.0,0.0,0.0,0.0,0.0,0.0,0.0,0.0,0.0,0.0,0.0,0.0,0.0,0.0,0.0,0.0,0.0,0.0,0.0,0.0,0.0,0.0,0.0,0.0,0.0,0.0,0.0,0.0,0.0,0.0,0.0,0.0,0.0,0.0,0.0,0.0,0.0,0.0,0.0,0.0,0.0,0.0,0.0,0.0,0.0,0.0,0.0,0.0,0.0,0.0,0.0,0.0,0.0,0.0,0.0,0.0,0.0,0.0,0.0,0.0,0.0,0.0,0.0,0.0,0.0,0.0,0.0,0.0,0.0,0.0,0.0,0.0,0.0,0.0,0.0,0.0,0.0,0.0,0.0,0.0,0.0,0.0,0.0,0.0,0.0,0.0,0.0,0.0,0.0,0.0,0.0,0.0,0.0,0.0,0.0,0.0,0.0,0.0,0.0,0.0,0.0,0.0,0.0,0.0,0.0,0.0,0.0,0.0,0.0,0.0,0.0,0.0,0.0,0.0,0.0,0.0,0.0,0.0,0.0,0.0,0.0,0.0,0.0,0.0,0.0,0.0,0.0,0.0,0.0,0.0,0.0,0.0,0.0,0.0,0.0,0.0,0.0,0.0,0.0,0.0,0.0,0.0,0.0,0.0,0.0,0.0,0.0,0.0,0.0,0.0,0.0,0.0,0.0,0.0,0.0,0.0,0.0,0.0,0.0,0.0,0.0,0.0,0.0,0.0,0.0,0.0,0.0,0.0,0.0,0.0,0.0,0.0,0.0,0.0,0.0,0.0,0.0,0.0,0.0,0.0,0.0,0.0,0.0,0.0,0.0,0.0,0.0,0.0,0.0,0.0,0.0,0.0,0.0,0.0,0.0,0.0,0.0,0.0,0.0,0.0,0.0,0.0,0.0,0.0,0.0,0.0,0.0,0.0,0.0,0.0,0.0,0.0,0.0,0.0,0.0,0.0,0.0,0.0,0.0,0.0,0.0,0.0,0.0,0.0,0.0,0.0,0.0,0.0,0.0,0.0,0.0,0.0,0.0,0.0,0.0,0.0,0.0,0.0,0.0,0.0,0.0,0.0,0.0,0.0,0.0,0.0,0.0,0.0,0.0,0.0,0.0,0.0,0.0,0.0,0.0,0.0,0.0,0.0,0.0,0.0,0.0,0.0,0.0,0.0,0.0,0.0,0.0,0.0,0.0,0.0,0.0,0.0,0.0,0.0,0.0,0.0,0.0,0.0,0.0,0.0,0.0,0.0,0.0,0.0,0.0,0.0,0.0,0.0,0.0,0.0,0.0,0.0,0.0,0.0,0.0,0.0,0.0,0.0,0.0,0.0,0.0,0.0,0.0,0.0,0.0,0.0,0.0,0.0,0.0,0.0,0.0,0.0,0.0,0.0,0.0,0.0,0.0,0.0,0.0,0.0,0.0,0.0,0.0,0.0,0.0,0.0,0.0,0.0,0.0,0.0,0.0,0.0,0.0,0.0,0.0,0.0,0.0,0.0,0.0,0.0,0.0,0.0,0.0,0.0,0.0,0.0,0.0,0.0,0.0,0.0,0.0,0.0,0.0,0.0,0.0,0.0,0.0,0.0,0.0,0.0,0.0,0.0,0.0,0.0,0.0,0.0,0.0,0.0,0.0,0.0,0.0,0.0,0.0,0.0,0.0,0.0,0.0,0.0,0.0,0.0,0.0,0.0,0.0,0.0,0.0,0.0,0.0,0.0,0.0,0.0,0.0,0.0,0.0,0.0,0.0,0.0,0.0,0.0,0.0,0.0,0.0,0.0,0.0,0.0,0.0,0.0,0.0,0.0,0.0,0.0,0.0,0.0,0.0,0.0,0.0,0.0,0.0,0.0,0.0,0.0,0.0,0.0,0.0,0.0,0.0,0.0,0.0,0.0,0.0,0.0,0.0,0.0,0.0,0.0,0.0,0.0,0.0,0.0,0.0,0.0,0.0,0.0,0.0,0.0,0.0,0.0,0.0,0.0,0.0,0.0,0.0,0.0,0.0,0.0,0.0,0.0,0.0,0.0,0.0,0.0,0.0,0.0,0.0,0.0,0.0,0.0,0.0,0.0,0.0,0.0,0.0,0.0,0.0,0.0,0.0,0.0,0.0,0.0,0.0,0.0,0.0,0.0,0.0,0.0,0.0,0.0,0.0,0.0,0.0,0.0,0.0,0.0,0.0,0.0,0.0,0.0,0.0,0.0,0.0,0.0,0.0,0.0,0.0,0.0,0.0,0.0,0.0,0.0,0.0,0.0,0.0,0.0,0.0,0.0,0.0,0.0,0.0,0.0,0.0,0.0,0.0,-0.5569,-0.4575,0.0,0.0,0.0,0.0,0.0,0.0,0.0,0.0,0.0,0.0,0.0,0.0,0.0,0.0,0.0,0.0,0.0,0.0,0.0,0.0,0.0,0.0,0.0,-0.3427,-0.3475,-0.3223,-0.3439,0.0,0.0,0.0,0.0,0.0,0.0,0.0,0.0,0.0,-0.335,-0.3496,-0.3628,-0.3898,-0.4337,-0.432,-0.4133,-0.377,0.0,0.0,0.0,0.0,0.0,0.0,0.0,0.0,0.0,0.0,0.0,0.0,0.0,0.0,0.0,0.0,0.0,0.0,0.0,0.0,0.0,0.0,0.0,0.0,0.0,0.0,0.0,0.0,0.0,0.0,0.0,0.0,0.0,0.0,0.0,0.0,0.0,0.0,0.0,0.0,0.0,0.0,0.0,0.0,0.0,0.0,0.0,0.0,0.0,0.0,0.0,0.0,0.0,0.0,0.0,0.0,0.0,0.0,0.0,0.0,0.0,0.0,0.0,0.0,0.0,0.0,0.0,0.0,0.0,0.0,-0.6728,-0.5818,0.0,0.0,0.0,0.0,0.0,0.0,0.0,0.0,0.0,0.0,0.0,0.0,0.0,0.0,0.0,0.0,0.0,0.0,0.0,0.0,0.0,-0.334,-0.3359,-0.3842,-0.3988,-0.3521,-0.3904,-0.3976,-0.3489,-0.3369,0.0,0.0,0.0,0.0,-0.3149,-0.3662,-0.3901,-0.3846,-0.4348,-0.476,-0.5097,-0.5541,-0.5287,-0.447,-0.3955,0.0,0.0,0.0,0.0,0.0,0.0,0.0,0.0,0.0,0.0,0.0,0.0,0.0,0.0,0.0,0.0,0.0,0.0,0.0,0.0,0.0,0.0,0.0,0.0,0.0,0.0,0.0,0.0,0.0,0.0,0.0,0.0,0.0,0.0,0.0,0.0,0.0,0.0,0.0,0.0,0.0,0.0,0.0,0.0,0.0,0.0,0.0,0.0,0.0,0.0,0.0,0.0,0.0,0.0,0.0,0.0,0.0,0.0,0.0,0.0,0.0,0.0,0.0,-0.8686,-0.8888,-0.9002,-0.8978,-0.9031,-0.91,-0.8239,-0.7541,-0.6926,-0.6,0.0,0.0,0.0,0.0,0.0,0.0,0.0,0.0,0.0,0.0,0.0,0.0,0.0,0.0,0.0,0.0,0.0,0.0,0.0,-0.3915,-0.3974,-0.4518,-0.4796,-0.4595,-0.4771,-0.4758,-0.452,-0.4066,0.0,0.0,0.0,-0.3707,-0.3696,-0.4166,-0.4537,-0.4818,-0.5756,-0.6225,-0.6281,-0.6804,-0.698,-0.6782,-0.5297,-0.453,-0.4335,0.0,0.0,0.0,0.0,0.0,0.0,0.0,0.0,0.0,0.0,0.0,0.0,0.0,0.0,0.0,0.0,0.0,0.0,0.0,0.0,0.0,0.0,0.0,0.0,0.0,0.0,0.0,0.0,0.0,0.0,0.0,0.0,0.0,0.0,0.0,0.0,0.0,0.0,0.0,0.0,0.0,-0.4137,-0.4421,0.0,0.0,0.0,0.0,0.0,0.0,0.0,0.0,0.0,0.0,0.0,0.0,0.0,-0.7481,-0.8088,-0.8495,-0.8732,-0.8826,-0.9443,-1.0039,-1.0606,-1.1053,-1.1259,-1.1257,-1.0489,0.0,-0.8108,-0.7284,0.0,0.0,0.0,0.0,0.0,0.0,0.0,0.0,0.0,0.0,0.0,0.0,0.0,0.0,0.0,0.0,0.0,0.0,0.0,0.0,0.0,-0.5177,-0.5299,-0.4933,-0.5249,-0.5258,-0.4786,-0.4609,0.0,0.0,-0.4265,-0.4227,-0.419,-0.4695,-0.5301,-0.6005,-0.6752,-0.7113,-0.7113,-0.735,-0.7474,-0.7452,-0.6699,-0.5965,-0.5244,-0.4526,0.0,0.0,0.0,0.0,0.0,0.0,0.0,0.0,0.0,0.0,0.0,0.0,0.0,0.0,0.0,0.0,0.0,0.0,0.0,0.0,0.0,0.0,0.0,0.0,0.0,0.0,0.0,0.0,0.0,0.0,0.0,0.0,0.0,0.0,0.0,0.0,0.0,0.0,0.0,-0.4466,-0.4949,-0.5454,-0.5393,-0.5275,0.0,0.0,0.0,0.0,0.0,0.0,0.0,0.0,0.0,-0.8047,-0.857,-0.9124,-0.9714,-1.0326,-1.0833,-1.1204,-1.1507,-1.1811,-1.2076,-1.2235,-1.2306,-1.2292,-1.1898,-1.136,-1.0616,-0.8675,-0.7789,-0.762,0.0,0.0,0.0,0.0,-0.6699,-0.6614,0.0,0.0,0.0,0.0,0.0,0.0,0.0,0.0,0.0,0.0,0.0,0.0,-0.5485,-0.5894,-0.596,-0.5525,-0.5854,-0.5855,-0.5338,-0.5235,-0.512,-0.4914,-0.4887,-0.4845,-0.4777,-0.5414,-0.6156,-0.7024,-0.7714,-0.8027,-0.8015,-0.8269,-0.8396,-0.8385,-0.8282,-0.7494,-0.6209,-0.5359,-0.4852,-0.4557,0.0,0.0,0.0,0.0,0.0,0.0,0.0,0.0,0.0,0.0,0.0,0.0,0.0,0.0,0.0,0.0,0.0,0.0,0.0,0.0,0.0,0.0,0.0,0.0,0.0,0.0,0.0,0.0,0.0,0.0,0.0,0.0,0.0,0.0,0.0,0.0,0.0,-0.5433,-0.5901,-0.6517,-0.6687,-0.6696,0.0,0.0,0.0,0.0,0.0,0.0,-0.8096,-0.8732,-0.9225,-0.9535,-1.0148,-1.0754,-1.1377,-1.2167,-1.2795,-1.3304,-1.3615,-1.3813,-1.3927,-1.3771,-1.3714,-1.3685,-1.3235,-1.2968,-1.2704,-1.0173,-0.9059,-0.8861,-0.8576,-0.8343,-0.8192,-0.8192,-0.8297,-0.8389,0.0,0.0,0.0,0.0,0.0,0.0,0.0,0.0,0.0,0.0,0.0,-0.6047,-0.6145,-0.6684,-0.6972,-0.6816,-0.6825,-0.6792,-0.6713,-0.6117,-0.5752,-0.5742,-0.5683,-0.5605,-0.5535,-0.6444,-0.7147,-0.7654,-0.871,-0.9177,-0.9131,-1.0107,-1.0529,-1.0506,-1.0079,-0.8897,-0.719,-0.664,-0.6128,-0.5645,-0.4787,0.0,0.0,0.0,0.0,0.0,0.0,0.0,0.0,0.0,0.0,0.0,0.0,0.0,0.0,0.0,0.0,0.0,0.0,0.0,0.0,0.0,0.0,0.0,0.0,0.0,0.0,0.0,0.0,0.0,0.0,0.0,0.0,0.0,0.0,0.0,0.0,0.0,0.0,-0.7317,-0.8009,0.0,0.0,0.0,0.0,-0.8483,-0.8685,-0.909,-0.9747,-0.9829,-1.0367,-1.1527,-1.185,-1.2209,-1.2691,-1.3642,-1.4112,-1.4156,-1.5315,-1.6033,-1.6394,-1.6272,-1.6212,-1.6153,-1.4732,-1.3927,-1.3536,-1.1912,-1.1163,-1.0978,-1.0264,-0.9907,-0.9792,-0.9792,-0.9792,-0.9792,0.0,0.0,0.0,-0.3658,-0.3681,-0.383,-0.4225,-0.4434,-0.4865,-0.5708,-0.601,-0.6511,-0.7462,-0.7554,-0.773,-0.8206,-0.7779,-0.7423,-0.726,-0.6787,-0.6432,-0.6261,-0.6228,-0.6381,-0.6747,-0.7557,-0.8299,-0.8973,-0.9536,-0.9985,-1.029,-1.0654,-1.0829,-1.0818,-1.0661,-1.0214,-0.9533,-0.8177,-0.7034,-0.6075,-0.5552,-0.4924,0.0,0.0,0.0,0.0,0.0,0.0,0.0,0.0,0.0,0.0,0.0,0.0,0.0,0.0,0.0,0.0,0.0,0.0,0.0,0.0,0.0,0.0,0.0,0.0,0.0,0.0,0.0,0.0,0.0,0.0,0.0,0.0,0.0,0.0,0.0,0.0,0.0,-0.8052,-0.8896,0.0,-0.9333,-0.9859,-1.0175,-1.0214,-1.0717,-1.1183,-1.149,-1.1927,-1.2542,-1.3357,-1.3855,-1.437,-1.4909,-1.5644,-1.6006,-1.6002,-1.6446,-1.6728,-1.6847,-1.7052,-1.7119,-1.709,-1.652,-1.6203,-1.5998,-1.5031,-1.3629,-1.2074,-1.1804,-1.1615,-1.1437,-1.1437,-1.1354,-1.1214,0.0,0.0,0.0,-0.3698,-0.3705,-0.3902,-0.4505,-0.4799,-0.5314,-0.6365,-0.6503,-0.6935,-0.8038,-0.7914,-0.8093,-0.8887,-0.8346,-0.7946,-0.7966,-0.7578,-0.7267,-0.7106,-0.7069,-0.7291,-0.7826,-0.8502,-0.9183,-0.9875,-1.0444,-1.0891,-1.1196,-1.1361,-1.1432,-1.1432,-1.1432,-1.1349,-1.1081,-0.9916,-0.854,-0.7118,-0.6569,-0.5817,-0.5025,0.0,0.0,0.0,0.0,0.0,0.0,0.0,0.0,0.0,0.0,0.0,0.0,0.0,0.0,0.0,0.0,0.0,0.0,0.0,0.0,0.0,0.0,0.0,0.0,0.0,0.0,0.0,0.0,0.0,0.0,0.0,0.0,0.0,0.0,-0.7973,-0.8704,-0.9219,-1.0249,-1.0968,-1.0958,-1.1416,-1.1777,-1.187,-1.2535,-1.3046,-1.3356,-1.3992,-1.4616,-1.5269,-1.5657,-1.6059,-1.6478,-1.7093,-1.7389,-1.7403,-1.7605,-1.7762,-1.7923,-1.7899,-1.7933,-1.8017,-1.7626,-1.7405,-1.7372,-1.6864,-1.5613,-1.3976,-1.384,-1.3703,-1.3565,-1.3503,-1.339,-1.3218,0.0,0.0,-0.3786,-0.3713,-0.3705,-0.3916,-0.4533,-0.5187,-0.5817,-0.6449,-0.686,-0.7304,-0.7887,-0.7825,-0.8056,-0.8901,-0.8512,-0.8436,-0.8907,-0.8465,-0.8239,-0.8304,-0.8199,-0.8325,-0.8742,-0.9259,-0.9757,-1.0278,-1.1355,-1.1859,-1.1828,-1.2282,-1.2508,-1.2508,-1.2508,-1.2223,-1.1714,-1.1792,-1.0712,-0.891,-0.7868,-0.6924,-0.6138,0.0,0.0,0.0,0.0,0.0,0.0,0.0,0.0,0.0,0.0,0.0,0.0,0.0,0.0,0.0,0.0,0.0,0.0,0.0,0.0,0.0,0.0,0.0,0.0,0.0,0.0,0.0,0.0,0.0,0.0,0.0,0.0,0.0,-0.7838,-0.9369,-1.0619,-1.0856,-1.2158,-1.3077,-1.3091,-1.3334,-1.3496,-1.3537,-1.405,-1.4689,-1.5342,-1.5922,-1.6547,-1.7214,-1.7243,-1.7243,-1.7258,-1.7911,-1.823,-1.8245,-1.8825,-1.9325,-1.966,-1.8947,-1.8805,-1.9045,-1.8029,-1.753,-1.7464,-1.7349,-1.7107,-1.6768,-1.6308,-1.6136,-1.61,-1.5882,-1.5821,-1.5734,-0.3803,-0.3803,-0.3788,-0.3772,-0.3764,-0.4126,-0.5156,-0.5479,-0.5984,-0.7011,-0.7123,-0.755,-0.8785,-0.8591,-0.8932,-1.0384,-0.9495,-0.9079,-0.96,-0.8727,-0.8304,-0.8511,-0.8847,-0.93,-0.9853,-1.0005,-1.0622,-1.1708,-1.1834,-1.2085,-1.247,-1.2567,-1.2639,-1.2639,-1.2639,-1.2555,-1.2387,-1.2049,-1.1542,-1.0861,-0.9223,-0.7945,-0.7024,0.0,0.0,0.0,0.0,0.0,0.0,0.0,0.0,0.0,0.0,0.0,0.0,0.0,0.0,0.0,0.0,0.0,0.0,0.0,0.0,0.0,0.0,0.0,0.0,0.0,0.0,0.0,0.0,0.0,0.0,0.0,-0.9433,-1.0392,-1.0051,-1.0597,-1.1384,-1.2411,-1.3478,-1.4296,-1.4819,-1.5286,-1.5784,-1.6314,-1.6378,-1.6535,-1.6808,-1.6884,-1.7243,-1.7911,-1.794,-1.8143,-1.8579,-1.8767,-1.9002,-1.9292,-1.9163,-1.9325,-1.9675,-1.9495,-1.9441,-1.9532,-1.942,-1.9379,-1.9345,-1.923,-1.9036,-1.8744,-1.7375,-1.6635,-1.6316,-1.6244,-1.6136,-1.5991,-0.3795,-0.3803,-0.3781,-0.3764,-0.3786,-0.4214,-0.542,-0.5589,-0.6038,-0.7281,-0.7249,-0.7618,-0.8988,-0.8799,-0.9239,-1.08,-1.0118,-0.9778,-1.0212,-0.9511,-0.9272,-0.9678,-0.985,-1.0302,-1.1084,-1.1165,-1.1554,-1.2334,-1.2539,-1.2725,-1.2896,-1.3104,-1.3104,-1.2896,-1.2931,-1.2873,-1.2685,-1.2384,-1.2085,-1.1742,-1.0645,-0.9387,-0.8162,-0.7825,-0.7314,-0.6815,-0.6836,-0.6701,-0.6419,-0.5841,0.0,0.0,0.0,0.0,0.0,0.0,0.0,0.0,0.0,0.0,0.0,0.0,0.0,0.0,0.0,0.0,0.0,0.0,0.0,0.0,0.0,0.0,0.0,0.0,-1.0886,-1.2167,-1.2816,-1.2986,-1.3327,-1.4121,-1.5111,-1.5934,-1.6332,-1.6812,-1.7183,-1.75,-1.7903,-1.8152,-1.8067,-1.8422,-1.8771,-1.9141,-1.9141,-1.9321,-1.9681,-1.9696,-1.9788,-2.0015,-1.9752,-1.9717,-1.9945,-1.9782,-1.9782,-1.9909,-1.9747,-1.9747,-1.9854,-1.9909,-1.9803,-1.9492,0.0,0.0,0.0,0.0,-1.7013,-1.6824,-0.3802,-0.3795,-0.3781,-0.3721,-0.3757,-0.4214,-0.5418,-0.5599,-0.6062,-0.734,-0.7294,-0.7591,-0.8728,-0.8718,-0.9169,-1.0539,-1.0432,-1.0409,-1.0632,-1.0496,-1.0635,-1.1216,-1.0957,-1.1294,-1.2306,-1.2427,-1.2488,-1.2551,-1.3323,-1.3535,-1.3263,-1.3689,-1.3669,-1.3251,-1.3319,-1.316,-1.2803,-1.2803,-1.2535,-1.2031,-1.2025,-1.099,-0.9431,-0.8971,-0.8453,-0.7967,-0.8081,-0.8164,-0.8066,-0.727,0.0,0.0,0.0,0.0,0.0,0.0,0.0,0.0,0.0,0.0,0.0,0.0,0.0,0.0,0.0,0.0,0.0,0.0,0.0,0.0,0.0,0.0,0.0,0.0,-1.2411,-1.3714,-1.5487,-1.5906,-1.598,-1.5847,-1.6821,-1.7545,-1.7685,-1.7966,-1.8046,-1.7888,-1.896,-1.9479,-1.9198,-2.002,0.0,0.0,0.0,-2.0514,-2.0514,-2.0514,-2.0514,-2.0532,-2.0398,-2.0348,-2.0382,-1.9929,-1.9909,-2.0104,-1.9479,-1.9347,-1.9588,-1.994,-1.9904,-1.9588,-1.9675,-1.9384,-1.886,-1.8464,-1.8163,-1.7963,-0.3803,-0.3796,-0.3803,-0.378,-0.3786,-0.4208,-0.5412,-0.5596,-0.6048,-0.7327,-0.7451,-0.7701,-0.8405,-0.8698,-0.9227,-1.0219,-1.0288,-1.0335,-1.0385,-1.0739,-1.111,-1.1507,-1.1455,-1.1951,-1.3055,-1.2887,-1.3018,-1.3434,-1.3617,-1.3682,-1.3615,-1.3715,-1.3702,-1.3602,-1.3635,-1.3568,-1.3514,-1.3514,-1.3302,-1.2926,-1.2788,-1.1902,-1.0665,-1.0618,-0.9944,-0.9058,-0.9328,-0.8896,-0.8193,-0.8236,-0.8288,-0.8205,-0.749,-0.7236,0.0,0.0,0.0,0.0,0.0,0.0,0.0,0.0,0.0,0.0,0.0,0.0,0.0,0.0,0.0,0.0,0.0,0.0,0.0,-1.2325,-1.4085,-1.55,-1.5894,-1.7562,-1.8391,-1.7416,-1.7468,-1.7924,-1.8799,-1.8893,-1.9221,-2.0091,-2.0249,-2.0311,-2.0293,-2.0403,-2.0514,-2.0514,-2.0514,-2.0514,-2.0514,-2.0514,-2.0648,-2.0894,-2.0599,0.0,-2.0862,-2.0382,-2.0054,-1.9894,-1.9965,-2.0035,-2.0104,-2.0478,-2.0695,-2.0712,-1.9995,-1.9457,-1.9109,-1.886,-1.8606,-1.8361,-0.3796,-0.3796,-0.3803,-0.3802,-0.3809,-0.4211,-0.5409,-0.5631,-0.6112,-0.7386,-0.7512,-0.7741,-0.8388,-0.857,-0.8949,-0.9727,-1.0096,-1.0366,-1.0688,-1.0968,-1.1458,-1.2263,-1.2102,-1.2647,-1.4015,-1.3749,-1.3739,-1.398,-1.4176,-1.4144,-1.4013,-1.4227,-1.4246,-1.4052,-1.4117,-1.4019,-1.3802,-1.3802,-1.3669,-1.3441,-1.3344,-1.291,-1.2296,-1.1837,-1.1153,-1.0525,-1.1011,-1.0651,-0.9875,-0.9814,-0.9627,-0.9274,-0.8525,-0.8118,-0.7824,0.0,0.0,0.0,0.0,0.0,0.0,0.0,0.0,0.0,0.0,0.0,0.0,0.0,0.0,-1.0462,-1.095,0.0,-1.3342,-1.4206,-1.5698,-1.6972,-1.7667,-1.8904,-1.9453,-1.8682,-1.9025,-1.9511,-2.0049,-2.0225,-2.048,-2.0862,-2.1134,-2.1181,-2.1071,-2.1166,-2.1213,-2.1213,-2.1166,-2.1166,-2.1166,-2.1166,-2.1229,-2.1401,-2.1214,-2.1182,-2.1339,-2.0862,-2.0532,-2.0345,-2.0261,-2.0227,-2.0243,-2.0646,-2.0958,-2.1151,-2.0613,-2.0085,-1.9588,-1.9184,-1.8898,-1.8659,-0.3796,-0.3796,-0.3803,-0.3809,-0.3795,-0.4164,-0.5274,-0.5579,-0.6118,-0.7272,-0.7487,-0.7715,-0.8266,-0.8373,-0.8681,-0.9337,-0.9903,-1.0426,-1.0897,-1.1052,-1.1672,-1.2939,-1.2692,-1.3228,-1.478,-1.4556,-1.4397,-1.4397,-1.4683,-1.4683,-1.4429,-1.4828,-1.4814,-1.4533,-1.4627,-1.447,-1.4098,-1.4098,-1.4,-1.3815,-1.3881,-1.3835,-1.3598,-1.2841,-1.2173,-1.1746,-1.2354,-1.2075,-1.1368,-1.111,-1.0739,-1.0242,-0.946,-0.8935,-0.854,-0.8355,-0.7905,0.0,0.0,0.0,0.0,0.0,0.0,0.0,0.0,-0.9337,-0.9859,-1.0118,-1.1052,-1.1945,-1.2366,-1.374,-1.5126,-1.6157,-1.7254,-1.8381,-1.9515,-2.0093,-2.0295,-2.0019,-2.0591,-2.1039,-2.1086,-2.1354,-2.1415,-2.1213,-2.1672,-2.1866,-2.1598,-2.1794,-2.1899,-2.1899,-2.184,-2.1797,-2.1797,-2.1797,-2.1797,-2.1797,-2.1738,-2.1708,-2.1724,-2.1308,-2.1071,-2.0926,-2.0565,-2.0398,-2.0379,-2.0745,-2.1055,-2.1294,-2.1199,-2.0778,-2.0239,-1.9645,-1.9281,-1.9072,-0.3796,-0.3796,-0.3796,-0.3796,-0.3796,-0.4043,-0.4775,-0.5349,-0.5971,-0.6706,-0.7258,-0.7617,-0.7706,-0.8165,-0.8734,-0.9337,-0.9944,-1.0286,-1.0292,-1.0858,-1.1735,-1.2939,-1.2968,-1.3515,-1.478,-1.4777,-1.4746,-1.4746,-1.4839,-1.4871,-1.4839,-1.4951,-1.4968,-1.4937,-1.4937,-1.489,-1.4794,-1.4794,-1.4574,-1.4254,-1.4543,-1.4273,-1.3703,-1.3706,-1.2973,-1.1997,-1.2298,-1.171,-1.0824,-1.1019,-1.1043,-1.0888,-1.027,-1.0017,-0.9842,-0.9176,-0.893,-0.8855,-0.8797,-0.8933,-0.9147,-0.9452,-0.9439,-0.9603,0.0,-1.1177,-1.1723,-1.2456,-1.3189,-1.3909,-1.4592,-1.5369,-1.6271,-1.7342,-1.8718,-1.9791,-2.0237,-2.1147,-2.1778,-2.1703,-2.1289,-2.1134,-2.1432,-2.1493,-2.1598,-2.1866,-2.1953,-2.1998,-2.194,-2.1911,-2.1899,-2.1899,-2.184,-2.1797,-2.1797,-2.1797,-2.1797,-2.1797,-2.1797,-2.1797,-2.1797,-2.1678,-2.1432,-2.107,-2.091,-2.0828,-2.0828,-2.1151,-2.1262,-2.1309,-2.1277,-2.1151,-2.0925,-2.0429,-2.0054,-1.9758,-0.3796,-0.3796,-0.3796,-0.3796,-0.3796,-0.4028,-0.4697,-0.5008,-0.5545,-0.6559,-0.6923,-0.72,-0.7561,-0.782,-0.8222,-0.882,-0.9103,-0.9537,-1.0215,-1.052,-1.123,-1.2493,-1.2498,-1.3078,-1.4366,-1.4364,-1.4534,-1.4904,-1.4935,-1.4966,-1.4966,-1.5072,-1.5133,-1.5133,-1.5133,-1.5058,-1.4966,-1.4932,-1.4777,-1.462,-1.4746,-1.4398,-1.3823,-1.3891,-1.3137,-1.2128,-1.2595,-1.2247,0.0,-1.1643,-1.1452,-1.1159,-1.0926,-1.0671,-1.0415,-1.0034,-0.9734,-0.9577,-0.9633,-1.0006,-1.0455,-1.0629,-1.1193,-1.1826,-1.223,-1.2733,-1.3252,-1.3604,-1.4738,-1.57,-1.5988,-1.7135,-1.8315,-1.9147,-1.9964,-2.0677,-2.1251,-2.1888,-2.2287,-2.2287,-2.2027,-2.194,-2.2073,-2.2073,-2.2101,-2.2231,-2.2231,-2.222,-2.2192,-2.2106,-2.2049,-2.2049,-2.1957,-2.1928,-2.1928,-2.1928,-2.1899,-2.1869,-2.1869,-2.184,-2.1797,-2.1768,-2.1631,-2.1432,-2.1355,-2.1261,-2.1182,-2.1293,-2.134,-2.1309,-2.1309,-2.1262,-2.1151,-2.0697,-2.0395,-2.0139,-0.3796,-0.3796,-0.3796,-0.3796,-0.3796,-0.3956,-0.445,-0.4683,-0.5134,-0.605,-0.6326,-0.6662,-0.7286,-0.7359,-0.759,-0.8194,-0.8426,-0.8881,-0.9736,-1.0135,-1.0805,-1.1903,-1.2053,-1.2649,-1.3799,-1.3771,-1.397,-1.4498,-1.4498,-1.4628,-1.4786,-1.4904,-1.5035,-1.5222,-1.5222,-1.5133,-1.4968,-1.4734,-1.4617,-1.4541,-1.4359,-1.4051,-1.3629,-1.3488,-1.2781,-1.1954,-1.2528,-1.2397,-1.1903,-1.166,-1.149,-1.1355,-1.1182,-1.1095,-1.1011,-1.0914,-1.0827,-1.0796,-1.0943,-1.1513,-1.208,-1.2183,-1.2937,-1.3678,-1.3828,-1.4202,-1.4581,-1.4798,-1.5921,-1.6809,-1.6757,-1.8184,-1.9542,-2.0151,-2.0805,-2.1452,-2.2074,-2.2398,-2.2569,-2.2569,-2.2569,-2.2569,-2.2569,-2.2515,-2.2487,-2.2432,-2.2405,-2.2394,-2.2366,-2.2271,-2.2214,-2.2242,-2.2089,-2.1998,-2.1998,-2.1998,-2.1969,-2.1928,-2.1911,-2.1869,-2.1827,-2.1811,-2.1768,-2.1708,-2.1664,-2.1573,-2.1495,-2.1417,-2.1355,-2.134,-2.1325,-2.1309,-2.1246,-2.0909,-2.073,-2.0613,-0.3796,-0.3796,-0.3796,-0.3796,-0.3796,-0.381,-0.3825,-0.4377,-0.4814,-0.4857,-0.5374,-0.5985,-0.6661,-0.6719,-0.6967,-0.7576,-0.8215,-0.8576,-0.8568,-0.9715,-1.0678,-1.1304,-1.1889,-1.2487,-1.3129,-1.3116,-1.3131,-1.3172,-1.3295,-1.3651,-1.4227,-1.4284,-1.466,-1.5283,-1.5222,-1.5133,-1.497,-1.431,-1.3982,-1.3896,-1.329,-1.3049,-1.2965,-1.2448,-1.187,-1.1399,-1.1865,-1.1745,-1.1213,-1.049,-1.0836,-1.1498,-1.0899,-1.1251,-1.1858,-1.1858,-1.2355,-1.2947,-1.3155,-1.3704,-1.4249,-1.4442,-1.4535,-1.4741,-1.5374,-1.5532,-1.5738,-1.6391,-1.6716,-1.6901,-1.6885,-1.8205,-1.9427,-1.9762,-2.1093,-2.2192,-2.2535,-2.2659,-2.2685,-2.2685,-2.2685,-2.2685,-2.2685,-2.2596,-2.2515,-2.2487,-2.2432,-2.2432,-2.2487,-2.231,-2.2242,-2.2282,-2.2101,-2.1998,-2.1998,-2.1998,-2.1998,-2.1998,-2.194,-2.1899,-2.1882,-2.184,-2.1797,-2.1781,-2.1724,-2.1694,-2.1694,-2.1479,-2.1386,-2.1386,-2.134,-2.1309,-2.1309,-2.1277,-2.1277,-2.1246,-0.3796,-0.3796,-0.3796,-0.3796,-0.3796,-0.3796,-0.3796,-0.3985,-0.429,-0.4741,-0.5331,0.0,0.0,0.0,0.0,0.0,-0.7577,-0.8112,-0.8532,-0.8967,-0.9498,-1.0143,-1.0721,-1.1339,-1.2019,-1.2388,-1.2805,-1.3315,-1.3342,-1.3457,-1.366,-1.3687,-1.3884,-1.4251,-1.4158,-1.4197,-1.4246,-1.3855,-1.3675,-1.3633,-1.3402,-1.2809,-1.2005,-1.1945,-1.1268,-1.0387,0.0,-1.045,-1.0264,-1.0068,-1.0574,-1.1218,-1.1026,-1.1585,-1.2401,-1.2937,-1.3198,-1.3487,-1.4229,-1.496,-1.5531,-1.5678,-1.6066,-1.6402,-1.6415,-1.6387,-1.6476,-1.6725,-1.7365,-1.7869,-1.8054,-1.906,-2.0077,-2.0807,-2.143,-2.2074,-2.2721,-2.2893,-2.297,-2.297,-2.297,-2.2944,-2.2842,-2.2712,-2.2605,-2.2569,-2.2542,-2.2525,-2.2515,-2.2432,-2.2405,-2.2432,-2.2304,-2.2276,-2.2276,-2.222,-2.218,-2.2135,-2.2015,-2.194,-2.1899,-2.1869,-2.184,-2.1797,-2.1768,-2.1738,-2.1694,-2.1617,-2.1526,-2.1386,-2.1402,-2.134,-2.1309,-2.1309,-2.1309,-2.1277,-0.3796,-0.3796,-0.3796,-0.3796,-0.3796,0.0,0.0,0.0,0.0,0.0,0.0,0.0,0.0,0.0,0.0,0.0,0.0,-0.7547,-0.8201,-0.8464,-0.8784,-0.922,-0.9802,-1.0337,-1.0805,-1.1169,-1.1574,-1.2042,-1.2042,-1.2182,-1.2434,-1.2692,-1.3035,-1.3445,-1.3635,-1.3655,-1.3522,-1.3079,-1.3183,-1.3549,-1.2592,-1.217,-1.2008,-1.1403,-1.0497,0.0,-0.961,-0.9458,-0.9289,-0.9515,-1.0134,-1.081,-1.0828,-1.1841,-1.3119,-1.3674,-1.4159,-1.4643,-1.5342,-1.6066,-1.6667,-1.6752,-1.7084,-1.7344,-1.7126,-1.7093,-1.7093,-1.715,-1.7675,-1.8218,-1.837,-1.9226,-2.0069,-2.0614,-2.1278,-2.1895,-2.2424,-2.282,-2.3045,-2.3077,-2.3133,-2.3133,-2.2977,-2.2935,-2.2833,-2.2659,-2.2605,-2.2579,-2.2569,-2.2542,-2.2515,-2.2525,-2.246,-2.2432,-2.2405,-2.2366,-2.2282,-2.2214,-2.2106,-2.2015,-2.194,-2.1911,-2.1869,-2.184,-2.1811,-2.1768,-2.1738,-2.1724,-2.1617,-2.1495,-2.1417,-2.1355,-2.134,-2.1309,-2.1309,-2.1294,-0.3796,-0.3796,-0.3796,0.0,0.0,0.0,0.0,0.0,0.0,0.0,0.0,0.0,0.0,0.0,0.0,0.0,0.0,0.0,-0.7561,-0.8201,-0.8551,-0.8551,-0.9191,-0.954,-0.954,-0.9584,-0.9598,-0.9598,-0.9598,-0.9947,-1.0653,-1.1359,-1.2095,-1.2879,-1.3448,-1.3364,-1.2735,-1.2026,-1.2486,-1.3494,-1.094,-1.1124,-1.2691,-1.0718,-0.9553,-0.9004,-0.9187,-0.8836,-0.8377,-0.8819,-0.9575,-1.0349,-1.0462,-1.2072,-1.3941,-1.4117,-1.518,-1.6348,-1.6519,-1.7099,-1.7635,-1.7635,-1.7635,-1.7635,-1.7612,-1.7579,-1.7562,-1.7545,-1.7687,-1.7764,-1.7803,-1.8659,-1.9343,-1.9268,-2.0605,-2.1707,-2.1795,-2.2457,-2.2977,-2.3102,-2.3242,-2.3271,-2.3126,-2.3242,-2.3153,-2.2747,-2.2659,-2.2632,-2.2685,-2.2579,-2.2542,-2.2605,-2.2542,-2.2487,-2.2405,-2.2405,-2.2338,-2.2214,-2.2214,-2.2152,-2.1998,-2.194,-2.1882,-2.1899,-2.184,-2.1797,-2.1797,-2.1738,-2.1724,-2.1708,-2.1495,-2.1417,-2.1417,-2.134,-2.1309,-2.1309,0.0,0.0,0.0,0.0,0.0,0.0,0.0,0.0,0.0,0.0,0.0,0.0,0.0,0.0,0.0,0.0,0.0,0.0,-0.756,-0.7764,-0.785,-0.7864,-0.8506,-0.8839,-0.8773,-0.9263,-0.9508,-0.9461,-0.9461,-0.9623,-0.9954,-1.0154,-1.0508,-1.101,-1.1147,-1.1239,-1.124,-1.0843,-1.088,-1.1163,-1.0463,-1.0231,-1.0232,-0.9844,-0.9253,-0.8634,-0.8674,-0.8589,-0.8473,-0.86,-0.9575,-1.0844,-1.1481,-1.2821,-1.4305,-1.4908,-1.5725,-1.6608,-1.7407,-1.7761,-1.7893,-1.7893,-1.7958,-1.7975,-1.7681,-1.7288,-1.7029,-1.7067,-1.6567,-1.6197,-1.6433,-1.7073,-1.7783,-1.8437,-2.0114,-2.1505,-2.197,-2.2878,-2.3495,-2.354,-2.3584,-2.3562,-2.3427,-2.3432,-2.3318,-2.3028,-2.2893,-2.279,-2.2712,-2.2659,-2.2659,-2.2659,-2.2605,-2.2569,-2.2569,-2.246,-2.2377,-2.2366,-2.231,-2.2225,-2.2152,-2.2015,-2.194,-2.1899,-2.184,-2.1797,-2.1797,-2.1797,-2.1869,-2.1969,-2.1721,-2.1661,-2.1751,-2.1479,-2.134,-2.1309,0.0,0.0,0.0,0.0,0.0,0.0,0.0,0.0,0.0,0.0,0.0,0.0,0.0,0.0,0.0,0.0,0.0,0.0,0.0,-0.7445,-0.7603,-0.7602,-0.7936,-0.8123,-0.8105,-0.845,-0.8605,-0.8605,-0.8605,-0.8709,-0.8911,-0.9295,-0.9632,-0.9923,-1.0303,-1.0383,-1.0202,-1.0063,-1.0351,0.0,0.0,-0.9843,-1.0256,-0.9503,-0.8954,-0.8596,-0.8616,-0.8628,-0.869,-0.9068,-0.9982,-1.1139,-1.2271,-1.3612,-1.4936,-1.5772,-1.6534,-1.7253,-1.7915,-1.8103,-1.8128,-1.8128,-1.8229,-1.818,-1.7607,-1.7195,-1.6898,-1.657,-1.6062,-1.5733,-1.5974,-1.6321,-1.6877,-1.772,-1.9156,-2.0485,-2.148,-2.2536,-2.3334,-2.3656,-2.3819,-2.3878,-2.3735,-2.3777,-2.3692,-2.344,-2.3199,-2.2995,-2.2816,-2.2825,-2.2816,-2.2712,-2.279,-2.2816,-2.279,-2.2552,-2.2487,-2.2596,-2.2542,-2.2487,-2.2405,-2.2298,-2.2141,-2.194,-2.1869,-2.1827,-2.1797,-2.1797,-2.194,-2.2124,-2.194,-2.1982,-2.2108,-2.1764,-2.1601,-2.154,0.0,0.0,0.0,0.0,0.0,0.0,0.0,0.0,0.0,-0.5945,-0.58,-0.5699,-0.5699,-0.5699,0.0,0.0,0.0,0.0,0.0,0.0,-0.7387,-0.7458,-0.7414,-0.7443,-0.7587,-0.7528,-0.7528,-0.7587,-0.7602,-0.7724,-0.7943,-0.8711,-0.9154,-0.9319,-1.006,-1.0055,-0.9458,-0.9458,-1.0154,-1.1108,-0.9278,-0.9634,-1.1108,0.0,-0.8717,-0.8729,-0.8771,-0.8806,-0.8963,-0.992,-1.0588,-1.1311,-1.2856,-1.4323,-1.5651,-1.656,-1.7369,-1.8005,-1.8293,-1.835,-1.8345,-1.845,-1.8428,-1.8171,-1.7428,-1.7007,-1.657,-1.5854,-1.5505,-1.5332,-1.5384,-1.5678,-1.6115,-1.6747,-1.7968,-1.9325,-2.0728,-2.1918,-2.2908,-2.3666,-2.4019,-2.4154,-2.4036,-2.4135,-2.4096,-2.3837,-2.3576,-2.3295,-2.3028,-2.3077,-2.3003,-2.2764,-2.3003,-2.3102,-2.3045,-2.2747,-2.2694,-2.285,-2.285,-2.2799,-2.2747,-2.2677,-2.2446,-2.2113,-2.2056,-2.1969,-2.1928,-2.1928,-2.2084,-2.2303,-2.2209,-2.233,-2.2449,-2.2068,-2.1882,-2.1764,0.0,0.0,0.0,0.0,0.0,0.0,0.0,0.0,0.0,0.0,-0.6349,-0.5699,0.0,0.0,0.0,0.0,0.0,0.0,0.0,0.0,0.0,-0.6743,-0.677,-0.6985,-0.7511,-0.7496,-0.7496,-0.7526,-0.7619,-0.7783,-0.7983,-0.8257,-0.8469,-0.8663,-0.8818,-0.8815,-0.8686,-0.8686,-0.8831,-0.9038,-0.8767,-0.8899,-0.9179,-0.8897,0.0,0.0,-0.8794,-0.884,-0.91,-1.0522,-1.1083,-1.144,-1.3029,-1.459,-1.5961,-1.6738,-1.7528,-1.831,-1.9083,-1.8874,-1.8603,-1.915,-1.8526,-1.7631,-1.7155,-1.5766,-1.447,-1.4162,-1.315,-1.2336,-1.2296,-1.3426,-1.4427,-1.4559,-1.703,-1.9324,-2.0354,-2.1807,-2.3085,-2.4005,-2.4154,-2.4192,-2.4173,-2.4192,-2.4135,-2.3976,-2.3959,-2.3819,-2.3495,-2.3341,-2.3194,-2.3045,-2.3242,-2.333,-2.3241,-2.3194,-2.3194,-2.3206,-2.3105,-2.3032,-2.3035,-2.2908,-2.2807,-2.2738,-2.2608,-2.2529,-2.2527,-2.2527,-2.2686,-2.291,-2.2686,-2.2563,-2.2476,-2.2124,-2.1764,-2.1479,0.0,0.0,0.0,0.0,0.0,0.0,0.0,-0.7417,-0.7605,-0.7604,-0.707,-0.6682,-0.6694,-0.6694,-0.6679,0.0,0.0,0.0,0.0,0.0,0.0,0.0,0.0,0.0,-0.7013,-0.6999,-0.7185,-0.759,0.0,-0.7855,-0.8053,-0.8187,-0.8293,-0.8403,-0.8467,-0.8508,-0.8508,-0.8508,-0.8508,-0.8521,-0.8645,-0.8705,-0.8717,0.0,0.0,0.0,-0.8953,-0.8974,-0.9178,-1.0304,-1.0955,-1.1706,-1.4056,-1.5296,-1.6123,-1.7294,-1.7897,-1.828,-1.8706,-1.8603,-1.8475,-1.8798,-1.8151,-1.7294,-1.6708,-1.5188,-1.3742,-1.3238,-1.2265,-1.1511,-1.1494,-1.2196,-1.3033,-1.3863,-1.5468,-1.7318,-1.9376,-2.0874,-2.2222,-2.3419,-2.4044,-2.4375,-2.4375,-2.4375,-2.4321,-2.4266,-2.4284,-2.4116,-2.3714,-2.3544,-2.3477,-2.3576,-2.3477,-2.35,-2.3598,-2.3432,-2.3392,-2.3513,-2.341,-2.3323,-2.3312,-2.3242,-2.3098,-2.2892,-2.2824,-2.2773,-2.2703,-2.2703,-2.2859,-2.3052,-2.2807,-2.2738,-2.2747,-2.2209,-2.1953,-2.1836,0.0,0.0,0.0,0.0,0.0,0.0,0.0,-0.7589,-0.7604,-0.7573,-0.7573,-0.7588,-0.7589,-0.7589,-0.7373,0.0,0.0,0.0,0.0,0.0,0.0,0.0,0.0,0.0,-0.6613,0.0,0.0,-0.7709,-0.7841,0.0,0.0,0.0,0.0,0.0,-0.8415,-0.8454,-0.8483,-0.8483,-0.8495,0.0,0.0,-0.8729,-0.8741,0.0,0.0,0.0,0.0,-0.9109,-0.9202,-0.9945,-1.0722,-1.1875,-1.4572,-1.5623,-1.6174,-1.7535,-1.8052,-1.8224,-1.8379,-1.8381,-1.829,-1.8287,-1.7652,-1.6817,-1.587,-1.442,-1.3063,-1.2251,-1.1464,-1.0932,-1.0981,-1.1176,-1.1823,-1.3263,-1.3959,-1.5374,-1.8397,-1.9782,-2.1102,-2.2846,-2.3745,-2.4295,-2.4481,-2.45,-2.45,-2.45,-2.45,-2.4321,-2.3899,-2.3798,-2.3837,-2.3996,-2.3777,-2.3756,-2.3937,-2.3692,-2.3631,-2.3795,-2.3735,-2.3671,-2.3588,-2.3598,-2.3417,-2.3091,-2.3091,-2.3017,-2.2917,-2.2917,-2.3035,-2.3193,-2.296,-2.2977,-2.3028,-2.2402,-2.2237,-2.2248,0.0,0.0,0.0,0.0,0.0,0.0,0.0,-0.7602,-0.7573,-0.7513,-0.7513,-0.7529,-0.7588,-0.7543,-0.7514,0.0,0.0,0.0,0.0,0.0,0.0,0.0,0.0,0.0,0.0,0.0,0.0,-0.7783,-0.8037,0.0,0.0,0.0,0.0,0.0,0.0,-0.8348,-0.8415,-0.8415,0.0,0.0,0.0,0.0,0.0,0.0,0.0,0.0,0.0,-0.9109,-0.9202,-0.9945,-1.0722,-1.1685,-1.3294,-1.4779,-1.6054,-1.688,-1.7621,-1.8366,-1.9016,-1.8762,-1.8287,-1.8218,-1.7246,-1.587,-1.4222,-1.2745,-1.1481,-1.0608,-0.9875,-0.9394,-0.9327,-0.9981,-1.0829,-1.1765,-1.3102,-1.5026,-1.7868,-1.8886,-2.0294,-2.2891,-2.3258,-2.3628,-2.4425,-2.45,-2.45,-2.45,-2.45,-2.4411,-2.4173,-2.4266,-2.4228,-2.4016,-2.4096,-2.4115,-2.4074,-2.4113,-2.4094,-2.4074,-2.4054,-2.3996,-2.3858,-2.3876,-2.381,-2.3721,-2.3721,-2.3678,-2.3594,-2.3594,-2.3589,-2.3539,-2.3539,-2.3336,-2.3052,-2.2833,-2.2563,-2.2275,0.0,0.0,0.0,0.0,0.0,0.0,-0.7543,-0.7573,-0.7587,-0.7511,-0.7498,-0.7513,-0.7541,-0.7528,-0.7529,-0.7602,0.0,0.0,0.0,0.0,0.0,0.0,0.0,0.0,0.0,0.0,-0.7522,-0.7912,-0.8066,0.0,0.0,0.0,0.0,0.0,0.0,-0.8322,-0.8348,-0.8348,0.0,0.0,0.0,0.0,0.0,0.0,0.0,0.0,0.0,0.0,-0.908,-0.9383,-1.0013,-1.0852,-1.1947,-1.3311,-1.4762,-1.5985,-1.688,-1.7535,-1.7845,-1.7731,-1.751,-1.7486,-1.6405,-1.5054,-1.3862,-1.2477,-1.1192,-1.0359,-0.9628,-0.912,-0.9109,-0.9415,-0.9932,-1.0742,-1.1854,-1.3541,-1.6155,-1.7676,-1.9488,-2.205,-2.2856,-2.3537,-2.4425,-2.45,-2.45,-2.45,-2.45,-2.4465,-2.4375,-2.4429,-2.4393,-2.4303,-2.4321,-2.4303,-2.4228,-2.4209,-2.419,-2.417,-2.4113,-2.4054,-2.3976,-2.3917,-2.3873,-2.3804,-2.3804,-2.3743,-2.37,-2.37,-2.3674,-2.3585,-2.3412,-2.3247,-2.3052,-2.2643,-2.2527,-2.2517,0.0,0.0,0.0,0.0,0.0,-0.7498,-0.7498,-0.7542,-0.7556,-0.748,-0.7497,-0.7497,-0.7511,-0.7512,-0.7574,-0.7679,-0.7368,0.0,0.0,0.0,0.0,0.0,0.0,0.0,0.0,0.0,-0.7553,-0.8039,-0.8121,-0.8203,0.0,0.0,-0.8269,-0.8243,0.0,0.0,0.0,0.0,0.0,0.0,0.0,0.0,0.0,0.0,0.0,0.0,0.0,0.0,0.0,0.0,0.0,-1.0301,-1.0835,-1.1899,-1.3294,-1.5055,-1.6088,-1.6674,-1.6674,-1.6674,-1.6622,-1.6398,-1.5383,-1.4175,-1.3173,-1.1947,-1.0808,-1.0031,-0.9461,-0.9109,-0.9109,-0.9147,-0.9422,-1.0174,-1.1077,-1.2465,-1.4724,-1.6583,-1.8629,-2.1152,-2.2266,-2.3293,-2.4388,-2.45,-2.45,-2.45,-2.45,-2.45,-2.45,-2.45,-2.45,-2.45,-2.443,-2.4376,-2.4284,-2.4229,-2.4191,-2.419,-2.4151,-2.4094,-2.4016,-2.3976,-2.3915,-2.3828,-2.3828,-2.3807,-2.3725,-2.3725,-2.37,-2.3607,-2.3435,-2.3277,-2.3151,-2.2695,-2.2677,-2.279,0.0,0.0,0.0,0.0,0.0,0.0,-0.751,-0.751,-0.748,-0.7407,-0.7451,-0.7496,-0.7513,-0.7558,-0.7679,-0.787,-0.7827,0.0,0.0,0.0,0.0,0.0,0.0,0.0,0.0,0.0,-0.8227,-0.8094,-0.8243,-0.8269,-0.8191,-0.8191,-0.8164,-0.8094,0.0,0.0,0.0,0.0,0.0,0.0,0.0,0.0,0.0,0.0,0.0,0.0,0.0,0.0,0.0,0.0,0.0,0.0,0.0,-1.0723,-1.1875,-1.4139,-1.5331,-1.5916,-1.5916,-1.5916,-1.5726,-1.5003,-1.4209,-1.3225,-1.1771,-1.0791,-0.9996,-0.9254,-0.9109,-0.9109,-0.9109,-0.9109,-0.9372,-1.0174,-1.103,-1.2209,-1.3964,-1.5714,-1.7752,-2.0317,-2.143,-2.268,-2.4332,-2.45,-2.45,-2.45,-2.45,-2.45,-2.45,-2.45,-2.45,-2.45,-2.443,-2.4376,-2.4284,-2.4229,-2.4191,-2.419,-2.419,-2.417,-2.4094,-2.4094,-2.4034,-2.3896,-2.3896,-2.3876,-2.3795,-2.3795,-2.375,-2.37,-2.37,-2.3611,-2.3453,-2.3193,-2.3077,-2.307,0.0,0.0,0.0,0.0,0.0,0.0,0.0,-0.748,-0.7527,-0.7605,-0.762,-0.7665,-0.7768,-0.7827,-0.7914,-0.8026,-0.7985,0.0,0.0,0.0,0.0,0.0,0.0,0.0,0.0,0.0,-0.8135,-0.8094,-0.8135,-0.8149,-0.8137,-0.8137,-0.8123,-0.8094,-0.8203,-0.8282,0.0,0.0,0.0,0.0,0.0,0.0,-0.8936,0.0,0.0,0.0,0.0,0.0,0.0,0.0,0.0,0.0,0.0,0.0,0.0,-1.2029,-1.3332,-1.4331,-1.4331,-1.4727,-1.4969,-1.4175,-1.3415,-1.2448,-1.0929,-1.0376,-0.9996,-0.9254,-0.9109,-0.9109,-0.9109,-0.9109,-0.9206,-0.9502,-1.0668,-1.2159,-1.3946,-1.5655,-1.7914,-2.1044,-2.2763,-2.3923,-2.4444,-2.45,-2.45,-2.45,-2.45,-2.45,-2.45,-2.45,-2.45,-2.45,-2.4482,-2.4447,-2.4376,-2.4303,-2.4247,-2.4191,-2.4209,-2.417,-2.4094,-2.4094,-2.4036,-2.3976,-2.3917,-2.3896,-2.3858,-2.381,-2.3765,-2.37,-2.3652,-2.3539,-2.3336,-2.3168,-2.3045,-2.2944,0.0,0.0,0.0,0.0,0.0,0.0,0.0,-0.7467,-0.7558,-0.7619,-0.7695,-0.7753,-0.7826,-0.7899,-0.7999,-0.8096,-0.8041,0.0,0.0,0.0,0.0,0.0,0.0,0.0,-0.749,-0.7878,-0.8233,-0.8479,-0.8479,-0.8647,-0.8969,-0.8969,-0.8858,-0.8677,-0.8743,-0.8666,0.0,0.0,0.0,0.0,0.0,0.0,-0.8891,0.0,0.0,0.0,0.0,0.0,0.0,0.0,0.0,0.0,0.0,0.0,0.0,0.0,-1.1315,-1.2353,-1.2643,-1.3106,-1.3365,-1.2897,-1.2189,-1.1378,-1.0428,-0.9979,-0.9651,-0.9185,-0.9109,-0.9109,-0.9109,-0.9109,-0.9206,-0.9554,-1.072,-1.2191,-1.3946,-1.5714,-1.8064,-2.1477,-2.3427,-2.45,-2.45,-2.45,-2.45,-2.45,-2.45,-2.45,-2.45,-2.45,-2.45,-2.45,-2.45,-2.4465,-2.4394,-2.4358,-2.4303,-2.4247,-2.421,-2.419,-2.4134,-2.4133,-2.4094,-2.4036,-2.3976,-2.3917,0.0,-2.3828,-2.3743,-2.37,-2.3629,-2.3517,-2.336,-2.3168,-2.3045,-2.2944,0.0,0.0,0.0,0.0,0.0,0.0,0.0,-0.7514,-0.7574,-0.7542,-0.7694,-0.7783,-0.7739,-0.7856,-0.7971,-0.808,0.0,0.0,0.0,0.0,0.0,0.0,0.0,0.0,-0.8094,-0.814,-0.8479,-0.9096,-0.922,-0.9655,-1.0398,-1.0478,-1.0223,-0.9677,-0.9628,-0.9284,0.0,0.0,0.0,0.0,-0.8891,-0.8891,0.0,0.0,0.0,0.0,0.0,0.0,0.0,0.0,0.0,0.0,0.0,0.0,0.0,0.0,0.0,0.0,0.0,-1.1222,-1.1304,-1.1309,-1.0756,-1.0186,-1.0135,-0.9582,0.0,-0.9109,-0.9109,-0.9109,-0.9109,-0.9109,-0.9372,-1.0186,-1.114,-1.2377,-1.4075,-1.6057,-1.8532,-2.1718,-2.3498,-2.45,-2.45,-2.45,-2.45,-2.45,-2.45,-2.45,-2.45,-2.45,-2.45,-2.45,-2.4517,-2.4482,-2.4412,-2.4412,-2.4376,-2.4321,-2.4248,-2.4229,-2.4229,-2.4228,-2.419,-2.4113,-2.4056,-2.3996,-2.3896,-2.3828,-2.3761,-2.37,-2.3629,-2.3539,-2.3448,-2.3193,-2.3095,-2.3045,0.0,0.0,0.0,0.0,0.0,0.0,0.0,0.0,0.0,0.0,-0.787,-0.7928,-0.8068,-0.8109,-0.8123,0.0,0.0,0.0,0.0,0.0,0.0,0.0,0.0,0.0,-0.8094,-0.8603,-0.8942,-0.9096,-1.0332,-1.0747,-1.0414,-1.1188,-1.114,-1.0421,-0.9952,-0.9413,0.0,0.0,0.0,0.0,-0.8891,-0.8891,0.0,0.0,0.0,0.0,-0.8919,-0.8919,0.0,0.0,0.0,0.0,0.0,0.0,0.0,0.0,-0.9049,-0.9231,-0.9475,0.0,-1.117,-1.0561,-1.0306,-1.0037,0.0,-0.9181,-0.9109,-0.9109,-0.9109,-0.9109,-0.9109,-0.9109,-0.9383,-1.0241,-1.1688,-1.3311,-1.5098,-1.8495,-2.135,-2.2757,-2.3851,-2.45,-2.45,-2.45,-2.45,-2.45,-2.45,-2.45,-2.45,-2.45,-2.45,-2.45,-2.4599,-2.4599,-2.4482,-2.443,-2.4394,-2.4394,-2.4408,-2.4424,-2.4444,-2.4543,-2.4493,-2.432,-2.4266,-2.4134,-2.3976,-2.3807,-2.3721,-2.3678,-2.3585,-2.3383,-2.3193,-2.3102,-2.297,-2.279,0.0,0.0,0.0,0.0,0.0,0.0,0.0,0.0,0.0,0.0,0.0,-0.8012,-0.8097,-0.8137,0.0,0.0,0.0,0.0,0.0,0.0,0.0,0.0,0.0,-0.8248,-0.8556,-0.9219,-0.9866,-1.0512,-1.1679,-1.2305,-1.2469,-1.2983,-1.2742,-1.1825,-1.0491,-0.9509,0.0,0.0,0.0,-0.8897,-0.8891,0.0,0.0,0.0,0.0,0.0,-0.8891,-0.8891,0.0,-0.8891,-0.8891,-0.8891,0.0,0.0,0.0,0.0,-0.8891,-0.8919,-0.8936,-0.9577,-1.0142,-0.9703,-0.9623,-0.9537,-0.9097,-0.9022,-0.906,-0.9099,-0.9109,-0.9202,-0.9548,-0.9676,-1.0263,-1.1848,-1.2993,-1.4581,-1.7135,-2.0411,-2.272,-2.3147,-2.3962,-2.45,-2.45,-2.45,-2.45,-2.45,-2.45,-2.45,-2.45,-2.4549,-2.4599,-2.4599,-2.4719,-2.4719,-2.4599,-2.4629,-2.4626,-2.4626,-2.4651,-2.4648,-2.4636,-2.4682,-2.4636,-2.4524,-2.4374,-2.4229,-2.4114,-2.385,-2.3721,-2.3678,-2.3585,-2.3383,-2.3193,-2.3102,-2.297,-2.279,0.0,0.0,0.0,0.0,0.0,0.0,0.0,0.0,0.0,0.0,0.0,0.0,0.0,0.0,0.0,0.0,0.0,0.0,0.0,0.0,0.0,0.0,0.0,-0.8511,-0.9065,-0.9941,-1.1032,-1.2343,-1.3228,-1.413,-1.4998,-1.515,-1.4468,-1.3025,-1.1056,-0.9664,0.0,0.0,-0.8897,-0.8891,-0.8908,0.0,0.0,0.0,0.0,0.0,0.0,0.0,0.0,-0.8891,-0.8891,-0.8891,-0.8891,0.0,0.0,0.0,0.0,0.0,-0.8891,-0.8947,-0.8993,-0.8998,-0.9002,-0.8996,-0.9001,-0.9001,-0.9056,-0.9237,-0.9271,-0.9507,-1.0273,-1.0544,-1.1433,-1.3774,-1.4763,-1.635,-1.9513,-2.1829,-2.3258,-2.337,-2.4036,-2.45,-2.45,-2.4517,-2.4534,-2.4534,-2.4549,-2.4566,-2.4566,-2.4676,-2.4719,-2.4719,-2.4861,-2.4874,-2.4764,-2.4847,-2.4902,-2.4902,-2.4864,-2.485,-2.4836,-2.478,-2.4756,-2.47,-2.4444,0.0,-2.4229,-2.3933,-2.3743,-2.37,-2.3634,-2.3499,-2.3289,-2.3199,-2.3052,-2.2902,0.0,0.0,0.0,0.0,0.0,0.0,0.0,0.0,0.0,0.0,0.0,0.0,0.0,0.0,0.0,0.0,0.0,0.0,0.0,0.0,0.0,-0.8094,-0.859,-0.8911,-0.9018,-1.0784,-1.2131,-1.2954,-1.5208,-1.5996,-1.5446,-1.6617,-1.5425,-1.2238,-1.1328,-1.0178,-0.888,-0.8891,-0.8903,-0.8908,-0.8891,0.0,0.0,0.0,0.0,0.0,0.0,0.0,0.0,-0.8891,-0.8891,-0.8891,-0.8891,0.0,0.0,0.0,0.0,0.0,-0.8891,-0.8947,-0.901,-0.8993,-0.9002,-0.9001,-0.9001,-0.9001,-0.9194,-0.9881,-1.0025,-1.0314,-1.1224,-1.1406,-1.2068,-1.4047,-1.6762,-1.935,-2.135,-2.2534,-2.3462,-2.4221,-2.4425,-2.45,-2.45,-2.4615,-2.466,-2.466,-2.476,-2.4832,-2.4832,-2.4861,-2.4874,-2.4874,-2.4987,-2.5049,-2.5037,-2.4955,-2.4902,-2.4902,-2.5,-2.5024,-2.4962,-2.5091,-2.4981,-2.4689,0.0,-2.4301,-2.4036,-2.3871,-2.3743,-2.37,-2.375,-2.3576,-2.3313,-2.3405,-2.3283,-2.307,0.0,0.0,0.0,0.0,0.0,0.0,0.0,0.0,0.0,0.0,0.0,0.0,0.0,0.0,0.0,0.0,0.0,0.0,0.0,0.0,0.0,-0.8094,-0.9034,-0.9718,-1.0071,-1.177,-1.3337,-1.472,-1.6278,-1.7164,-1.745,-1.7186,-1.5526,-1.269,-1.1595,-1.0249,-0.8857,-0.8891,-0.8897,-0.8897,0.0,0.0,0.0,0.0,0.0,0.0,0.0,0.0,0.0,0.0,-0.8891,-0.8891,-0.8891,0.0,0.0,0.0,0.0,0.0,-0.8891,-0.8919,-0.9049,-0.9492,-0.9315,-0.9164,-0.9599,-0.9736,-0.9967,-1.0748,-1.0892,-1.1307,-1.2656,-1.2954,-1.3937,-1.6759,-1.922,-2.1242,-2.2479,-2.3368,-2.4036,-2.4444,-2.45,-2.45,-2.45,-2.4549,-2.4615,-2.4645,-2.4734,-2.4804,-2.4836,-2.4949,-2.5012,-2.5005,-2.5149,-2.5222,-2.5222,-2.5149,-2.5115,-2.5115,-2.5171,-2.5182,-2.5149,-2.5182,-2.5115,-2.4968,0.0,-2.4554,-2.4424,-2.4211,-2.4077,-2.3978,-2.3999,-2.3837,-2.3553,-2.3432,-2.3318,-2.3212,0.0,0.0,0.0,0.0,0.0,0.0,0.0,0.0,0.0,0.0,0.0,0.0,0.0,0.0,0.0,0.0,0.0,0.0,0.0,0.0,-0.8082,-0.8082,-0.9307,-1.0306,-1.0963,-1.2527,-1.4322,-1.6296,-1.7128,-1.8111,-1.9214,-1.72,-1.5188,-1.3176,-1.173,-1.0249,-0.8818,-0.8875,-0.8897,-0.8903,0.0,0.0,0.0,0.0,0.0,0.0,0.0,0.0,0.0,0.0,0.0,0.0,0.0,0.0,0.0,-0.8891,-0.8891,-0.8891,-0.8891,-0.8919,-0.9117,-0.9901,-0.9721,-0.9565,-1.0383,-1.0779,-1.1188,-1.195,-1.2261,-1.2873,-1.4317,-1.5022,-1.6278,-1.9115,-2.1105,-2.2497,-2.311,-2.3944,-2.45,-2.45,-2.45,-2.45,-2.45,-2.4534,-2.4582,-2.466,-2.4749,-2.4847,-2.493,-2.5072,-2.5152,-2.5165,-2.5244,-2.5313,-2.5322,-2.5322,-2.5313,-2.5303,-2.5303,-2.5303,-2.5293,-2.5262,-2.5201,-2.5126,-2.4929,-2.479,-2.4712,-2.4508,-2.4337,-2.4229,-2.4284,-2.4135,-2.3881,-2.3588,-2.3437,-2.3392,0.0,0.0,0.0,0.0,0.0,0.0,0.0,0.0,0.0,0.0,0.0,0.0,0.0,0.0,0.0,0.0,0.0,0.0,0.0,0.0,-0.8014,-0.8014,-0.9289,-1.0288,-1.0881,-1.2779,-1.4799,-1.6939,-1.8163,-1.9074,-1.9581,-1.6663,-1.451,-1.3055,-1.1699,-1.0279,-0.8897,-0.8908,-0.8903,-0.8891,-0.8891,0.0,0.0,0.0,0.0,0.0,0.0,0.0,0.0,0.0,0.0,0.0,0.0,0.0,-0.8891,-0.8891,-0.8891,-0.8891,-0.8891,-0.8936,-0.918,-0.9923,-1.0066,-1.0264,-1.1195,-1.2033,-1.2872,-1.3739,-1.4567,-1.5378,-1.6181,-1.7703,-1.8999,-1.9434,-2.1535,-2.3128,-2.3184,-2.3944,-2.45,-2.45,-2.45,-2.45,-2.45,-2.4615,-2.4734,-2.4874,-2.5006,-2.5149,-2.5341,-2.5313,-2.5303,-2.5378,-2.5332,-2.5332,-2.5387,-2.5388,-2.5361,-2.5303,-2.5303,-2.5293,-2.5292,-2.5311,-2.5176,-2.5006,-2.4934,-2.4756,-2.4522,-2.4493,-2.4407,-2.4318,-2.4495,-2.4461,-2.4247,-2.4019,-2.3837,-2.3671,0.0,0.0,0.0,0.0,0.0,0.0,0.0,0.0,0.0,0.0,0.0,0.0,0.0,0.0,0.0,0.0,0.0,0.0,0.0,-0.8055,-0.8069,-0.8057,-0.9306,-1.0303,-1.0946,-1.2955,-1.5167,-1.7545,-1.8917,-1.956,-1.9448,-1.7176,-1.5107,-1.321,-1.176,-1.0271,-0.8897,-0.8897,-0.8908,-0.8891,-0.8891,-0.8891,0.0,0.0,0.0,0.0,0.0,0.0,0.0,0.0,-0.7838,-0.8214,-0.821,-0.8525,-0.8891,-0.8891,-0.8891,-0.8891,-0.8891,-0.9349,-1.0077,-1.1182,-1.194,-1.2495,-1.2847,-1.328,-1.3957,-1.517,-1.624,-1.7373,-1.8745,-2.0073,-2.1139,-2.1705,-2.259,-2.3388,-2.3925,-2.4295,-2.45,-2.45,-2.45,-2.45,-2.45,-2.461,-2.4746,-2.4823,-2.5037,-2.5214,-2.5331,-2.536,-2.5378,-2.5404,-2.5378,-2.5369,-2.5406,-2.5406,-2.5388,-2.536,-2.5361,-2.5341,-2.5293,-2.5292,-2.5261,-2.5195,-2.5125,-2.5032,-2.4934,-2.4851,-2.4764,-2.467,-2.4676,-2.461,-2.4526,-2.4284,-2.4136,-2.4023,0.0,0.0,0.0,0.0,0.0,0.0,0.0,0.0,0.0,0.0,0.0,0.0,0.0,0.0,0.0,0.0,0.0,0.0,-0.7682,-0.7905,-0.8041,-0.8043,-0.9288,-1.0267,-1.0926,-1.2765,-1.4927,-1.7441,-1.8826,-1.9409,-1.9154,-1.7238,-1.5291,-1.3295,-1.1789,-1.028,-0.8891,-0.8891,-0.8891,-0.8891,-0.8891,-0.8756,0.0,0.0,0.0,0.0,0.0,0.0,0.0,0.0,-0.7019,-0.7484,-0.7701,-0.8126,-0.8603,-0.8829,-0.8908,-0.8981,-0.9259,-0.9772,-1.066,-1.2411,-1.3313,-1.4094,-1.5203,-1.5538,-1.5932,-1.6998,-1.8171,-1.9403,-2.0733,-2.1631,-2.2419,-2.3077,-2.3425,-2.3814,-2.4425,-2.45,-2.45,-2.45,-2.45,-2.45,-2.45,-2.4626,-2.4741,-2.4818,-2.5061,-2.5234,-2.533,-2.5387,-2.5404,-2.5429,-2.5404,-2.5415,-2.5432,-2.5404,-2.5404,-2.5395,-2.5406,-2.5379,-2.5322,-2.5312,-2.5302,-2.5301,-2.5228,-2.5203,-2.518,-2.5076,-2.498,-2.4912,-2.4783,-2.4723,-2.4676,-2.4476,-2.4337,-2.4229,0.0,0.0,0.0,0.0,0.0,0.0,0.0,0.0,0.0,0.0,0.0,0.0,0.0,0.0,0.0,0.0,0.0,0.0,-0.6988,-0.7567,-0.7899,-0.7899,-0.9172,-1.0174,-1.0768,-1.217,-1.4056,-1.6389,-1.774,-1.8535,-1.8747,-1.6585,-1.4763,-1.3244,-1.176,-1.028,-0.8891,-0.8891,-0.8891,-0.8891,-0.8891,-0.8451,-0.7713,0.0,0.0,0.0,0.0,0.0,0.0,0.0,-0.6639,-0.6807,-0.7474,-0.7738,-0.795,-0.8689,-0.8948,-0.9179,-1.0054,-1.0197,-1.074,-1.336,-1.3931,-1.4745,-1.821,-1.9017,-1.9066,-1.9368,-2.0491,-2.1534,-2.1953,-2.2337,-2.2738,-2.3137,-2.3927,-2.45,-2.45,-2.45,-2.45,-2.45,-2.45,-2.45,-2.45,-2.4626,-2.4771,-2.4885,-2.5084,-2.5254,-2.5393,-2.5404,-2.5432,-2.5511,-2.5432,-2.5432,-2.5511,-2.5429,-2.5401,-2.5401,-2.5401,-2.5395,-2.5398,-2.5322,-2.5293,-2.5311,-2.5222,-2.5209,-2.5191,-2.5125,-2.5057,-2.498,-2.4851,-2.4749,-2.4692,-2.4631,-2.4445,-2.421,0.0,0.0,0.0,0.0,0.0,0.0,0.0,0.0,0.0,0.0,0.0,0.0,0.0,0.0,0.0,0.0,0.0,0.0,-0.6938,-0.7581,-0.7957,-0.7898,-0.8725,-0.9278,-0.9458,-1.1621,-1.4072,-1.6757,-1.7801,-1.8236,-1.7983,-1.6349,-1.453,-1.2553,-1.1553,-1.028,-0.8891,-0.8891,-0.8891,-0.8891,-0.8891,-0.8451,-0.7713,0.0,0.0,0.0,0.0,0.0,0.0,0.0,0.0,0.0,-0.6723,-0.733,-0.795,-0.8689,-0.8914,-0.91,-0.9884,-1.0644,-1.1776,-1.4056,-1.5226,-1.6562,-1.9352,-1.9396,-1.9433,-2.1387,-2.2136,-2.2722,-2.3596,-2.3856,-2.3988,-2.4094,-2.4332,-2.45,-2.45,-2.45,-2.45,-2.45,-2.45,-2.45,-2.45,-2.467,-2.4823,-2.4962,-2.5163,-2.5312,-2.5401,-2.5448,-2.5448,-2.5429,-2.5448,-2.5476,-2.5511,-2.5484,-2.5464,-2.5464,-2.5429,-2.5404,-2.5397,-2.537,-2.538,-2.537,-2.536,-2.5331,-2.5341,-2.5274,-2.5173,-2.5072,-2.5025,-2.4972,-2.4875,-2.4723,-2.4629,-2.4512,0.0,0.0,0.0,0.0,0.0,0.0,0.0,0.0,0.0,0.0,-0.5739,-0.5799,0.0,0.0,0.0,0.0,0.0,0.0,-0.6482,-0.7176,-0.7671,-0.7883,-0.8529,-0.9025,-0.928,-1.1199,-1.305,-1.4831,-1.6433,-1.7092,-1.6833,-1.539,-1.3853,-1.2246,-1.1147,-0.9996,-0.8891,-0.8891,-0.8891,-0.8874,-0.8586,-0.8017,-0.729,0.0,0.0,0.0,0.0,0.0,0.0,0.0,0.0,0.0,-0.6294,-0.6942,-0.7578,-0.8653,-0.8974,-0.9234,-1.0424,-1.1453,-1.274,-1.511,-1.6691,-1.8346,-2.0785,-2.0932,-2.1095,-2.307,-2.3437,-2.364,-2.4372,-2.4429,-2.4411,-2.4482,-2.45,-2.45,-2.45,-2.4534,-2.4532,-2.4532,-2.4566,-2.4582,-2.4582,-2.476,-2.4923,-2.5043,-2.5205,-2.5339,-2.5429,-2.5484,-2.5484,-2.5429,-2.5484,-2.5511,-2.5511,-2.5511,-2.5511,-2.5511,-2.5456,-2.5448,-2.5432,-2.5416,-2.5416,-2.5451,-2.5445,-2.541,-2.5359,-2.5321,-2.5245,-2.5175,-2.5157,-2.5069,-2.4991,-2.4808,-2.4704,-2.4629,0.0,0.0,0.0,0.0,0.0,0.0,0.0,0.0,0.0,-0.4803,-0.5346,-0.5486,0.0,0.0,0.0,-0.395,-0.4518,-0.5162,-0.5769,-0.6496,-0.7167,-0.7779,-0.8454,-0.9131,-0.9793,-1.0745,-1.1339,-1.1593,-1.4126,-1.5358,-1.5274,-1.3938,-1.2871,-1.2026,-1.0626,-0.9591,-0.8891,-0.8891,-0.8891,-0.8824,-0.8095,-0.7349,-0.6622,-0.5877,0.0,0.0,0.0,0.0,0.0,0.0,0.0,0.0,-0.6075,-0.6588,-0.6994,-0.8541,-0.904,-0.9491,-1.1352,-1.2382,-1.3566,-1.6219,-1.8181,-2.0051,-2.2319,-2.3086,-2.3537,-2.4298,-2.4339,-2.4284,-2.4482,-2.4339,-2.4284,-2.4482,-2.45,-2.45,-2.45,-2.4549,-2.4599,-2.4599,-2.466,-2.4707,-2.4707,-2.487,-2.5,-2.5091,-2.5215,-2.5359,-2.5476,-2.5484,-2.5511,-2.5484,-2.5511,-2.5511,-2.5511,-2.5511,-2.5511,-2.5511,-2.5511,-2.5511,-2.5503,-2.5425,-2.5451,-2.551,-2.5518,-2.5444,-2.5346,-2.5337,-2.532,-2.5311,-2.5244,-2.5145,-2.5006,-2.4869,-2.4727,-2.4596,0.0,0.0,0.0,0.0,0.0,0.0,0.0,0.0,-0.4122,-0.4122,-0.4234,-0.4278,-0.4137,-0.4122,0.0,-0.3906,-0.4518,-0.4952,-0.5102,-0.6239,-0.6972,-0.7107,-0.7763,-0.8455,-0.9182,-0.9609,-1.0113,-1.0686,-1.2719,-1.3462,-1.3007,-1.2686,-1.1806,-1.0474,-1.0153,-0.9591,-0.8891,-0.8891,-0.8891,-0.8824,-0.8095,-0.7349,-0.6622,-0.5877,-0.5148,0.0,0.0,0.0,0.0,0.0,0.0,0.0,-0.5472,-0.6176,-0.6892,-0.7798,-0.8555,-0.945,-1.1065,-1.2276,-1.3654,-1.6133,-1.9084,-2.1713,-2.2841,-2.3687,-2.4189,-2.4118,-2.4284,-2.4446,-2.45,-2.4446,-2.4446,-2.45,-2.45,-2.45,-2.45,-2.4549,-2.4599,-2.4599,-2.466,-2.4707,-2.4707,-2.4798,-2.4879,-2.5,-2.5157,-2.5264,-2.5341,-2.5432,-2.5484,-2.5429,-2.5464,-2.5511,-2.5511,-2.5511,-2.5511,-2.5511,-2.5511,-2.5511,-2.5511,-2.5423,-2.5445,-2.5505,-2.5571,-2.558,-2.5601,-2.5561,-2.5473,-2.5379,-2.5354,-2.5284,-2.5145,-2.5013,-2.4874,-2.4741,0.0,0.0,0.0,0.0,0.0,0.0,0.0,0.0,-0.4256,-0.3935,-0.3906,-0.3906,-0.3906,-0.3906,0.0,0.0,-0.4226,-0.4563,-0.4886,-0.5551,-0.6224,-0.6882,-0.7552,-0.8092,-0.85,-0.8693,-0.8981,-0.9385,-1.0454,-1.1177,-1.1615,-1.1338,-1.0761,-0.9984,-0.9641,-0.9264,-0.8891,-0.8891,-0.8891,-0.8824,-0.8095,-0.7578,-0.7146,-0.6411,-0.5666,-0.503,-0.503,0.0,0.0,0.0,0.0,0.0,0.0,0.0,-0.685,-0.7661,-0.8475,-0.946,-1.117,-1.234,-1.3986,-1.7658,-2.0255,-2.2214,-2.345,-2.4096,-2.4393,-2.4229,-2.4375,-2.45,-2.45,-2.45,-2.45,-2.45,-2.45,-2.45,-2.45,-2.4582,-2.4645,-2.4645,-2.4753,-2.4846,-2.4846,-2.4875,-2.4945,-2.5032,-2.5145,-2.5224,-2.5303,-2.5432,-2.5484,-2.5456,-2.5484,-2.5511,-2.5511,-2.5511,-2.5511,-2.5511,-2.5511,-2.5484,-2.5456,-2.549,-2.5499,-2.5512,-2.5604,-2.5655,-2.5655,-2.5601,-2.5556,-2.5502,-2.5506,-2.5403,-2.5272,-2.5186,-2.5057,-2.4917,0.0,0.0,0.0,0.0,0.0,0.0,0.0,0.0,0.0,-0.3965,-0.3906,-0.3906,-0.3906,-0.3906,-0.3906,0.0,0.0,0.0,-0.4683,-0.4833,-0.5446,-0.6676,-0.7266,-0.7594,-0.7652,-0.7841,-0.798,-0.8093,-0.8357,-0.9176,-1.0482,-1.0034,-0.9798,-0.9794,-0.9179,-0.8891,-0.8891,-0.8891,-0.8891,-0.8824,-0.8095,-0.7798,-0.7713,-0.6977,-0.6318,-0.5792,-0.5792,-0.5318,-0.4685,-0.4685,0.0,0.0,0.0,0.0,-0.6681,-0.7536,-0.8316,-0.9299,-1.1133,-1.2557,-1.463,-1.9246,-2.1099,-2.2202,-2.3767,-2.4265,-2.4412,-2.4412,-2.4465,-2.45,-2.45,-2.45,-2.45,-2.45,-2.45,-2.45,-2.4517,-2.4613,-2.4707,-2.4723,-2.4875,-2.501,-2.501,-2.501,-2.5018,-2.5076,-2.5157,-2.5224,-2.5274,-2.5412,-2.5511,-2.5511,-2.5499,-2.5499,-2.5499,-2.5499,-2.5499,-2.5499,-2.5492,-2.5464,-2.541,-2.5549,-2.5574,-2.5524,-2.5648,-2.5668,-2.5621,-2.5625,-2.5605,-2.5601,-2.5605,-2.5529,-2.5421,-2.5337,-2.5244,-2.5116,0.0,0.0,0.0,0.0,0.0,0.0,0.0,0.0,0.0,0.0,-0.3906,-0.3906,-0.3906,-0.3906,-0.3906,-0.3906,-0.3906,-0.3935,-0.4032,0.0,0.0,-0.5993,-0.6168,-0.6262,-0.6262,-0.6902,-0.7243,-0.7252,-0.8096,-0.8607,-0.8824,-0.8973,-0.9044,-0.9044,-0.8942,-0.8891,-0.8891,-0.8891,-0.8891,-0.8824,-0.8095,-0.7798,-0.7713,-0.6977,-0.6639,-0.6555,-0.6555,-0.6072,-0.546,-0.546,-0.503,0.0,0.0,0.0,-0.5901,-0.6647,-0.7475,-0.8492,-1.0072,-1.2789,-1.5868,-1.8838,-2.0691,-2.2072,-2.3098,-2.3893,-2.4412,-2.4482,-2.45,-2.45,-2.45,-2.45,-2.45,-2.45,-2.45,-2.4534,-2.4582,-2.4645,-2.4723,-2.4779,-2.4903,-2.501,-2.501,-2.501,-2.501,-2.5004,-2.5141,-2.5192,-2.5214,-2.5406,-2.5511,-2.5511,-2.551,-2.5505,-2.5505,-2.5505,-2.5505,-2.5505,-2.5507,-2.5511,-2.5492,-2.5579,-2.5605,-2.5593,-2.5671,-2.5689,-2.5681,-2.5696,-2.5648,-2.559,-2.5609,-2.5581,-2.5568,-2.5427,-2.5343,-2.5255,0.0,0.0,0.0,0.0,0.0,0.0,0.0,0.0,0.0,0.0,0.0,-0.3906,-0.3906,-0.3906,-0.3906,-0.3906,-0.3906,-0.3906,-0.3906,-0.4533,-0.5051,-0.5391,-0.5782,-0.6,-0.6006,-0.6365,-0.6722,-0.7104,-0.7659,-0.8132,-0.851,-0.8806,-0.8964,-0.8964,-0.8959,-0.8959,-0.8964,-0.8959,-0.8942,-0.8868,-0.863,-0.8524,-0.8499,-0.8248,-0.7892,-0.7534,-0.7458,-0.6951,-0.6314,-0.6231,-0.5717,-0.5115,-0.5115,0.0,0.0,0.0,-0.7259,-0.8251,-0.9953,-1.2633,-1.5433,-1.7486,-1.921,-2.088,-2.2681,-2.3398,-2.3803,-2.4283,-2.4465,-2.45,-2.45,-2.45,-2.45,-2.45,-2.45,-2.4517,-2.4532,-2.4629,-2.4723,-2.4753,-2.4908,-2.501,-2.501,-2.501,-2.501,-2.501,-2.5111,-2.5192,-2.5192,-2.5397,-2.5511,-2.5511,-2.549,-2.5505,-2.5503,-2.5505,-2.5505,-2.5503,-2.5499,-2.5511,-2.5492,-2.5571,-2.5604,-2.5591,-2.5664,-2.5696,-2.5691,-2.5709,-2.5683,-2.5654,-2.5665,-2.5655,-2.5644,-2.558,-2.5526,-2.5454,0.0,0.0,0.0,0.0,0.0,0.0,0.0,0.0,0.0,0.0,0.0,-0.3906,-0.3906,0.0,0.0,0.0,-0.3906,-0.3906,-0.3906,-0.4361,-0.4685,-0.4741,-0.5218,-0.5495,-0.5493,-0.5727,-0.6095,-0.6594,-0.72,-0.7775,-0.8286,-0.8773,-0.8998,-0.8998,-0.9009,-0.8998,-0.9004,-0.9009,-0.8974,-0.8968,-0.9085,-0.9129,-0.9169,-0.9266,-0.8949,-0.8467,-0.8374,-0.7848,-0.7217,-0.7105,-0.6589,-0.5939,-0.5736,-0.5664,0.0,0.0,0.0,-0.8187,-0.9799,-1.1971,-1.4162,-1.5874,-1.7642,-1.9512,-2.1619,-2.2425,-2.301,-2.3841,-2.4078,-2.4222,-2.4445,-2.4482,-2.45,-2.45,-2.45,-2.45,-2.4534,-2.4615,-2.4692,-2.4723,-2.4861,-2.4964,-2.4996,-2.5023,-2.5018,-2.5018,-2.5145,-2.5224,-2.5224,-2.5406,-2.5511,-2.5511,-2.5524,-2.5531,-2.5507,-2.5498,-2.5498,-2.5511,-2.5511,-2.5511,-2.5492,-2.554,-2.558,-2.5576,-2.5668,-2.5699,-2.5696,-2.5694,-2.5691,-2.5709,-2.5703,-2.5698,-2.5698,-2.5693,-2.5658,-2.5593,0.0,0.0,0.0,0.0,0.0,0.0,0.0,0.0,0.0,0.0,0.0,-0.3906,-0.3906,-0.3906,-0.3906,-0.3906,-0.3906,-0.3906,-0.3906,-0.3935,-0.398,-0.4054,-0.4083,0.0,-0.4105,-0.4801,-0.5165,-0.5215,-0.6748,-0.7546,-0.7664,-0.8563,-0.9001,-0.9001,-0.8996,-0.8992,-0.8992,-0.9002,-0.9039,-0.9106,-0.9164,-0.9236,-0.9295,-0.9304,-0.9278,-0.9242,-0.9233,-0.8761,-0.8126,-0.813,-0.7637,-0.6891,-0.6126,-0.5841,-0.5793,0.0,0.0,0.0,-0.9251,-1.0627,-1.221,-1.4137,-1.6373,-1.8334,-1.9353,-2.0765,-2.211,-2.2973,-2.3209,-2.3503,-2.4264,-2.4465,-2.45,-2.45,-2.45,-2.4534,-2.4582,-2.4599,-2.4645,-2.4779,-2.4794,-2.4856,-2.4996,-2.507,-2.5101,-2.5101,-2.5214,-2.5293,-2.5293,-2.5432,-2.5511,-2.5511,-2.5564,-2.5564,-2.5492,-2.5492,-2.5498,-2.5511,-2.5511,-2.5511,-2.5492,-2.5493,-2.5504,-2.5515,-2.5646,-2.5702,-2.5699,-2.5696,-2.5693,-2.5693,-2.5703,-2.5698,-2.5698,-2.5693,-2.5658,-2.5598,0.0,0.0,0.0,0.0,0.0,0.0,0.0,0.0,0.0,0.0,0.0,0.0,0.0,-0.3906,-0.3906,-0.3906,-0.3906,-0.3876,-0.3833,-0.3913,-0.3979,-0.3992,-0.4006,-0.402,-0.4065,-0.4324,-0.4664,-0.5106,-0.5813,-0.6655,-0.7615,-0.8082,-0.8538,-0.9011,-0.9039,-0.9028,-0.9007,-0.9039,-0.9056,-0.905,-0.9245,-0.934,-0.943,-1.0076,-1.0355,-1.0456,-1.0876,-1.0503,-0.9798,-0.9708,-0.8841,-0.7751,-0.7469,-0.6678,-0.5859,-0.5817,-0.6893,-0.8178,-0.8512,-0.9816,-1.1372,-1.2534,-1.4313,-1.6253,-1.8129,-1.9442,-2.0784,-2.2643,-2.3118,-2.3447,-2.4264,-2.4447,-2.45,-2.45,-2.45,-2.4517,-2.4515,-2.4566,-2.4629,-2.4719,-2.4764,-2.4856,-2.4996,-2.5018,-2.5038,-2.5101,-2.5171,-2.5245,-2.5293,-2.544,-2.5499,-2.549,-2.5577,-2.5595,-2.5564,-2.5525,-2.5498,-2.5511,-2.5503,-2.549,-2.5498,-2.5549,-2.5561,-2.5561,-2.567,-2.5698,-2.5709,-2.5696,-2.5697,-2.5693,-2.5707,-2.5705,-2.5705,-2.5703,-2.5679,-2.5651,0.0,0.0,0.0,0.0,0.0,0.0,0.0,0.0,-0.4441,-0.4559,0.0,0.0,0.0,0.0,-0.4329,-0.4145,-0.3972,-0.3847,-0.3803,-0.3906,-0.3986,-0.3991,-0.3998,-0.4035,-0.4094,-0.4098,-0.4328,-0.4797,-0.5227,-0.5954,-0.6937,-0.7345,-0.7785,-0.8266,-0.8571,-0.8829,-0.9033,-0.9071,-0.9092,-0.9123,-0.9331,-0.9609,-0.9987,-1.0668,-1.1317,-1.1891,-1.2316,-1.2094,-1.1544,-1.1194,-1.0204,-0.901,-0.8481,-0.7211,-0.5926,-0.5882,-0.6602,-0.7487,-0.7756,-0.8858,-1.0194,-1.1287,-1.2613,-1.4238,-1.6421,-1.7785,-1.9195,-2.1353,-2.2101,-2.2613,-2.3413,-2.3835,-2.4148,-2.4444,-2.45,-2.45,-2.45,-2.4549,-2.4613,-2.4692,-2.4768,-2.4856,-2.4996,-2.5018,-2.5051,-2.513,-2.5201,0.0,-2.5367,-2.5448,-2.5515,-2.5531,-2.557,-2.5601,-2.5601,-2.5564,-2.5511,-2.5495,-2.5511,-2.5531,-2.5531,-2.5574,-2.56,-2.56,-2.5654,-2.5664,-2.5679,-2.5697,-2.5698,-2.5709,-2.5691,-2.5693,-2.5693,-2.5693,-2.5693,-2.5691,0.0,0.0,0.0,0.0,0.0,0.0,0.0,0.0,-0.5526,-0.5848,0.0,0.0,0.0,0.0,0.0,-0.4639,-0.4123,-0.3816,-0.3796,-0.3855,-0.3934,-0.3991,-0.3998,-0.4042,-0.4101,-0.4104,-0.4149,-0.4201,-0.5059,-0.5517,-0.562,-0.64,-0.6785,-0.6837,-0.7553,-0.8322,-0.9075,-0.9092,-0.9184,-0.9312,-0.9403,-1.0049,-1.0955,-1.1076,-1.2148,-1.3579,-1.3531,-1.3502,-1.3354,-1.2558,-1.1697,-1.069,-0.9054,-0.7414,-0.6065,-0.602,-0.5965,-0.6146,0.0,0.0,0.0,-1.0426,-1.1425,-1.2412,-1.414,-1.5766,-1.7383,-1.8988,-2.003,-2.0911,-2.1729,-2.2576,-2.3425,-2.4295,-2.4462,-2.45,-2.45,-2.4549,-2.4613,-2.4692,-2.4768,-2.4842,-2.4996,-2.507,-2.513,-2.5182,-2.5255,-2.5367,-2.5484,-2.5492,-2.5529,-2.5601,-2.5601,-2.5601,-2.5601,-2.5601,-2.557,-2.5499,-2.557,-2.5601,-2.5601,-2.5601,-2.5601,-2.5607,-2.56,-2.5593,-2.5612,-2.5679,-2.5697,-2.5703,-2.5697,-2.57,-2.57,-2.57,-2.57,-2.5699,0.0,0.0,0.0,0.0,0.0,-0.5126,-0.5161,-0.5298,-0.5443,0.0,0.0,0.0,-0.5479,-0.5443,-0.5161,-0.4579,-0.443,-0.4213,-0.383,-0.3862,-0.3934,-0.3991,-0.4048,-0.4096,-0.4174,-0.4214,-0.4277,-0.4338,-0.4628,-0.5055,-0.5603,-0.5874,-0.6323,-0.6884,-0.7084,-0.7622,-0.8407,-0.8952,-0.9222,-0.9357,-1.006,-1.0949,-1.1974,-1.3262,-1.4429,-1.5451,-1.6022,-1.5812,-1.5154,-1.4354,-1.3467,-1.2327,-1.0072,-0.8643,-0.7584,-0.642,-0.6465,-0.6956,-0.7105,0.0,0.0,0.0,0.0,0.0,-1.2557,-1.4069,-1.571,-1.7328,-1.8809,-2.0078,-2.0877,-2.1742,-2.2404,-2.2662,-2.3702,-2.45,-2.45,-2.4517,-2.4566,-2.4692,-2.4723,-2.4798,-2.4977,-2.5023,-2.5076,0.0,-2.5214,-2.5303,-2.5484,-2.5543,-2.5576,-2.5595,-2.5595,-2.5595,-2.5595,-2.5595,-2.5579,-2.557,-2.5585,-2.5595,-2.5595,-2.5595,-2.5625,-2.5663,-2.5671,-2.5632,-2.5617,-2.5672,-2.5701,-2.5702,-2.5702,-2.5701,-2.57,-2.57,-2.57,-2.57,0.0,0.0,-0.4302,-0.4302,-0.5015,-0.5621,-0.57,-0.5889,-0.6092,0.0,0.0,0.0,-0.6106,-0.5993,-0.5764,-0.54,-0.5196,-0.4862,-0.4294,-0.433,-0.4273,-0.4058,-0.4111,-0.4165,-0.4198,-0.4265,-0.4338,-0.4397,-0.446,-0.472,-0.5143,-0.5185,-0.5451,-0.5921,-0.6247,-0.6869,-0.7697,-0.8462,-0.9001,-0.9412,-1.0358,-1.1323,-1.239,-1.4167,-1.5789,-1.7219,-1.8046,-1.8001,-1.7431,-1.6643,-1.486,-1.2622,-1.0848,-0.9453,-0.8316,-0.7374,-0.7189,-0.7363,-0.7617,-0.8076,-0.8691,-0.9478,0.0,0.0,-1.1467,-1.2669,-1.3972,-1.5277,-1.6873,-1.8174,-1.8628,-1.9745,-2.0681,-2.0953,-2.2178,-2.3291,-2.3886,-2.4013,-2.4209,-2.4654,-2.4704,-2.4798,-2.4977,-2.501,-2.5051,-2.5201,-2.5192,-2.5293,-2.5488,-2.5551,-2.5607,-2.5609,-2.563,-2.5634,-2.559,-2.563,-2.563,-2.5604,-2.563,-2.5643,-2.5643,-2.5648,-2.5656,-2.5707,-2.5704,-2.5673,-2.564,-2.568,-2.5683,-2.5662,-2.5683,-2.5702,-2.5701,-2.5701,-2.5702,-2.5703,0.0,0.0,-0.443,-0.4517,-0.5411,-0.6191,-0.6393,-0.6722,-0.7107,0.0,-0.7219,-0.6993,-0.7123,-0.6855,-0.6656,-0.6597,-0.6176,-0.5648,-0.5066,-0.5003,-0.4766,-0.4232,-0.4199,-0.4204,-0.4211,-0.4283,-0.4346,-0.442,-0.4476,-0.4509,-0.4496,-0.4496,-0.4501,-0.4541,-0.5267,-0.6102,-0.7052,-0.7769,-0.8667,-0.9654,-1.0575,-1.157,-1.2695,-1.4485,-1.6703,-1.8892,-1.9675,-1.9957,-1.9863,-1.9012,-1.6006,-1.2453,-1.1625,-1.0189,-0.8742,-0.8569,-0.8008,-0.7607,-0.8323,-0.8502,-0.8718,-0.9576,-0.9805,0.0,-1.0692,-1.149,-1.2288,-1.3049,-1.4569,-1.5702,-1.5633,-1.709,-1.8497,-1.9085,-2.0039,-2.1236,-2.2858,-2.3204,-2.3577,-2.4347,-2.4501,-2.4625,-2.4839,-2.4872,-2.4962,-2.5192,-2.5224,-2.5312,-2.5492,-2.557,-2.5607,-2.5613,-2.5678,-2.5678,-2.5613,-2.5678,-2.5671,-2.5615,-2.5671,-2.5699,-2.5699,-2.5691,-2.5694,-2.5694,-2.571,-2.5694,-2.5703,-2.5682,-2.5644,-2.5603,-2.5676,-2.5698,-2.571,-2.571,-2.5698,-2.5705,-0.4032,-0.4611,-0.521,-0.5807,-0.6456,-0.6947,-0.7148,-0.7259,-0.7329,-0.7422,-0.736,-0.7314,-0.7345,-0.7279,-0.707,-0.6638,-0.6504,-0.6258,-0.5817,-0.5284,-0.4963,-0.4901,-0.4449,-0.4224,-0.4277,-0.4397,-0.4476,-0.4475,-0.4485,-0.449,-0.4496,-0.4496,-0.4534,-0.4582,-0.4744,-0.5652,-0.7097,-0.7247,-0.8614,-1.0766,-1.1586,-1.2899,-1.4568,-1.6272,-1.8472,-2.0698,-2.0868,-2.1324,-2.1645,-2.0088,-1.7259,-1.4235,-1.3378,-1.1955,-1.0325,-0.8966,-0.8464,-0.8388,-0.8545,-0.8576,-0.878,-0.9597,-0.9801,0.0,-1.0005,-1.0655,-1.1286,-1.1453,-1.2807,-1.397,-1.3969,-1.532,-1.6496,-1.6676,-1.7465,-1.9056,-2.1971,-2.2459,-2.2599,-2.2816,-2.2868,-2.3183,-2.3972,-2.4079,-2.4434,-2.5226,-2.5382,-2.5478,-2.5589,-2.5585,-2.563,-2.5687,-2.5695,-2.5695,-2.5687,-2.5695,-2.5695,-2.5675,-2.5683,-2.571,-2.5691,-2.5701,-2.5707,-2.5707,-2.5691,-2.5699,-2.5702,-2.5637,-2.5605,-2.5598,-2.5606,-2.5645,-2.571,-2.571,-2.569,-2.5696,-0.4175,-0.4839,-0.551,-0.6174,-0.682,-0.7282,-0.7392,-0.7392,-0.7422,-0.7484,-0.7589,-0.7736,-0.7974,-0.7793,-0.768,-0.7797,-0.7528,-0.7118,-0.6588,-0.6236,-0.5767,-0.5127,-0.4843,-0.4571,-0.4302,-0.4431,-0.4488,-0.4442,-0.4518,-0.4544,-0.4544,-0.4544,-0.4585,-0.4665,-0.5075,-0.5945,-0.7172,-0.7616,-0.9028,-1.1063,-1.1913,-1.3305,-1.513,-1.7235,-1.9366,-2.132,-2.2154,-2.271,-2.271,-2.057,-1.8467,-1.645,-1.4783,-1.3075,-1.1442,-1.0217,-0.9538,-0.9202,-0.9201,-0.9195,-0.93,-0.9689,-0.9801,0.0,0.0,-1.0116,-1.0395,-1.0395,-1.1418,-1.2292,-1.226,-1.3307,-1.4326,-1.4688,-1.5207,-1.6253,-1.829,-1.9661,-2.0795,-2.1699,-2.1791,-2.2159,-2.3114,-2.3273,-2.3679,-2.4629,-2.4795,-2.5059,-2.5582,-2.559,-2.5615,-2.5643,-2.5675,-2.5675,-2.5643,-2.5675,-2.5703,-2.5707,-2.5691,-2.5694,-2.5701,-2.569,-2.5703,-2.5693,-2.5662,-2.5643,-2.565,-2.5606,-2.5574,-2.5561,-2.5585,-2.5628,-2.5658,-2.5658,-2.5639,-2.5648,-0.4307,-0.4953,-0.5589,-0.6324,-0.6978,-0.7392,-0.7392,-0.7422,-0.7527,-0.7764,-0.8079,-0.8453,-0.888,-0.8605,-0.8636,-0.9297,-0.8784,-0.8174,-0.7612,-0.7316,-0.6676,-0.555,-0.5325,-0.4998,-0.4502,-0.4492,-0.446,-0.4426,-0.4523,-0.4587,-0.4592,-0.4592,-0.4717,-0.4953,-0.5627,-0.6493,-0.7513,-0.8378,-0.9727,-1.1363,-1.24,-1.3741,-1.5421,-1.7984,-1.9982,-2.168,-2.3348,-2.384,-2.3386,-2.1329,-1.9847,-1.8474,-1.6309,-1.4323,-1.2643,-1.1809,-1.0855,-1.0055,-1.0038,-0.9919,-0.9796,-0.9808,-0.9808,-0.9796,0.0,0.0,0.0,-0.9801,-1.0366,-1.0824,-1.0781,-1.1561,-1.2345,-1.275,-1.321,0.0,0.0,-1.6054,0.0,-2.0007,-2.0401,0.0,-2.1809,-2.2268,-2.2899,-2.3799,-2.4094,-2.4548,-2.531,-2.5517,-2.5615,-2.5615,-2.5671,-2.5671,-2.5615,-2.5671,-2.5707,-2.5694,-2.5697,-2.5704,-2.5693,-2.5698,-2.5693,-2.5702,-2.5624,-2.5607,-2.5593,-2.5586,-2.5543,-2.5499,-2.5554,-2.5568,-2.5577,-2.5577,-2.5583,-2.557,-0.4778,-0.5123,-0.5608,-0.6794,-0.7225,-0.7392,-0.7392,-0.7499,-0.7793,-0.842,-0.9178,-0.9775,-1.0091,-1.0111,-1.024,-1.0569,-0.999,-0.9506,-0.9231,-0.8121,-0.7313,-0.6968,-0.5883,-0.5263,-0.519,-0.4677,-0.4443,-0.4485,-0.4501,-0.4544,-0.4592,-0.4592,-0.5015,-0.5772,-0.5929,-0.6872,-0.8403,-0.9288,-1.0646,-1.2372,-1.3977,-1.5188,-1.6337,-1.8884,-2.0884,-2.2571,-2.4238,-2.4352,-2.3651,-2.3367,-2.1689,-1.9575,-1.8588,-1.6574,-1.4427,-1.3576,-1.2196,-1.0939,-1.0882,-1.035,-0.9811,-0.9796,-0.9791,-0.9811,-0.9789,0.0,-0.9801,-0.9801,0.0,-0.9945,-0.9938,0.0,0.0,0.0,0.0,-1.2338,-1.1711,-1.2528,-1.408,-1.6485,-1.7546,0.0,0.0,-2.0829,-2.2159,-2.297,-2.3817,-2.434,-2.4441,-2.5245,-2.5695,-2.5695,-2.5699,-2.5699,-2.5695,-2.5707,-2.5691,-2.5694,-2.571,-2.5698,-2.5698,-2.5709,-2.5693,-2.5697,-2.5636,-2.5595,-2.5603,-2.5535,-2.5506,-2.5499,-2.5506,-2.5506,-2.5518,-2.5518,-2.5518,-2.5499,-0.4541,-0.5067,-0.5716,-0.6602,-0.7271,-0.7694,-0.7694,-0.8078,-0.8464,-0.8795,-0.9821,-1.0731,-1.1231,-1.1304,-1.1474,-1.1818,-1.1238,-1.0684,-1.0277,-0.9281,-0.8468,-0.791,-0.698,-0.6316,-0.6012,-0.5367,-0.4838,-0.4443,-0.4513,-0.457,-0.4599,-0.4641,-0.5127,-0.5986,-0.6515,-0.7422,-0.8655,-0.9994,-1.1554,-1.3293,-1.4979,-1.6763,-1.8571,-2.0115,-2.2059,-2.403,-2.4763,-2.475,-2.4384,-2.3923,-2.3,-2.1758,-2.0042,-1.8381,-1.6799,-1.5498,-1.3931,-1.2587,-1.2526,-1.1543,-1.0563,-1.0589,-1.0226,-0.9863,-0.985,-0.9831,-0.9798,-0.9798,0.0,0.0,0.0,0.0,0.0,0.0,-1.0456,-1.0821,0.0,0.0,-1.2503,0.0,0.0,0.0,0.0,0.0,0.0,0.0,-2.2323,-2.3261,-2.4243,-2.4709,-2.5173,-2.5679,-2.5699,-2.5703,-2.5707,-2.5691,-2.5697,-2.571,-2.5701,-2.5672,-2.5642,-2.5683,-2.5683,-2.564,-2.5577,-2.5541,-2.5532,-2.5473,-2.5434,-2.5445,-2.5445,-2.548,-2.5495,-2.5468,-2.5434,-2.5445,-0.4094,-0.486,-0.574,-0.6364,-0.7228,-0.7827,-0.7827,-0.8557,-0.9127,-0.9192,-1.0572,-1.179,-1.2353,-1.2692,-1.3034,-1.3388,-1.2917,-1.2306,-1.1635,-1.0868,-0.9935,-0.8886,-0.814,-0.7459,-0.687,-0.6178,-0.5467,-0.4733,-0.4823,-0.4774,-0.4604,-0.4878,-0.5481,-0.6369,-0.7239,-0.824,-0.9394,-1.1098,-1.267,-1.423,-1.6356,-1.8751,-2.1104,-2.1692,-2.319,-2.5004,-2.5004,-2.5004,-2.4942,-2.4328,-2.3916,0.0,-2.1643,-2.0129,-1.8736,-1.7558,-1.5864,-1.4317,-1.4028,-1.2923,-1.1729,-1.1314,-1.0746,-1.0224,-0.9954,-0.9887,-0.9863,-0.9857,-0.9393,0.0,0.0,0.0,0.0,0.0,0.0,-0.9369,0.0,-0.9787,0.0,0.0,0.0,0.0,0.0,0.0,0.0,0.0,0.0,-2.2181,-2.3845,-2.4222,-2.4803,-2.5679,-2.5703,-2.5707,-2.5691,-2.5701,-2.569,-2.5701,-2.5693,-2.5662,-2.5623,-2.5658,-2.5644,-2.5603,-2.5522,-2.5504,-2.5486,-2.5434,-2.5404,-2.5406,-2.5406,-2.5415,-2.5432,-2.5412,-2.5404,-2.5387,-0.3546,-0.4501,-0.561,-0.6283,-0.7071,-0.762,-0.762,-0.8779,-0.9673,-0.9673,-1.1646,-1.3135,-1.342,-1.4446,-1.5208,-1.5477,-1.5245,-1.4669,-1.3667,-1.2919,-1.1736,-1.0025,-0.9252,-0.8514,-0.7769,-0.7036,-0.63,-0.5569,-0.5569,-0.523,-0.4614,-0.54,-0.6262,-0.7206,-0.807,-0.9407,-1.1124,-1.2873,-1.4093,-1.5156,-1.8457,-2.135,-2.3682,-2.3701,-2.4252,-2.4993,-2.4993,0.0,0.0,-2.4987,-2.4391,0.0,0.0,0.0,-1.9847,-1.9793,-1.8041,-1.594,-1.5098,-1.4304,-1.3315,-1.1623,-1.1226,-1.1013,-1.0111,-0.9944,-1.0005,-0.999,-0.9965,-0.9965,-0.9984,0.0,0.0,0.0,0.0,0.0,0.0,0.0,0.0,0.0,0.0,0.0,0.0,0.0,0.0,0.0,0.0,0.0,-2.2955,-2.3906,-2.4803,-2.5679,-2.5707,-2.5691,-2.5694,-2.5698,-2.5707,-2.5707,-2.5703,-2.57,-2.57,-2.5634,-2.5593,-2.5598,-2.5535,-2.5493,-2.5492,-2.5429,-2.5387,-2.5406,-2.5407,-2.5361,-2.5322,-2.5369,-2.5387,-2.5378,-0.4249,-0.517,-0.6083,-0.5948,-0.6562,-0.7239,-0.7724,-0.8959,-1.0088,-1.0805,-1.2759,-1.4574,-1.5866,-1.6825,-1.7535,-1.7902,-1.7913,-1.7392,-1.6151,-1.5346,-1.4164,-1.2459,-1.1121,-1.0125,-0.9461,-0.8209,-0.7458,-0.7246,-0.6229,-0.5617,-0.54,-0.5723,-0.6323,-0.7166,-0.8083,-0.9463,-1.1225,-1.3017,-1.4901,-1.7025,-2.0921,-2.3004,-2.3859,0.0,-2.4765,-2.5012,-2.5057,-2.507,0.0,-2.5076,-2.4873,-2.4537,-2.4033,-2.3229,-2.2384,-2.1836,-2.0718,-1.9466,0.0,0.0,-1.6039,-1.4288,-1.3422,-1.2801,-1.1954,-1.1292,-1.0851,-1.0865,-0.9972,-0.9376,-0.9896,0.0,0.0,0.0,0.0,0.0,0.0,0.0,0.0,0.0,0.0,0.0,0.0,0.0,0.0,0.0,0.0,0.0,0.0,-2.2746,-2.3949,-2.481,-2.5398,-2.571,-2.5694,-2.566,-2.5625,-2.5621,-2.5627,-2.5603,-2.557,-2.5542,-2.554,-2.5523,-2.5464,-2.543,-2.5432,-2.5404,-2.537,-2.5332,-2.5322,-2.5283,-2.5243,-2.5322,-2.5303,-2.5264,-0.4918,-0.5483,-0.6038,-0.5783,-0.6547,-0.7439,-0.8184,-0.9307,-1.0506,-1.1721,-1.3847,-1.5788,-1.7219,-1.8464,-1.9311,-1.9585,-1.9809,-1.9453,-1.8319,-1.7488,-1.629,-1.4682,-1.3023,-1.1738,-1.0814,-0.9519,-0.8601,-0.8092,-0.6822,-0.6059,-0.5806,-0.6138,-0.658,-0.7147,-0.8383,-0.9884,-1.1644,-1.3455,-1.57,-1.8355,-2.2247,-2.3979,0.0,0.0,-2.5051,-2.5051,0.0,-2.5126,-2.512,-2.5101,-2.512,-2.5056,-2.4538,-2.4148,-2.3766,-2.3252,-2.2518,-2.1713,-2.0912,-1.9735,0.0,-1.6595,-1.5491,0.0,-1.3811,-1.292,-1.2271,-1.2262,-1.0938,-0.9913,-1.0432,0.0,0.0,0.0,0.0,0.0,0.0,-0.7536,0.0,0.0,0.0,0.0,0.0,0.0,0.0,0.0,0.0,0.0,0.0,0.0,-2.3173,-2.4368,-2.4949,-2.5379,-2.5664,-2.5623,-2.5595,-2.5593,-2.5582,-2.5542,-2.5492,-2.5473,-2.5464,-2.5461,-2.5395,-2.5367,-2.5354,-2.5341,-2.5293,-2.5252,-2.5252,-2.5241,-2.5201,-2.5252,-2.5241,-2.5182,-0.5534,-0.5461,-0.557,-0.5854,-0.7008,-0.8154,-0.8894,-0.9826,-1.0987,-1.2501,-1.4891,-1.6786,-1.7585,-1.9396,-2.0604,-2.0639,-2.1008,-2.0894,-2.0162,-1.9338,-1.8181,-1.6647,-1.4975,-1.3394,-1.1902,-1.0952,-0.9721,-0.8224,-0.7381,-0.6579,-0.5883,-0.664,-0.7044,-0.7183,-0.8886,-1.0621,-1.2413,-1.4224,-1.6548,-1.9269,-2.2563,-2.4364,-2.5113,-2.5113,-2.5113,-2.5113,-2.5113,-2.5156,-2.518,-2.5125,-2.5137,-2.5203,-2.5203,-2.4683,-2.4053,-2.4082,-2.3529,-2.275,-2.1946,-2.1183,-2.018,-1.8518,-1.7466,0.0,0.0,0.0,-1.4182,-1.4148,-1.2807,-1.1628,-1.1624,0.0,0.0,0.0,0.0,0.0,0.0,0.0,0.0,0.0,0.0,0.0,0.0,0.0,0.0,0.0,0.0,0.0,0.0,0.0,-2.2539,-2.4274,-2.4386,-2.4785,-2.5586,-2.5607,-2.5603,-2.5586,-2.5535,-2.5493,-2.5493,-2.5437,-2.5397,-2.5389,-2.5313,-2.5283,-2.5282,-2.5212,-2.5171,-2.5171,-2.5171,-2.5179,-2.5176,-2.519,-2.5182,-2.5171,-0.6146,-0.6263,-0.6641,-0.7243,-0.7672,-0.8153,-0.8879,-1.0299,-1.1917,-1.3632,-1.6049,-1.8207,-1.9777,-2.1025,-2.1983,-2.2547,-2.278,-2.2553,-2.175,-2.15,-2.0677,-1.9145,-1.7522,-1.5938,-1.4403,-1.2394,-1.0905,-0.9955,-0.8549,-0.7465,-0.6702,-0.6898,-0.7044,-0.7149,-0.8297,-1.0089,-1.236,-1.4259,-1.7619,-2.1797,-2.3965,-2.4977,-2.518,0.0,-2.518,-2.518,-2.518,-2.518,-2.521,-2.518,-2.5217,-2.5273,-2.5273,-2.5129,-2.4986,-2.502,-2.4888,-2.4571,-2.3799,-2.3485,-2.2968,-2.1227,-2.0624,-2.0076,0.0,0.0,0.0,0.0,0.0,0.0,0.0,0.0,0.0,0.0,0.0,0.0,0.0,0.0,0.0,0.0,0.0,0.0,0.0,0.0,0.0,0.0,0.0,0.0,0.0,0.0,0.0,-2.3377,-2.4062,-2.478,-2.5593,-2.5546,-2.5521,-2.5518,-2.5456,-2.5437,-2.5432,-2.5416,-2.5361,-2.5331,-2.5141,-2.5084,-2.5075,-2.4955,-2.4869,-2.4842,-2.4842,-2.4799,-2.4771,-2.491,-2.4949,-2.4877,-0.6794,-0.7287,-0.7855,-0.8304,-0.8988,-0.9624,-1.0077,-1.1189,-1.2889,-1.5371,-1.736,-1.9181,-2.0947,-2.2112,-2.2944,-2.3348,-2.3471,-2.332,-2.2856,-2.25,-2.1893,-2.1036,-1.9201,-1.764,-1.6435,-1.4098,-1.2324,-1.1157,-0.9565,-0.8337,-0.7522,-0.7562,-0.7587,-0.7673,-0.8596,-1.0212,-1.2472,-1.5839,-1.9335,-2.2753,-2.4503,-2.5191,0.0,-2.5191,-2.5191,-2.5191,-2.5191,-2.5191,-2.5191,-2.5191,-2.5239,-2.5303,-2.5303,-2.535,-2.5387,-2.5432,-2.5486,-2.544,-2.5026,-2.4665,-2.416,-2.3178,-2.2649,-2.2119,-2.1126,-2.0227,-1.9356,0.0,-1.6944,-1.5643,0.0,0.0,0.0,0.0,0.0,0.0,0.0,0.0,0.0,0.0,0.0,0.0,0.0,0.0,0.0,0.0,0.0,0.0,0.0,0.0,0.0,-2.2478,-2.3348,-2.4183,-2.5017,-2.5317,-2.5452,-2.5456,-2.5432,-2.5351,-2.5273,-2.5243,-2.516,-2.5075,-2.493,-2.4864,-2.4855,-2.476,-2.47,-2.4651,-2.4617,-2.4588,-2.4556,-2.4623,-2.4651,-2.4663,-0.7502,-0.8297,-0.8982,-0.9244,-1.0613,-1.1795,-1.2193,-1.2719,-1.4165,-1.7192,-1.8734,-2.0114,-2.1544,-2.2753,-2.3494,-2.3494,-2.3494,-2.3494,-2.3494,-2.2856,-2.2446,-2.2468,-2.055,-1.9054,-1.8165,-1.59,-1.3922,-1.224,-1.0522,-0.9221,-0.8352,-0.8313,-0.8293,-0.8344,-0.9287,-1.0878,-1.315,-1.8146,-2.1148,-2.2753,-2.4503,-2.5191,-2.5191,-2.5191,-2.5191,-2.5191,-2.5191,-2.5191,-2.5191,-2.5191,-2.525,-2.5293,-2.5313,-2.5406,-2.5498,-2.5515,-2.5605,-2.5675,-2.5703,-2.5157,-2.4569,-2.4573,-2.4004,-2.3416,-2.3303,-2.2676,-2.1882,-2.1017,-1.9542,-1.8166,0.0,0.0,0.0,0.0,0.0,0.0,0.0,0.0,0.0,0.0,0.0,0.0,0.0,0.0,0.0,0.0,0.0,0.0,0.0,0.0,0.0,-2.1565,-2.2516,-2.3407,-2.4291,0.0,-2.5393,-2.5385,-2.5379,-2.5273,-2.5072,-2.5018,-2.4917,-2.479,-2.4697,-2.4666,-2.4651,-2.4575,-2.4526,-2.4508,-2.4439,-2.4422,-2.4388,-2.4266,-2.4284,-2.4352,-0.8371,-0.875,-0.935,-1.0529,-1.1761,-1.3282,-1.5321,-1.5866,-1.6554,-1.7906,-2.0082,-2.1668,-2.214,-2.2972,-2.3494,-2.3494,-2.3494,-2.3494,-2.3494,-2.3374,-2.3302,-2.337,-2.2522,-2.1389,-1.9986,-1.7698,-1.5692,-1.3954,-1.1679,-1.0105,-0.918,-0.852,-0.8251,-0.8344,-0.9342,-1.1944,-1.5836,-1.9535,0.0,-2.2753,-2.4503,-2.5191,-2.5191,-2.5191,-2.5191,-2.5191,-2.5191,-2.5191,-2.5191,-2.5191,-2.5241,-2.5302,-2.536,-2.5432,-2.5525,-2.5636,-2.5589,-2.5566,-2.5675,-2.5597,-2.5465,-2.5473,-2.5352,-2.5056,-2.4331,-2.4059,-2.3708,-2.2812,-2.1838,-2.0847,-1.999,0.0,0.0,0.0,0.0,0.0,0.0,0.0,0.0,0.0,0.0,0.0,0.0,0.0,0.0,0.0,0.0,0.0,0.0,0.0,0.0,0.0,-2.2172,0.0,0.0,0.0,-2.5367,-2.5322,-2.5212,-2.5103,-2.5019,-2.4883,-2.4785,-2.4712,-2.454,-2.4405,-2.4371,-2.4173,-2.4096,-2.4096,-2.4019,-2.3941,-2.3821,-2.3813,-2.3747,-2.3685,-0.9673,-1.0196,-1.0963,-1.2187,-1.3937,-1.5662,-1.7054,-1.853,-1.9616,-1.9906,-2.1063,-2.2043,-2.2588,-2.3158,-2.3494,-2.3494,-2.3494,-2.3517,-2.3539,-2.3539,-2.3585,-2.3652,-2.3133,-2.252,-2.1751,-1.9583,-1.756,-1.5748,-1.3702,-1.1787,-1.001,-0.9627,-0.9242,-0.8955,-1.0864,-1.3678,-1.7164,0.0,0.0,-2.3384,-2.4675,-2.5191,-2.5191,-2.5191,-2.5191,-2.5191,-2.5191,-2.5191,-2.5222,-2.5239,-2.5283,-2.5321,-2.5427,-2.5466,-2.5535,-2.5655,-2.5655,-2.5621,-2.5684,-2.5704,-2.5694,-2.5694,-2.5694,-2.5597,-2.5161,-2.5063,-2.4829,-2.3952,-2.3442,-2.262,-2.0821,-1.9156,0.0,0.0,0.0,0.0,0.0,0.0,0.0,0.0,0.0,0.0,0.0,0.0,0.0,0.0,0.0,0.0,0.0,0.0,0.0,0.0,0.0,0.0,0.0,0.0,0.0,-2.5091,-2.5,-2.4864,-2.4746,-2.4636,-2.4508,-2.4373,-2.4248,-2.4173,-2.4135,-2.3919,-2.3834,-2.3831,-2.3725,-2.366,-2.3594,-2.3589,-2.3589,-2.3611,-1.1213,-1.1993,-1.2935,-1.4165,-1.627,-1.8025,-1.8697,-2.0638,-2.1984,-2.1766,-2.1912,-2.2293,-2.3038,-2.3342,-2.3494,-2.3494,-2.3494,-2.3539,-2.3603,-2.3585,-2.3629,-2.3721,-2.3395,-2.3161,-2.3031,-2.1059,-1.922,-1.7578,-1.5517,-1.3285,-1.0895,-1.0905,-1.0774,-1.0676,0.0,0.0,0.0,0.0,-2.2522,-2.3976,-2.4847,-2.5191,-2.5191,-2.5191,-2.5191,-2.5191,-2.5191,-2.5191,-2.5203,-2.5273,-2.5293,-2.5321,-2.5466,-2.5512,-2.5532,-2.5662,-2.5693,-2.5693,-2.5693,-2.5693,-2.5707,-2.5701,-2.5704,-2.5707,-2.5697,-2.5697,-2.5499,-2.4817,-2.4537,-2.3766,-2.171,-2.1032,0.0,0.0,0.0,0.0,0.0,0.0,0.0,0.0,0.0,0.0,0.0,0.0,0.0,0.0,0.0,0.0,0.0,0.0,0.0,0.0,0.0,-2.2799,-2.2671,0.0,-2.5024,-2.4888,-2.4842,-2.4678,-2.4459,-2.4373,-2.4248,-2.4074,-2.4016,-2.3955,-2.3915,-2.3732,-2.3664,-2.3656,-2.3539,-2.3453,-2.3448,-2.3448,-2.3499,-2.3544,-1.2981,-1.382,-1.4969,-1.6593,-1.8115,-1.9618,-2.112,-2.1882,-2.2238,-2.2162,-2.2717,-2.3224,-2.343,-2.3494,-2.3494,-2.3494,-2.3494,-2.3539,-2.3603,-2.3585,-2.3652,-2.3783,-2.3866,-2.3695,-2.3188,-2.161,-2.0345,-1.9457,-1.6187,-1.3647,-1.1873,-1.187,-1.2761,0.0,0.0,0.0,0.0,-2.1738,-2.3037,-2.3976,-2.4847,-2.5191,-2.5191,-2.5191,-2.5191,-2.5191,-2.5191,-2.5191,-2.5203,-2.5273,-2.5303,-2.5335,-2.5529,-2.558,-2.5605,-2.5679,-2.5703,-2.5701,-2.5705,-2.5698,-2.569,-2.5696,-2.5693,-2.571,-2.5707,-2.5707,-2.5684,-2.5597,-2.4946,-2.4335,-2.4082,-2.2737,-2.1602,0.0,0.0,0.0,0.0,0.0,-1.6035,0.0,0.0,0.0,0.0,0.0,0.0,0.0,0.0,0.0,0.0,0.0,0.0,-1.8009,-2.1074,-2.2681,-2.2604,-2.4279,-2.5005,-2.4804,-2.4804,-2.4617,-2.4318,-2.4192,-2.4075,-2.3996,-2.3937,-2.3852,-2.3721,-2.3567,-2.3539,-2.3517,-2.3517,-2.3383,-2.3241,-2.3289,-2.3217,-2.3052,-1.6096,-1.6693,-1.7472,-1.8826,-1.9992,-2.1011,-2.1861,-2.2579,-2.3012,-2.2985,-2.3252,-2.3448,-2.3494,-2.3494,-2.3494,-2.3494,-2.3539,-2.3585,-2.3674,-2.3696,-2.3743,-2.381,-2.3979,-2.4026,-2.3925,-2.2914,-2.1765,-2.049,-1.8589,-1.6526,-1.4344,-1.4333,-1.508,0.0,0.0,-1.9153,-2.1682,-2.2866,-2.3869,-2.4702,-2.5057,-2.5191,-2.5191,-2.5191,-2.5191,-2.5191,-2.5191,-2.5191,-2.5203,-2.5273,-2.5274,-2.5293,-2.5517,-2.5581,-2.5566,-2.5673,-2.5705,-2.5705,-2.5707,-2.5705,-2.5701,-2.5701,-2.5701,-2.5701,-2.5696,-2.5696,-2.5693,-2.5704,-2.5411,-2.5024,-2.4498,-2.3831,-2.3196,0.0,0.0,0.0,0.0,0.0,0.0,0.0,0.0,0.0,0.0,0.0,0.0,0.0,0.0,0.0,0.0,0.0,0.0,-1.7644,0.0,-2.2498,-2.2362,-2.3971,-2.4693,-2.4512,-2.4459,-2.4355,-2.4192,-2.4095,-2.3976,-2.3876,-2.3837,-2.3771,-2.3678,-2.3562,-2.3448,-2.3313,-2.3241,-2.3144,-2.3077,-2.3119,-2.3144,-2.3168,-1.8388,-1.8843,-1.9251,-2.0158,-2.1305,-2.2235,-2.2521,-2.3092,-2.3494,-2.3494,-2.3517,-2.3517,-2.3494,-2.3517,-2.3539,-2.3539,-2.3585,-2.3674,-2.3739,-2.3765,-2.3807,-2.3795,-2.3939,-2.4136,-2.4389,-2.3689,-2.2839,-2.1796,-2.0634,-1.8913,-1.6701,-1.6447,-1.7133,0.0,-1.9189,-2.0771,-2.3029,-2.364,-2.4396,-2.5191,-2.5191,-2.5191,-2.5191,-2.5191,-2.5191,-2.5191,-2.5191,-2.5191,-2.5203,-2.5273,-2.5264,-2.5274,-2.5517,-2.5586,-2.5576,-2.5676,-2.5707,-2.5707,-2.5707,-2.5707,-2.5707,-2.5703,-2.5705,-2.5707,-2.5703,-2.5701,-2.5701,-2.5698,-2.5698,-2.5508,-2.4891,-2.4782,-2.457,-2.3944,0.0,0.0,0.0,-2.1791,0.0,0.0,-1.9146,-1.8072,-1.6639,0.0,0.0,0.0,0.0,0.0,0.0,0.0,0.0,0.0,0.0,0.0,0.0,-2.3911,-2.4493,-2.4284,-2.4266,-2.4192,-2.4074,-2.3976,-2.3896,-2.3795,-2.3792,-2.3728,-2.3678,-2.3562,-2.3383,-2.3217,-2.3144,-2.3045,-2.2995,-2.302,-2.3119,-2.3193,-1.9263,-1.9703,-1.9967,-2.0264,-2.1833,-2.3175,-2.3453,-2.3476,-2.3494,-2.3494,-2.3562,-2.3562,-2.3517,-2.3562,-2.3585,-2.3585,-2.3674,-2.3721,-2.3804,-2.3804,-2.3807,0.0,0.0,-2.3981,-2.4389,-2.3609,-2.3359,-2.367,0.0,0.0,-1.8548,-1.7744,-1.877,-2.1257,-2.1257,-2.2242,-2.3881,-2.39,-2.4396,-2.5191,-2.5191,-2.5191,-2.5191,-2.5191,-2.5191,-2.5191,-2.5191,-2.5191,-2.5203,-2.5273,-2.5303,-2.5324,-2.5535,-2.5632,-2.5707,-2.5707,-2.5707,-2.5707,-2.5707,-2.5707,-2.5707,-2.5707,-2.5707,-2.5707,-2.5707,-2.5707,-2.5709,-2.5693,-2.5707,-2.5707,-2.5683,-2.5681,-2.5668,-2.5584,0.0,0.0,0.0,-2.3582,0.0,-2.1688,-2.0859,-2.0016,-1.9134,0.0,0.0,0.0,0.0,0.0,0.0,0.0,0.0,-2.0052,-2.1594,0.0,-2.3374,-2.4192,-2.4493,-2.4303,-2.4355,-2.4266,-2.3996,-2.3858,-2.3795,-2.3795,-2.3725,-2.37,-2.3678,-2.3562,-2.3407,-2.3289,-2.3289,-2.3168,-2.302,-2.3052,-2.307,-2.3003,-2.0893,-2.1685,-2.2178,-2.2418,-2.2976,-2.3383,-2.3494,-2.3494,-2.3517,-2.3567,-2.3585,-2.3607,-2.3634,-2.3674,-2.3674,0.0,-2.3739,-2.3783,0.0,-2.3789,-2.3813,-2.3795,-2.3795,-2.3981,-2.4389,-2.4148,-2.3902,-2.3689,0.0,0.0,0.0,-2.0994,-2.1646,-2.3008,-2.3008,-2.3671,-2.479,-2.479,-2.4962,-2.5191,-2.5191,-2.5203,-2.5195,-2.5195,-2.5195,-2.5195,-2.5195,-2.5203,-2.5203,-2.5273,-2.5329,-2.5401,-2.5546,-2.5613,-2.5642,-2.5683,-2.5707,-2.5707,-2.5707,-2.5707,-2.5707,-2.5707,-2.5707,-2.5707,-2.5707,-2.5709,-2.5697,-2.5644,-2.5663,-2.5682,-2.5636,-2.564,-2.5619,-2.5609,-2.5399,0.0,-2.5187,0.0,-2.4466,-2.3558,-2.3215,-2.2258,0.0,-1.9746,0.0,0.0,0.0,0.0,0.0,0.0,0.0,0.0,-2.1891,0.0,-2.3252,-2.4019,-2.4339,-2.4228,-2.421,-2.4096,-2.3917,-2.3707,-2.3598,-2.3598,-2.3571,-2.3504,-2.343,-2.3589,-2.3476,-2.3241,-2.3241,-2.3144,-2.3003,-2.3003,-2.3045,-2.307,-2.1687,-2.2634,-2.3313,-2.3471,-2.3494,-2.3494,-2.3494,-2.3494,-2.3522,-2.3571,-2.3634,-2.3656,-2.3721,-2.3743,0.0,-2.3743,-2.3786,-2.3789,-2.3789,-2.3813,-2.3795,-2.3795,-2.3878,-2.4059,-2.4389,-2.4458,0.0,-2.4182,-2.4182,-2.3916,-2.3442,-2.3442,-2.3746,-2.4283,-2.4283,-2.4624,-2.5191,-2.5191,-2.5191,-2.5191,-2.5191,-2.5203,-2.5187,-2.5187,-2.5198,-2.5209,-2.5209,-2.522,-2.5252,-2.5351,-2.5422,-2.5485,-2.56,-2.5648,-2.5645,-2.5683,-2.5707,-2.5707,-2.5707,-2.5707,-2.5707,-2.5707,-2.5707,-2.5709,-2.5696,-2.5681,-2.5644,-2.5613,-2.5629,-2.5644,-2.5603,-2.5605,-2.5604,-2.5595,-2.56,-2.559,-2.559,0.0,-2.5401,0.0,0.0,0.0,0.0,-2.1454,0.0,0.0,0.0,0.0,0.0,0.0,0.0,-2.1105,-2.2559,0.0,-2.3635,-2.4081,-2.4228,-2.4054,-2.3816,-2.3671,-2.3602,-2.3531,-2.3504,-2.3504,-2.3576,-2.3553,-2.3486,-2.3594,-2.3458,-2.3199,-2.3077,-2.2944,-2.2816,-2.2816,-2.2893,-2.2995,-2.1869,-2.2764,-2.3494,0.0,-2.3494,0.0,-2.3494,-2.3494,-2.3522,-2.3571,-2.366,-2.3747,-2.3807,-2.3813,-2.3813,-2.3807,0.0,0.0,0.0,-2.3795,-2.3795,-2.3795,-2.3979,-2.4174,-2.4389,-2.4575,-2.4783,-2.501,-2.501,-2.501,-2.501,-2.501,-2.5037,-2.5101,-2.5101,-2.5139,-2.5191,-2.5191,-2.5191,-2.5191,-2.5191,-2.5203,-2.5198,-2.5198,-2.519,-2.5212,-2.5212,-2.5254,-2.5311,-2.5453,-2.5544,-2.5619,-2.5681,-2.5698,-2.5707,-2.5707,-2.5707,-2.5707,-2.5707,-2.5707,-2.5707,-2.5707,-2.5709,-2.5694,-2.5684,-2.5641,-2.559,-2.5593,-2.5593,-2.5606,-2.5595,-2.5605,-2.5595,-2.5607,-2.5601,-2.5601,-2.5601,-2.5601,-2.5583,0.0,0.0,0.0,0.0,-2.3256,-2.2748,0.0,0.0,0.0,0.0,0.0,-2.2763,-2.3455,-2.3468,-2.3758,-2.4358,-2.4303,-2.4096,-2.3753,-2.3323,-2.3105,-2.3091,-2.3324,-2.344,-2.344,-2.3646,-2.3732,-2.371,-2.3553,-2.3371,-2.3182,-2.2927,-2.2712,-2.2525,-2.2569,-2.2659,-2.2816,0.0,0.0,-2.3494,-2.3494,-2.3494,-2.3494,-2.3494,-2.3494,-2.3517,-2.3539,-2.3638,-2.3795,-2.4078,-2.4058,-2.4039,-2.4019,-2.3878,-2.3795,-2.3795,-2.3795,-2.3795,-2.3795,-2.3858,-2.404,-2.4389,-2.4459,-2.4642,-2.501,-2.501,-2.501,-2.501,-2.4985,-2.5044,-2.5101,-2.5107,-2.5144,-2.5191,-2.5191,-2.5191,-2.5191,-2.5191,-2.5195,-2.5201,-2.5201,-2.5241,-2.5282,-2.5282,-2.5293,-2.5318,-2.5444,-2.5543,-2.5609,-2.5687,-2.5703,-2.5707,-2.5707,-2.5707,-2.5707,-2.5707,-2.5707,-2.5707,-2.5707,-2.5697,-2.5683,-2.564,-2.5612,-2.5606,-2.561,-2.5595,-2.56,-2.5599,-2.5593,-2.5607,-2.5601,-2.5601,-2.5601,-2.5601,-2.5601,-2.5595,0.0,-2.529,-2.4833,-2.4072,-2.3715,-2.3488,0.0,0.0,0.0,0.0,-2.403,-2.3777,-2.335,-2.3882,-2.4136,-2.4095,-2.4036,-2.3795,-2.3417,-2.3194,-2.3116,-2.3109,-2.2935,-2.2876,-2.2902,-2.2935,-2.296,-2.2985,-2.3247,-2.3247,-2.3126,-2.3168,-2.3095,-2.297,-2.3052,-2.3095,-2.3028,-2.3494,-2.3494,-2.3494,-2.3494,-2.3494,-2.3494,-2.3494,-2.3494,-2.3494,-2.3494,-2.3638,-2.3858,-2.4155,-2.4136,-2.4154,-2.4229,-2.4136,-2.404,-2.3941,-2.3939,-2.3981,-2.4079,-2.4079,-2.4229,-2.4526,-2.4639,-2.4794,-2.505,-2.505,-2.505,-2.505,-2.5044,-2.507,-2.5107,-2.5101,-2.5125,-2.5229,-2.5593,-2.5746,-2.5784,-2.6173,-2.6362,-2.6343,-2.5959,-2.5847,-2.585,-2.5437,-2.535,-2.5391,-2.5473,-2.5556,-2.5658,-2.5696,-2.5703,-2.5707,-2.5707,-2.5707,-2.5707,-2.5707,-2.5707,-2.5709,-2.5697,-2.5683,-2.5636,-2.5616,-2.5598,-2.56,-2.5593,-2.5593,-2.5604,-2.5601,-2.5601,-2.5601,-2.5601,-2.5601,-2.5601,-2.5601,-2.5601,-2.5589,-2.5524,-2.5434,-2.5138,-2.449,-2.435,-2.4246,-2.4114,-2.4069,0.0,-2.4596,-2.4547,-2.4239,-2.3673,-2.4026,-2.4058,-2.3756,-2.358,-2.3353,-2.3116,-2.291,-2.2825,-2.2799,-2.2764,-2.2738,-2.2712,-2.2825,-2.2876,-2.2919,-2.3275,-2.3441,-2.3493,-2.3753,-2.3902,-2.3955,-2.3972,-2.4051,-2.4112,-2.3494,-2.3494,-2.3636,-2.4118,-2.4207,-2.4207,-2.4207,-2.4236,-2.4098,-2.3616,-2.397,-2.4346,-2.4579,-2.4579,-2.4635,-2.4796,-2.4847,-2.4649,-2.4173,-2.4154,-2.4211,-2.4389,-2.4389,-2.4493,-2.4692,-2.4898,-2.5025,-2.5101,-2.5101,-2.5158,-2.5273,-2.5292,-2.5355,-2.5494,-2.5494,-2.5519,-2.5631,-2.6307,-2.6593,-2.6651,-2.7396,-2.7739,-2.7711,-2.6964,-2.6664,-2.6495,-2.5764,-2.5498,-2.5505,-2.5505,-2.558,-2.5701,-2.5701,-2.5703,-2.5707,-2.5707,-2.5707,-2.5707,-2.5707,-2.5709,-2.5696,-2.5684,-2.5637,-2.5598,-2.5601,-2.5595,-2.5595,-2.5595,-2.5595,-2.5595,-2.5595,-2.5595,-2.5595,-2.5595,-2.5601,-2.5601,-2.5595,0.0,-2.5511,-2.541,-2.5348,-2.5206,-2.4924,-2.4891,-2.4814,-2.4698,-2.4701,-2.4631,-2.4512,-2.4495,-2.4355,-2.4079,-2.4059,-2.3862,-2.35,-2.3164,-2.2952,-2.2859,-2.2605,-2.2511,-2.2575,-2.2804,-2.2936,-2.2986,-2.3206,-2.3317,-2.3319,-2.3622,-2.3852,-2.405,-2.4403,-2.4731,-2.4977,-2.4866,-2.5023,-2.5312,-2.3494,-2.3494,-2.4331,-2.7005,-2.7451,-2.7451,-2.7451,-2.7643,-2.682,-2.4115,-2.5311,-2.6432,-2.647,-2.6616,-2.6722,-2.6756,-2.6924,-2.6255,-2.4465,-2.4355,-2.4372,-2.4389,-2.4389,-2.4493,-2.4692,-2.4898,-2.5025,-2.5101,-2.5101,-2.5444,-2.611,-2.6168,-2.6562,-2.721,-2.7275,-2.7287,-2.7319,-2.7453,-2.751,-2.751,-2.7644,-2.7714,-2.7713,-2.7635,-2.714,-2.6521,-2.6437,-2.6009,-2.5498,-2.5498,-2.5593,-2.5705,-2.5705,-2.5707,-2.5707,-2.5707,-2.5707,-2.5707,-2.5707,-2.5698,-2.5684,-2.5637,-2.5615,-2.5601,-2.5609,-2.5595,-2.5602,-2.5602,-2.5551,-2.5525,-2.5596,-2.5602,-2.5602,-2.5602,-2.5595,-2.557,-2.5525,0.0,-2.539,-2.5318,-2.5113,-2.4949,-2.4917,-2.4785,-2.4723,-2.4698,-2.465,-2.458,-2.4512,-2.4515,-2.4357,-2.404,-2.4173,-2.3981,-2.3414,-2.314,-2.2876,-2.2659,-2.2569,-2.2784,-2.3323,-2.338,-2.3692,-2.4228,-2.4271,-2.4258,-2.4201,-2.4381,-2.4475,-2.4522,-2.4684,-2.4824,-2.4925,-2.5023,-2.5192,-2.5401,-2.6025,-2.6025,-2.6488,-2.7932,-2.8182,-2.8237,-2.838,-2.851,-2.8062,-2.6584,-2.7451,-2.7977,-2.7438,-2.7265,-2.7253,-2.7352,-2.7449,-2.7093,-2.6126,-2.5972,-2.5972,-2.6054,-2.5972,-2.6022,-2.6261,-2.6346,-2.6434,-2.6505,-2.6505,-2.6696,-2.7058,-2.7084,-2.7294,-2.7656,-2.7688,-2.7701,-2.774,-2.816,-2.8338,-2.8376,-2.8867,-2.9065,-2.906,-2.8612,-2.8226,-2.7791,-2.6899,-2.6434,-2.612,-2.5659,-2.5593,-2.5707,-2.5707,-2.5707,-2.5707,-2.5707,-2.5707,-2.5707,-2.5707,-2.5699,-2.5683,-2.5615,-2.5609,-2.5609,-2.5607,-2.5602,-2.5596,-2.5551,-2.5518,-2.5518,-2.5596,-2.5596,-2.5596,-2.5596,-2.5602,-2.5583,-2.5518,-2.5471,-2.5414,-2.5301,-2.5196,-2.5046,-2.4858,-2.478,-2.47,-2.4596,-2.4564,-2.453,-2.4497,-2.4498,-2.4339,-2.4002,-2.3903,-2.3653,-2.3189,-2.3495,-2.3484,-2.3179,-2.3607,-2.3927,-2.4147,-2.4105,-2.4232,-2.4506,-2.4506,-2.4492,-2.4481,-2.4917,-2.5272,-2.5545,-2.5988,-2.6429,-2.6788,-2.677,-2.6853,-2.7006,-2.8182,-2.8182,-2.8182,-2.8182,-2.8237,-2.8353,-2.8562,-2.8587,-2.8587,-2.8587,-2.9012,-2.902,-2.8278,-2.7974,-2.7883,-2.8048,-2.8063,-2.8063,-2.8063,-2.7935,-2.7749,-2.7513,-2.7352,-2.7365,-2.7599,-2.7613,-2.7622,-2.7701,-2.7701,-2.7797,-2.7988,-2.7988,-2.8103,-2.8275,-2.8275,-2.8275,-2.8313,-2.8943,-2.9197,-2.9254,-2.9937,-3.0226,-3.0209,-2.9551,-2.9205,-2.8887,-2.7428,-2.6859,-2.6663,-2.5789,-2.5593,-2.5707,-2.5707,-2.5707,-2.5707,-2.5707,-2.5707,-2.5709,-2.5709,-2.5681,-2.5662,-2.5611,-2.56,-2.561,-2.5595,-2.559,-2.5564,-2.5511,-2.5505,-2.5524,-2.5564,-2.5583,-2.5583,-2.5583,-2.559,-2.5564,-2.5505,-2.5471,-2.5414,-2.5321,-2.5245,-2.5111,-2.4818,-2.4799,-2.4697,-2.4512,-2.4495,-2.4571,-2.476,-2.4778,-2.4745,-2.4649,-2.4142,-2.3812,-2.3689,-2.4325,-2.4436,-2.3996,-2.4666,-2.4999,-2.4944,-2.4917,-2.4958,-2.5031,-2.5031,-2.5,-2.5019,-2.5545,-2.6007,-2.6411,-2.6923,-2.7517,-2.8119,-2.8007,-2.8119,-2.8335,-2.8182,-2.8182,-2.8182,-2.8182,-2.8424,-2.8562,-2.8587,-2.8587,-2.8587,-2.8587,-2.9012,-2.9318,-2.9363,-2.9583,-2.9718,-2.9718,-2.9718,-2.9718,-2.9718,-2.9785,-2.9102,-2.757,-2.7479,-2.7509,-2.7599,-2.7613,-2.7622,-2.7701,-2.7701,-2.8083,-2.8815,-2.8815,-2.9249,-3.0013,-3.0013,-3.0013,-3.0013,-3.007,-3.0089,-3.0109,-3.0166,-3.0185,-3.0199,-3.0209,-2.9717,-2.8893,-2.808,-2.7361,-2.6663,-2.5789,-2.5593,-2.5707,-2.5707,-2.5707,-2.5707,-2.5707,-2.5691,-2.5693,-2.5693,-2.5644,-2.5609,-2.5603,-2.5609,-2.5602,-2.5602,-2.555,-2.5503,-2.5503,-2.5507,-2.5499,-2.5515,-2.5503,-2.5503,-2.5503,-2.5505,-2.5505,-2.5499,-2.5385,-2.5312,-2.5293,-2.5091,-2.4896,-2.4823,-2.4734,-2.4647,-2.4512,-2.4495,-2.4832,-2.5578,-2.5615,-2.5913,-2.6578,-2.5539,-2.5222,-2.5685,-2.5924,-2.5643,-2.4802,-2.5202,-2.5472,-2.5635,-2.5749,-2.6092,-2.6522,-2.6522,-2.6522,-2.6455,-2.6505,-2.6522,-2.659,-2.6607,-2.6908,-2.7276,-2.7276,-2.7636,-2.8129,-2.8432,-2.845,-2.845,-2.845,-2.8536,-2.8587,-2.8587,-2.8587,-2.8694,-2.9007,-2.9254,-2.9456,-2.9551,-2.9751,-2.9924,-2.9956,-2.9956,-2.9972,-3.0022,-3.0038,-2.9787,-2.9144,-2.9076,-2.9091,-2.9155,-2.9155,-2.9165,-2.9188,-2.9235,-2.9402,-2.9707,-2.9707,-2.9879,-3.0204,-3.0204,-3.0204,-3.0204,-3.0204,-3.0204,-3.0204,-3.0204,-3.0199,-3.0207,-3.0266,-3.0094,-2.9709,-2.8974,-2.8225,-2.7479,-2.6656,-2.6065,-2.5707,-2.5707,-2.5707,-2.5707,-2.5691,-2.5693,-2.5694,-2.5699,-2.5642,-2.5598,-2.5595,-2.5576,-2.5538,-2.5543,-2.5529,-2.5495,-2.5499,-2.5492,-2.5492,-2.5495,-2.5495,-2.5495,-2.5495,-2.5503,-2.5495,-2.5437,-2.5393,-2.533,-2.5253,-2.5149,-2.5,-2.4752,-2.5186,-2.5394,-2.526,-2.5707,-2.6135,-2.6433,-2.6451,-2.6785,-2.7524,-2.7122,-2.6651,-2.6144,-2.6675,-2.6691,-2.6214,-2.6578,-2.6789,-2.6874,-2.6659,-2.6781,-2.7115,-2.6908,-2.6908,-2.7004,-2.6775,-2.6775,-2.6973,-2.6973,-2.7181,-2.7535,-2.7695,-2.7908,-2.8129,-2.8562,-2.8587,-2.8587,-2.8587,-2.8821,-2.8993,-2.8993,-2.8897,-2.8943,-2.9314,-2.9532,-2.9626,-2.9608,-2.9787,-2.994,-2.9988,-3.0007,-3.0022,-3.0102,-3.0102,-3.0102,-3.0102,-3.0072,-3.0053,-3.0098,-3.0098,-3.0113,-3.0123,-3.0171,-3.0204,-3.0204,-3.0204,-3.0204,-3.0204,-3.0204,-3.0204,-3.0204,-3.0204,-3.0204,-3.0204,-3.0204,-3.0199,-3.0221,-3.0279,-3.0299,-3.0194,-2.9468,-2.8888,-2.8359,-2.7576,-2.678,-2.6117,-2.6117,-2.5922,-2.5707,-2.5693,-2.5694,-2.5698,-2.5703,-2.5654,-2.5603,-2.5606,-2.5542,-2.5498,-2.5503,-2.5495,-2.5507,-2.5492,-2.5511,-2.5492,-2.5507,-2.5701,-2.5875,-2.5875,-2.6107,-2.6273,-2.623,-2.6221,-2.6149,-2.6,-2.5945,-2.5812,-2.5518,-2.5965,-2.6202,-2.608,-2.66,-2.7009,-2.7269,-2.7529,-2.7879,-2.8373,-2.8365,-2.7959,-2.7173,-2.7651,-2.7712,-2.7335,-2.7733,-2.7829,-2.7683,-2.743,-2.7382,-2.7517,-2.7181,-2.7181,-2.7396,-2.7004,-2.7036,-2.7369,-2.7382,-2.7577,-2.7886,-2.8047,-2.8183,-2.8308,-2.8562,-2.8612,-2.8612,-2.8612,-2.9336,-2.9888,-2.9888,-2.957,-2.9355,-2.9475,-2.9734,-2.9822,-2.9626,-2.9769,-2.994,-2.9988,-3.0007,-3.0022,-3.0102,-3.0113,-3.0094,-3.0102,-3.0102,-3.0098,-3.0109,-3.0109,-3.0123,-3.0204,-3.0204,-3.0204,-3.0204,-3.0204,-3.0204,-3.0204,-3.0204,-3.0204,-3.0204,-3.0204,-3.0204,-3.0204,-3.0204,-3.0199,-3.0221,-3.0279,-3.0299,-3.0194,-2.9468,-2.9256,-2.9195,-2.8452,-2.7677,-2.7017,-2.7017,-2.641,-2.5726,-2.5712,-2.5716,-2.5722,-2.5718,-2.5673,-2.5621,-2.5613,-2.556,-2.5515,-2.5515,-2.5519,-2.553,-2.553,-2.553,-2.553,-2.553,-2.616,-2.6702,-2.6702,-2.7445,-2.7995,-2.7995,-2.8008,-2.7933,-2.7712,-2.7574,-2.7433,-2.7217,-2.7063,-2.6972,-2.6916,-2.6935,-2.7269,-2.8067,-2.888,-2.9262,-2.92,-2.9134,-2.9085,-2.8994,-2.8994,-2.8651,-2.801,-2.8404,-2.8352,-2.7897,-2.7954,-2.7926,-2.7783,-2.7439,-2.7457,-2.7672,-2.7338,-2.74,-2.7701,-2.7783,-2.7964,-2.8183,-2.8183,-2.8404,-2.8687,-2.8587,-2.9104,-2.9514,-2.9514,-2.9734,-2.9888,-2.9888,-2.9644,-2.9514,-2.9751,-2.9716,-2.9716,-2.9805,-2.9855,-2.9956,-3.0053,-3.0072,-3.0102,-3.0176,-3.0171,-3.0171,-3.0176,-3.0128,-3.0094,-3.0109,-3.0109,-3.0109,-3.0123,-3.0171,-3.0204,-3.0204,-3.0204,-3.0204,-3.0204,-3.0204,-3.0204,-3.0204,-3.0204,-3.0204,-3.0204,-3.0204,-3.0199,-3.0221,-3.0279,-3.0299,-3.0283,-3.0208,-2.9795,-2.9298,-2.9207,-2.8611,-2.7913,-2.7918,-2.7723,-2.751,-2.7516,-2.7518,-2.7519,-2.7469,-2.7443,-2.7268,-2.6607,-2.6378,-2.6505,-2.7105,-2.726,-2.7252,-2.7252,-2.7252,-2.7252,-2.7252,-2.7445,-2.76,-2.76,-2.7832,-2.8006,-2.7999,-2.799,-2.7923,-2.772,-2.7574,-2.7443,-2.728,-2.7604,-2.7829,-2.781,-2.8349,-2.8755,-2.8915,-2.9175,-2.924,-2.9134,-2.9112,-2.9085,-2.8994,-2.8994,-2.8905,-2.87,-2.8626,-2.8525,-2.8378,-2.8174,-2.8147,-2.8273,-2.7926,-2.7908,-2.8102,-2.7794,-2.7754,-2.784,-2.7869,-2.7897,-2.7936,-2.8166,-2.829,-2.8404,-2.9038,-2.9551,-2.9888,-2.9888,-2.9888,-2.9888,-2.9888,-2.9751,-2.9716,-2.9872,-2.9786,-2.9751,-2.9888,-2.9905,-2.9972,-3.0087,-3.0132,-3.0161,-3.0204,-3.0204,-3.0204,-3.0204,-3.0157,-3.0142,-3.0142,-3.0142,-3.0142,-3.0142,-3.0171,-3.0204,-3.0204,-3.0204,-3.0204,-3.0204,-3.0204,-3.0204,-3.0204,-3.0204,-3.0204,-3.0204,-3.0199,-3.0226,-3.0234,-3.0273,-3.0311,-3.0364,-3.0532,-3.0263,-2.983,-3.0021,-2.9515,-2.8756,-2.8408,-2.8294,-2.8295,-2.83,-2.83,-2.8281,-2.8218,-2.8209,-2.8136,-2.7847,-2.7497,-2.7348,-2.7871,-2.7995,-2.7995,-2.7995,-2.7995,-2.7995,-2.7995,-2.8285,-2.8509,-2.8509,-2.8799,-2.9031,-2.9032,-2.9014,-2.8886,-2.8632,-2.8512,-2.8385,-2.8161,-2.8465,-2.8685,-2.8685,-2.9128,-2.9386,-2.9344,-2.9323,-2.924,-2.9134,-2.9112,-2.9085,-2.8994,-2.8994,-2.8994,-2.8994,-2.8834,-2.8767,-2.8743,-2.8558,-2.8533,-2.8644,-2.8308,-2.8281,-2.8464,-2.8183,-2.8147,-2.8273,-2.8299,-2.8281,-2.8255,-2.8446,-2.8515,-2.8507,-2.9681,-2.9872,-2.9888,-2.9888,-2.9888,-2.9888,-2.9924,-2.9905,-2.9905,-2.9924,-2.9905,-2.9905,-2.9924,-2.9972,-3.0038,-3.0102,-3.0161,-3.0204,-3.0204,-3.0204,-3.0204,-3.0204,-3.0204,-3.0204,-3.0204,-3.0204,-3.0204,-3.0204,-3.0204,-3.0204,-3.0204,-3.0204,-3.0204,-3.0204,-3.0204,-3.0204,-3.0199,-3.0199,-3.0199,-3.0199,-3.0207,-3.0253,-3.0305,-3.0292,-3.0348,-3.0414,-3.0552,-3.0593,-3.062,-3.0762,-3.0318,-2.958,-2.8781,-2.853,-2.8533,-2.8534,-2.8534,-2.8515,-2.8431,-2.8427,-2.8573,-2.9248,-2.8818,-2.8227,-2.8227,-2.8227,-2.8227,-2.8227,-2.8227,-2.8227,-2.8227,-2.8876,-2.9418,-2.9418,-3.0075,-3.0598,-3.0598,-3.053,-3.0386,-3.0066,-2.9958,-2.9784,-2.947,-2.9409,-2.9407,-2.9407,-2.9407,-2.9407,-2.9386,-2.9344,-2.9262,-2.92,-2.9134,-2.9085,-2.9017,-2.9017,-2.9017,-2.8994,-2.8994,-2.8994,-2.8994,-2.8994,-2.8952,-2.8887,-2.859,-2.8583,-2.8785,-2.8489,-2.854,-2.881,-2.8881,-2.8905,-2.8905,-2.8905,-2.8905,-2.8905,-2.9166,-2.9608,-2.9888,-2.9888,-2.9888,-2.9924,-2.9972,-2.994,-2.994,-3.0038,-3.0022,-3.0007,-3.0038,-3.0072,-3.0083,-3.0094,-3.0157,-3.0204,-3.0204,-3.0204,-3.0204,-3.0204,-3.0204,-3.0204,-3.0204,-3.0204,-3.0204,-3.0204,-3.0204,-3.0204,-3.0204,-3.0204,-3.0204,-3.0204,-3.0204,-3.0199,-3.0207,-3.0207,-3.024,-3.0286,-3.0279,-3.0286,-3.0292,-3.0304,-3.0348,-3.0414,-3.0552,-3.0593,-3.0639,-3.0827,-3.0751,-3.0597,-3.0407,-3.035,-3.0331,-3.0332,-3.0332,-3.0311,-3.0186,-3.0161,-3.0175,-3.0294,-3.0172,-3.0037,-3.0037,-3.0037,-3.0037,-3.0037,-3.0037,-3.0037,-3.0037,-3.0192,-3.0327,-3.0327,-3.0482,-3.0598,-3.0598,-3.053,-3.043,-3.0248,-3.008,-2.9899,-2.9662,-2.9493,-2.939,-2.9407,-2.9407,-2.9386,-2.9323,-2.9302,-2.9262,-2.92,-2.9178,-2.9152,-2.9085,-2.9085,-2.9044,-2.8994,-2.8994,-2.8994,-2.8994,-2.8994,-2.8952,-2.8905,-2.8863,-2.8863,-2.8881,-2.8863,-2.8905,-2.897,-2.8952,-2.8952,-2.8905,-2.8952,-2.8952,-2.8905,-2.9119,-2.9415,-2.9681,-2.9872,-2.994,-2.9956,-2.9988,-3.0007,-3.0022,-3.0087,-3.0072,-3.0053,-3.0102,-3.0098,-3.0113,-3.0138,-3.0171,-3.0204,-3.0204,-3.0204,-3.0204,-3.0204,-3.0204,-3.0204,-3.0204,-3.0204,-3.0204,-3.0204,-3.0204,-3.0204,-3.0204,-3.0204,-3.0204,-3.0204,-3.0204,-3.0199,-3.0188,-3.0188,-3.0234,-3.0292,-3.0286,-3.0311,-3.0316,-3.0367,-3.0419,-3.0462,-3.0593,-3.0661,-3.0711,-3.0858,-3.0909,-3.0892,-3.0896,-3.0898,-3.0898,-3.0898,-3.0898,-3.0878,-3.0771,-3.0758,-3.0724,-3.0659,-3.0622,-3.0593,-3.0607,-3.0598,-3.0598,-3.0598,-3.0598,-3.0598,-3.0598,-3.0598,-3.0598,-3.0598,-3.0598,-3.0598,-3.0598,-3.053,-3.0409,-3.0177,-3.0037,-2.9864,-2.968,-2.9551,-2.9493,-2.9492,-2.9429,-2.9386,-2.9344,-2.9344,-2.9323,-2.924,-2.924,-2.9197,-2.9089,-2.9089,-2.9085,-2.8994,-2.8994,-2.8994,-2.8994,-2.8994,-2.8994,-2.8952,-2.8975,-2.8994,-2.8952,-2.8994,-2.8994,-2.8994,-2.8994,-2.8994,-2.8952,-2.8994,-2.8994,-2.8952,-2.9209,-2.9293,-2.9472,-3.0028,-3.0184,-3.0273,-3.0421,-3.0491,-3.0521,-3.0537,-3.0537,-3.0537,-3.0537,-3.0532,-3.0505,-3.0414,-3.0414,-3.0357,-3.0204,-3.0204,-3.0204,-3.0204,-3.0204,-3.0204,-3.0204,-3.0204,-3.0204,-3.0204,-3.0204,-3.0204,-3.0204,-3.0204,-3.0204,-3.0204,-3.0199,-3.0213,-3.0221,-3.0234,-3.0247,-3.0324,-3.0323,-3.0316,-3.0328,-3.0452,-3.0501,-3.0528,-3.065,-3.0755,-3.0823,-3.0888,-3.0892,-3.0895,-3.0897,-3.0898,-3.0898,-3.0898,-3.0898,-3.0898,-3.0827,-3.0801,-3.0774,-3.072,-3.0645,-3.0598,-3.0604,-3.0588,-3.0598,-3.0598,-3.0598,-3.0598,-3.0598,-3.0598,-3.0598,-3.0598,-3.0598,-3.0569,-3.0569,-3.052,-3.0375,-3.0066,-2.9943,-2.9832,-2.9681,-2.9662,-2.9644,-2.9608,-2.9492,-2.9429,-2.9407,-2.9407,-2.9386,-2.9323,-2.9302,-2.924,-2.913,-2.9108,-2.9085,-2.8994,-2.8994,-2.8994,-2.8994,-2.8994,-2.8994,-2.8994,-2.8994,-2.8994,-2.8994,-2.8994,-2.8994,-2.8994,-2.8994,-2.8994,-2.8994,-2.8994,-2.8994,-2.8994,-2.9209,-2.9293,-2.9659,-3.0822,-3.1075,-3.1371,-3.2126,-3.2257,-3.2289,-3.2333,-3.2298,-3.2279,-3.2333,-3.2348,-3.2042,-3.1312,-3.1293,-3.1006,-3.0242,-3.0204,-3.0204,-3.0204,-3.0204,-3.0204,-3.0204,-3.0204,-3.0204,-3.0204,-3.0204,-3.0204,-3.0204,-3.0204,-3.0204,-3.0204,-3.0194,-3.0221,-3.0279,-3.0299,-3.0323,-3.0386,-3.0398,-3.0398,-3.039,-3.0472,-3.0501,-3.0528,-3.065,-3.0781,-3.0888,-3.0892,-3.0895,-3.0897,-3.0898,-3.0898,-3.0898,-3.0898,-3.0898,-3.0898,-3.0827,-3.0801,-3.0774,-3.072,-3.0645,-3.0593,-3.0598,-3.0602,-3.0598,-3.0598,-3.0598,-3.0598,-3.0598,-3.0598,-3.0598,-3.0598,-3.0559,-3.0501,-3.0501,-3.046,-3.0352,-3.0182,-3.0011,-2.9886,-2.9869,-2.9853,-2.9786,-2.9626,-2.9589,-2.9513,-2.9407,-2.9407,-2.9407,-2.9386,-2.9323,-2.9262,-2.9178,-2.9112,-2.9085,-2.8994,-2.8994,-2.8994,-2.8994,-2.8994,-2.8994,-2.8994,-2.8994,-2.8994,-2.8994,-2.8994,-2.8994,-2.8994,-2.8994,-2.8994,-2.8994,-2.8994,-2.8994,-2.8994,-2.9879,-3.0336,-3.091,-3.1784,-3.1979,-3.2145,-3.2537,-3.2645,-3.2661,-3.2691,-3.2672,-3.2657,-3.2691,-3.2691,-3.2539,-3.2157,-3.2153,-3.2019,-3.1618,-3.1599,-3.1599,-3.1599,-3.1599,-3.1599,-3.1599,-3.1159,-3.093,-3.093,-3.0433,-3.0204,-3.0204,-3.0204,-3.0204,-3.0204,-3.0194,-3.0234,-3.0292,-3.0292,-3.0336,-3.0398,-3.0398,-3.0425,-3.0462,-3.0527,-3.0591,-3.062,-3.0724,-3.0816,-3.0909,-3.0894,-3.0896,-3.0897,-3.0898,-3.0898,-3.0898,-3.0898,-3.0898,-3.0898,-3.0857,-3.0856,-3.0855,-3.0827,-3.0732,-3.065,-3.065,-3.0622,-3.0598,-3.0598,-3.0569,-3.053,-3.053,-3.055,-3.054,-3.054,-3.053,-3.05,-3.05,-3.0439,-3.034,-3.015,-3.0066,-3.0007,-3.0007,-2.9931,-2.9869,-2.9767,-2.9589,-2.9451,-2.9407,-2.9407,-2.9407,-2.9407,-2.9365,-2.9304,-2.9262,-2.9218,-2.9175,-2.9112,-2.9112,-2.9067,-2.8994,-2.8994,-2.8994,-2.8994,-2.8994,-2.8994,-2.8994,-2.8994,-2.8994,-2.8994,-2.8994,-2.8994,-2.8994,-2.8994,-2.8994,-2.8994]},{"header":{"parameterUnit":"m.s-1","parameterCategory":1,"la1":30.6,"la2":28.766,"lo1":-90.7593,"lo2":-88.6598,"dx":0.0162,"dy":0.0183,"nx":116,"ny":114,"refTime":"2022-12-08T18:00:00:Z","depth":0,"parameterNumber":3,"parameterNumberName":"V-component_of_WINDS"},"data":[0.0,0.0,0.0,0.0,0.0,0.0,0.0,0.0,0.0,0.0,0.0,0.0,0.0,0.0,0.0,0.0,0.0,0.0,0.0,0.0,0.0,0.0,0.0,0.0,0.0,0.0,0.0,0.0,0.0,0.0,0.0,0.0,0.0,0.0,0.0,0.0,0.0,0.0,0.0,0.0,0.0,0.0,0.0,0.0,0.0,0.0,0.0,0.0,0.0,0.0,0.0,0.0,0.0,0.0,0.0,0.0,0.0,0.0,0.0,0.0,0.0,0.0,0.0,0.0,0.0,0.0,0.0,0.0,0.0,0.0,0.0,0.0,0.0,0.0,0.0,0.0,0.0,0.0,0.0,0.0,0.0,0.0,0.0,0.0,0.0,0.0,0.0,0.0,0.0,0.0,0.0,0.0,0.0,0.0,0.0,0.0,0.0,0.0,0.0,0.0,0.0,0.0,0.0,0.0,0.0,0.0,0.0,0.0,0.0,0.0,0.0,0.0,0.0,0.0,0.0,0.0,0.0,0.0,0.0,0.0,0.0,0.0,0.0,0.0,0.0,0.0,0.0,0.0,0.0,0.0,0.0,0.0,0.0,0.0,0.0,0.0,0.0,0.0,0.0,0.0,0.0,0.0,0.0,0.0,0.0,0.0,0.0,0.0,0.0,0.0,0.0,0.0,0.0,0.0,0.0,0.0,0.0,0.0,0.0,0.0,0.0,0.0,0.0,0.0,0.0,0.0,0.0,0.0,0.0,0.0,0.0,0.0,0.0,0.0,0.0,0.0,0.0,0.0,0.0,0.0,0.0,0.0,0.0,0.0,0.0,0.0,0.0,0.0,0.0,0.0,0.0,0.0,0.0,0.0,0.0,0.0,0.0,0.0,0.0,0.0,0.0,0.0,0.0,0.0,0.0,0.0,0.0,0.0,0.0,0.0,0.0,0.0,0.0,0.0,0.0,0.0,0.0,0.0,0.0,0.0,0.0,0.0,0.0,0.0,0.0,0.0,0.0,0.0,0.0,0.0,0.0,0.0,0.0,0.0,0.0,0.0,0.0,0.0,0.0,0.0,0.0,0.0,0.0,0.0,0.0,0.0,0.0,0.0,0.0,0.0,0.0,0.0,0.0,0.0,0.0,0.0,0.0,0.0,0.0,0.0,0.0,0.0,0.0,0.0,0.0,0.0,0.0,0.0,0.0,0.0,0.0,0.0,0.0,0.0,0.0,0.0,0.0,0.0,0.0,0.0,0.0,0.0,0.0,0.0,0.0,0.0,0.0,0.0,0.0,0.0,0.0,0.0,0.0,0.0,0.0,0.0,0.0,0.0,0.0,0.0,0.0,0.0,0.0,0.0,0.0,0.0,0.0,0.0,0.0,0.0,0.0,0.0,0.0,0.0,0.0,0.0,0.0,0.0,0.0,0.0,0.0,0.0,0.0,0.0,0.0,0.0,0.0,0.0,0.0,0.0,0.0,0.0,0.0,0.0,0.0,0.0,0.0,0.0,0.0,0.0,0.0,0.0,0.0,0.0,0.0,0.0,0.0,0.0,0.0,0.0,0.0,0.0,0.0,0.0,0.0,0.0,0.0,0.0,0.0,0.0,0.0,0.0,0.0,0.0,0.0,0.0,0.0,0.0,0.0,0.0,0.0,0.0,0.0,0.0,0.0,0.0,0.0,0.0,0.0,0.0,0.0,0.0,0.0,0.0,0.0,0.0,0.0,0.0,0.0,0.0,0.0,0.0,0.0,0.0,0.0,0.0,0.0,0.0,0.0,0.0,0.0,0.0,0.0,0.0,0.0,0.0,0.0,0.0,0.0,0.0,0.0,0.0,0.0,0.0,0.0,0.0,0.0,0.0,0.0,0.0,0.0,0.0,0.0,0.0,0.0,0.0,0.0,0.0,0.0,0.0,0.0,0.0,0.0,0.0,0.0,0.0,0.0,0.0,0.0,0.0,0.0,0.0,0.0,0.0,0.0,0.0,0.0,0.0,0.0,0.0,0.0,0.0,0.0,0.0,0.0,0.0,0.0,0.0,0.0,0.0,0.0,0.0,0.0,0.0,0.0,0.0,0.0,0.0,0.0,0.0,0.0,0.0,0.0,0.0,0.0,0.0,0.0,0.0,0.0,0.0,0.0,0.0,0.0,0.0,0.0,0.0,0.0,0.0,0.0,0.0,0.0,0.0,0.0,0.0,0.0,0.0,0.0,0.0,0.0,0.0,0.0,0.0,0.0,0.0,0.0,0.0,0.0,0.0,0.0,0.0,0.0,0.0,0.0,0.0,0.0,0.0,0.0,0.0,0.0,0.0,0.0,0.0,0.0,0.0,0.0,0.0,0.0,0.0,0.0,0.0,0.0,0.0,0.0,0.0,0.0,0.0,0.0,0.0,0.0,0.0,0.0,0.0,0.0,0.0,0.0,0.0,0.0,0.0,0.0,0.0,0.0,0.0,0.0,0.0,0.0,0.0,0.0,0.0,0.0,0.0,0.0,0.0,0.0,0.0,0.0,0.0,0.0,0.0,0.0,0.0,0.0,0.0,0.0,0.0,0.0,0.0,0.0,0.0,0.0,0.0,0.0,0.0,0.0,0.0,0.0,0.0,0.0,0.0,0.0,0.0,0.0,0.0,0.0,0.0,0.0,0.0,0.0,0.0,0.0,0.0,0.0,0.0,0.0,0.0,0.0,0.0,0.0,0.0,0.0,0.0,0.0,0.0,0.0,0.0,0.0,0.0,0.0,0.0,0.0,0.0,0.0,0.0,0.0,0.0,0.0,0.0,0.0,0.0,0.0,0.0,0.0,0.0,0.0,0.0,0.0,0.0,0.0,0.0,0.0,0.0,0.0,0.0,0.0,0.0,0.0,0.0,0.0,0.0,0.0,0.0,0.0,0.0,0.0,0.0,0.0,0.0,0.0,0.0,0.0,0.0,0.0,0.0,0.0,0.0,0.0,0.0,0.0,0.0,0.0,0.0,0.0,0.0,0.0,0.0,0.0,0.0,0.0,0.0,0.0,0.0,0.0,0.0,0.0,0.0,0.0,0.0,0.0,0.0,0.0,0.0,0.0,0.0,0.0,0.0,0.0,0.0,0.0,0.0,0.0,0.0,0.0,0.0,0.0,0.0,0.0,0.0,0.0,0.0,0.0,0.0,0.0,0.0,0.0,0.0,0.0,0.0,0.0,0.0,0.0,0.0,0.0,0.0,0.0,0.0,0.0,0.0,0.0,0.0,0.0,0.0,0.0,0.0,0.0,0.0,0.0,0.0,0.0,0.0,0.0,0.0,0.0,0.0,0.0,0.0,0.0,0.0,0.0,0.0,0.0,0.0,0.0,0.0,0.0,0.0,0.0,0.0,0.0,0.0,0.0,0.0,0.0,0.0,0.0,0.0,0.0,0.0,0.0,0.0,0.0,0.0,0.0,0.0,0.0,0.0,0.0,0.0,0.0,0.0,0.0,0.0,0.0,0.0,0.0,0.0,0.0,0.0,0.0,0.0,0.0,0.0,0.0,0.0,0.0,0.0,0.0,0.0,0.0,0.0,0.0,0.0,0.0,0.0,0.0,0.0,0.0,0.0,0.0,0.0,0.0,0.0,0.0,0.0,0.0,0.0,0.0,0.0,0.0,0.0,0.0,0.0,0.0,0.0,0.0,0.0,0.0,0.0,0.0,0.0,0.0,0.0,0.0,0.0,0.0,0.0,0.0,0.0,0.0,0.0,0.0,0.0,0.0,0.0,0.0,0.0,0.0,0.0,0.0,0.0,0.0,0.0,0.0,0.0,0.0,0.0,0.0,0.0,0.0,0.0,0.0,0.0,0.0,0.0,0.0,0.0,0.0,0.0,0.0,0.0,0.0,0.0,0.0,0.0,0.0,0.0,0.0,0.0,0.0,0.0,0.0,0.0,0.0,0.0,0.0,0.0,0.0,0.0,0.0,0.0,0.0,0.0,0.0,0.0,0.0,0.0,0.0,0.0,0.0,0.0,0.0,0.0,0.0,0.0,0.0,0.0,0.0,0.0,0.0,0.0,0.0,0.0,0.0,0.0,0.0,0.0,0.0,0.0,0.0,0.0,0.0,0.0,0.0,0.0,0.0,0.0,0.0,0.0,0.0,0.0,0.0,0.0,0.0,0.0,0.0,0.0,0.0,0.0,0.0,0.0,0.0,0.0,0.0,0.0,0.0,0.0,0.0,0.0,0.0,0.0,0.0,0.0,0.0,0.0,0.0,0.0,0.0,0.0,0.0,0.0,0.0,0.0,0.0,0.0,0.0,0.0,0.0,0.0,0.0,0.0,0.0,0.0,0.0,0.0,0.0,0.0,0.0,0.0,0.0,0.0,0.0,0.0,0.0,0.0,0.0,0.0,0.0,0.0,0.0,0.0,0.0,0.0,0.0,0.0,0.0,0.0,0.0,0.0,0.0,0.0,0.0,0.0,0.0,0.0,0.0,0.0,0.0,0.0,0.0,0.0,0.0,0.0,0.0,0.0,0.0,0.0,0.0,0.0,0.0,0.0,0.0,0.0,0.0,0.0,0.0,0.0,0.0,0.0,0.0,0.0,0.0,0.0,0.0,0.0,0.0,0.0,0.0,0.0,0.0,0.0,0.0,0.0,0.0,0.0,0.0,0.0,0.0,0.0,0.0,0.0,0.0,0.0,0.0,0.0,0.0,0.0,0.0,0.0,0.0,0.0,0.0,0.0,0.0,0.0,0.0,0.0,0.0,0.0,0.0,0.0,0.0,0.0,0.0,0.0,0.0,0.0,0.0,0.0,0.0,0.0,0.0,0.0,0.0,0.0,0.0,0.0,0.0,0.0,0.0,0.0,0.0,0.0,0.0,0.0,0.0,0.0,0.0,0.0,0.0,0.0,0.0,0.0,0.0,0.0,0.0,0.0,0.0,0.0,0.0,0.0,0.0,0.0,0.0,0.0,0.0,0.0,0.0,0.0,0.0,0.0,0.0,0.0,0.0,0.0,0.0,0.0,0.0,0.0,0.0,0.0,0.0,0.0,0.0,0.0,0.0,0.0,0.0,0.0,0.0,0.0,0.0,0.0,0.0,0.0,0.0,0.0,0.0,0.0,0.0,0.0,0.0,0.0,0.0,0.0,0.0,0.0,0.0,0.0,0.0,0.0,0.0,0.0,0.0,0.0,0.0,0.0,0.0,0.0,0.0,0.0,0.0,0.0,0.0,0.0,0.0,0.0,0.0,0.0,0.0,0.0,0.0,0.0,0.0,0.0,0.0,0.0,0.0,0.0,0.0,0.0,0.0,0.0,0.0,0.0,0.0,0.0,0.0,0.0,0.0,0.0,0.0,0.0,0.0,0.0,0.0,0.0,0.0,0.0,0.0,0.0,0.0,0.0,0.0,0.0,0.0,0.0,0.0,0.0,0.0,0.0,0.0,0.0,0.0,0.0,0.0,0.0,0.0,0.0,0.0,0.0,0.0,0.0,0.0,0.0,0.0,0.0,0.0,0.0,0.0,0.0,0.0,0.0,0.0,0.0,0.0,0.0,0.0,0.0,0.0,0.0,0.0,0.0,0.0,0.0,0.0,0.0,0.0,0.0,0.0,0.0,0.0,0.0,0.0,0.0,0.0,0.0,0.0,0.0,0.0,0.0,0.0,0.0,0.0,0.0,0.0,0.0,0.0,0.0,0.0,0.0,0.0,0.0,0.0,0.0,0.0,0.0,0.0,0.0,0.0,0.0,0.0,0.0,0.0,0.0,0.0,0.0,0.0,0.0,0.0,0.0,0.0,0.0,0.0,0.0,0.0,0.0,0.0,0.0,0.0,0.0,0.0,0.0,0.0,0.0,0.0,0.0,0.0,0.0,0.0,0.0,0.0,0.0,0.0,0.0,0.0,0.0,0.0,0.0,0.0,0.0,0.0,0.0,0.0,0.0,0.0,0.0,0.0,0.0,0.0,0.0,0.0,0.0,0.0,0.0,0.0,0.0,0.0,0.0,0.0,0.0,0.0,0.0,0.0,0.0,0.0,0.0,0.0,0.0,0.0,0.0,0.0,0.0,0.0,0.0,0.0,0.0,0.0,0.0,0.0,0.0,0.0,0.0,0.0,0.0,0.0,0.0,0.0,0.0,0.0,0.0,0.0,0.0,0.7807,0.6879,0.0,0.0,0.0,0.0,0.0,0.0,0.0,0.0,0.0,0.0,0.0,0.0,0.0,0.0,0.0,0.0,0.0,0.0,0.0,0.0,0.0,0.0,0.0,0.4386,0.4448,0.4125,0.4402,0.0,0.0,0.0,0.0,0.0,0.0,0.0,0.0,0.0,0.5183,0.5623,0.5863,0.6361,0.7078,0.7225,0.7086,0.6664,0.0,0.0,0.0,0.0,0.0,0.0,0.0,0.0,0.0,0.0,0.0,0.0,0.0,0.0,0.0,0.0,0.0,0.0,0.0,0.0,0.0,0.0,0.0,0.0,0.0,0.0,0.0,0.0,0.0,0.0,0.0,0.0,0.0,0.0,0.0,0.0,0.0,0.0,0.0,0.0,0.0,0.0,0.0,0.0,0.0,0.0,0.0,0.0,0.0,0.0,0.0,0.0,0.0,0.0,0.0,0.0,0.0,0.0,0.0,0.0,0.0,0.0,0.0,0.0,0.0,0.0,0.0,0.0,0.0,0.0,0.8573,0.7721,0.0,0.0,0.0,0.0,0.0,0.0,0.0,0.0,0.0,0.0,0.0,0.0,0.0,0.0,0.0,0.0,0.0,0.0,0.0,0.0,0.0,0.4256,0.4241,0.483,0.5014,0.4486,0.493,0.4998,0.4486,0.4332,0.0,0.0,0.0,0.0,0.4375,0.5304,0.5756,0.5675,0.6538,0.7295,0.7962,0.8697,0.8419,0.7294,0.7098,0.0,0.0,0.0,0.0,0.0,0.0,0.0,0.0,0.0,0.0,0.0,0.0,0.0,0.0,0.0,0.0,0.0,0.0,0.0,0.0,0.0,0.0,0.0,0.0,0.0,0.0,0.0,0.0,0.0,0.0,0.0,0.0,0.0,0.0,0.0,0.0,0.0,0.0,0.0,0.0,0.0,0.0,0.0,0.0,0.0,0.0,0.0,0.0,0.0,0.0,0.0,0.0,0.0,0.0,0.0,0.0,0.0,0.0,0.0,0.0,0.0,0.0,0.0,0.9604,0.9657,0.9738,0.9971,1.003,0.9887,0.9478,0.8868,0.8109,0.768,0.0,0.0,0.0,0.0,0.0,0.0,0.0,0.0,0.0,0.0,0.0,0.0,0.0,0.0,0.0,0.0,0.0,0.0,0.0,0.4922,0.4799,0.5337,0.5741,0.5829,0.5762,0.5747,0.5837,0.5299,0.0,0.0,0.0,0.5056,0.5064,0.5761,0.648,0.721,0.8533,0.9229,0.9357,1.004,1.0252,1.0008,0.8274,0.7577,0.7623,0.0,0.0,0.0,0.0,0.0,0.0,0.0,0.0,0.0,0.0,0.0,0.0,0.0,0.0,0.0,0.0,0.0,0.0,0.0,0.0,0.0,0.0,0.0,0.0,0.0,0.0,0.0,0.0,0.0,0.0,0.0,0.0,0.0,0.0,0.0,0.0,0.0,0.0,0.0,0.0,0.0,0.6279,0.6227,0.0,0.0,0.0,0.0,0.0,0.0,0.0,0.0,0.0,0.0,0.0,0.0,0.0,0.8995,0.9811,0.9434,0.9242,0.926,0.9779,1.0261,1.0745,1.1346,1.1609,1.1556,1.1102,0.0,0.941,0.8955,0.0,0.0,0.0,0.0,0.0,0.0,0.0,0.0,0.0,0.0,0.0,0.0,0.0,0.0,0.0,0.0,0.0,0.0,0.0,0.0,0.0,0.5955,0.6287,0.5957,0.6228,0.6322,0.6126,0.5717,0.0,0.0,0.5737,0.5765,0.5767,0.6463,0.7398,0.8575,0.9554,1.0064,1.0064,1.0351,1.0479,1.0447,0.9567,0.9098,0.8902,0.7761,0.0,0.0,0.0,0.0,0.0,0.0,0.0,0.0,0.0,0.0,0.0,0.0,0.0,0.0,0.0,0.0,0.0,0.0,0.0,0.0,0.0,0.0,0.0,0.0,0.0,0.0,0.0,0.0,0.0,0.0,0.0,0.0,0.0,0.0,0.0,0.0,0.0,0.0,0.0,0.6811,0.7002,0.7238,0.7356,0.7465,0.0,0.0,0.0,0.0,0.0,0.0,0.0,0.0,0.0,0.9257,0.9393,0.9785,1.0463,1.0554,1.0739,1.1058,1.1308,1.1556,1.1815,1.2182,1.236,1.2346,1.2213,1.1918,1.1385,0.9979,0.9449,0.9537,0.0,0.0,0.0,0.0,0.9567,0.9579,0.0,0.0,0.0,0.0,0.0,0.0,0.0,0.0,0.0,0.0,0.0,0.0,0.578,0.6546,0.6827,0.63,0.6764,0.6917,0.6534,0.6239,0.6157,0.6347,0.6369,0.64,0.6427,0.7316,0.8395,0.9623,1.0473,1.0898,1.0931,1.1278,1.1451,1.1435,1.1244,1.0752,0.9985,0.8788,0.8362,0.8438,0.0,0.0,0.0,0.0,0.0,0.0,0.0,0.0,0.0,0.0,0.0,0.0,0.0,0.0,0.0,0.0,0.0,0.0,0.0,0.0,0.0,0.0,0.0,0.0,0.0,0.0,0.0,0.0,0.0,0.0,0.0,0.0,0.0,0.0,0.0,0.0,0.0,0.776,0.7903,0.8267,0.8482,0.8648,0.0,0.0,0.0,0.0,0.0,0.0,0.9031,0.9323,0.9636,0.9961,1.0237,1.0707,1.1328,1.1749,1.2195,1.268,1.2977,1.3051,1.293,1.3068,1.3128,1.3101,1.2949,1.2968,1.2928,1.1102,1.0421,1.0514,1.0497,1.0583,1.0676,1.0676,1.062,1.0547,0.0,0.0,0.0,0.0,0.0,0.0,0.0,0.0,0.0,0.0,0.0,0.6485,0.6447,0.7012,0.7412,0.7503,0.7547,0.7577,0.7621,0.713,0.6825,0.6783,0.6832,0.6921,0.7052,0.8398,0.9484,1.025,1.1558,1.2234,1.234,1.3659,1.4295,1.4263,1.3559,1.2246,1.051,0.9798,0.9666,0.9777,0.8332,0.0,0.0,0.0,0.0,0.0,0.0,0.0,0.0,0.0,0.0,0.0,0.0,0.0,0.0,0.0,0.0,0.0,0.0,0.0,0.0,0.0,0.0,0.0,0.0,0.0,0.0,0.0,0.0,0.0,0.0,0.0,0.0,0.0,0.0,0.0,0.0,0.0,0.0,0.8877,0.9213,0.0,0.0,0.0,0.0,0.9339,0.9233,0.9413,0.9919,1.0002,1.0596,1.173,1.1543,1.179,1.2526,1.2777,1.2988,1.3085,1.4219,1.4564,1.4126,1.4207,1.4217,1.4166,1.3265,1.3159,1.3477,1.2498,1.2129,1.2139,1.1703,1.1599,1.1721,1.1721,1.1721,1.1721,0.0,0.0,0.0,0.3579,0.3555,0.3682,0.4116,0.4377,0.4802,0.5561,0.617,0.6772,0.7398,0.7856,0.8254,0.861,0.8342,0.8244,0.8388,0.7739,0.74,0.7495,0.7522,0.7775,0.8258,0.976,1.0816,1.1331,1.2427,1.319,1.3718,1.4202,1.4437,1.4421,1.4148,1.3678,1.2942,1.1464,1.0428,0.9769,0.9378,0.8704,0.0,0.0,0.0,0.0,0.0,0.0,0.0,0.0,0.0,0.0,0.0,0.0,0.0,0.0,0.0,0.0,0.0,0.0,0.0,0.0,0.0,0.0,0.0,0.0,0.0,0.0,0.0,0.0,0.0,0.0,0.0,0.0,0.0,0.0,0.0,0.0,0.0,0.9304,0.9624,0.0,0.9964,1.0164,1.0264,1.017,1.044,1.0659,1.0761,1.1122,1.1695,1.251,1.2864,1.3342,1.4025,1.4525,1.4796,1.4857,1.5269,1.5396,1.5236,1.4888,1.4751,1.4725,1.4488,1.4462,1.466,1.4771,1.399,1.2668,1.2493,1.251,1.2646,1.2646,1.2721,1.2844,0.0,0.0,0.0,0.3509,0.3501,0.3719,0.4388,0.4675,0.5154,0.6174,0.6589,0.715,0.8038,0.8376,0.8717,0.9202,0.9068,0.8982,0.8964,0.8603,0.8434,0.8544,0.8575,0.8924,0.9621,1.0931,1.186,1.236,1.3428,1.4194,1.4723,1.4941,1.5034,1.5034,1.5034,1.4925,1.4638,1.3339,1.1973,1.0653,1.0312,0.9492,0.8488,0.0,0.0,0.0,0.0,0.0,0.0,0.0,0.0,0.0,0.0,0.0,0.0,0.0,0.0,0.0,0.0,0.0,0.0,0.0,0.0,0.0,0.0,0.0,0.0,0.0,0.0,0.0,0.0,0.0,0.0,0.0,0.0,0.0,0.0,0.9295,0.9667,1.0017,1.0521,1.0825,1.0863,1.1121,1.1225,1.1069,1.1587,1.1955,1.2079,1.2598,1.316,1.3749,1.4222,1.4651,1.5033,1.5663,1.6004,1.6017,1.6202,1.6204,1.5997,1.5491,1.5181,1.5051,1.512,1.5197,1.5234,1.5795,1.521,1.3976,1.4084,1.419,1.4295,1.4354,1.4486,1.4616,0.0,0.0,0.35,0.3493,0.3501,0.3733,0.4416,0.5031,0.5617,0.6255,0.695,0.7663,0.8348,0.8539,0.883,0.9298,0.9706,0.9747,0.9345,0.9695,0.9863,0.9809,0.9947,1.0373,1.109,1.1851,1.2602,1.3334,1.46,1.5247,1.5345,1.6006,1.6301,1.6301,1.6301,1.5929,1.5335,1.5299,1.428,1.2549,1.1133,1.0266,0.9822,0.0,0.0,0.0,0.0,0.0,0.0,0.0,0.0,0.0,0.0,0.0,0.0,0.0,0.0,0.0,0.0,0.0,0.0,0.0,0.0,0.0,0.0,0.0,0.0,0.0,0.0,0.0,0.0,0.0,0.0,0.0,0.0,0.0,0.8554,1.0091,1.1141,1.1047,1.1843,1.2409,1.2423,1.2219,1.2099,1.2082,1.2651,1.3226,1.3814,1.4337,1.4899,1.55,1.5526,1.5526,1.5539,1.6127,1.6415,1.6428,1.695,1.6947,1.6497,1.6039,1.557,1.5149,1.5128,1.5172,1.5248,1.5349,1.5676,1.6122,1.6451,1.6564,1.66,1.6809,1.6892,1.6947,0.3424,0.3424,0.3441,0.3487,0.3495,0.3881,0.4979,0.5291,0.5753,0.6741,0.7185,0.7751,0.8671,0.9053,0.9537,1.0249,1.0453,1.0352,0.9898,0.9908,0.9809,0.9577,1.0088,1.0652,1.1284,1.2355,1.3413,1.4394,1.4944,1.5468,1.596,1.6157,1.625,1.625,1.625,1.6142,1.5926,1.5422,1.4974,1.4413,1.2637,1.1294,1.0316,0.0,0.0,0.0,0.0,0.0,0.0,0.0,0.0,0.0,0.0,0.0,0.0,0.0,0.0,0.0,0.0,0.0,0.0,0.0,0.0,0.0,0.0,0.0,0.0,0.0,0.0,0.0,0.0,0.0,0.0,0.0,0.907,0.9819,1.014,1.0505,1.1042,1.1777,1.2351,1.2816,1.3168,1.3583,1.3964,1.4307,1.4618,1.4823,1.487,1.5136,1.5526,1.6127,1.6153,1.6336,1.6728,1.6898,1.6811,1.6477,1.6954,1.6947,1.6509,1.6358,1.6241,1.6101,1.5867,1.5763,1.5805,1.5852,1.6115,1.6365,1.5991,1.6064,1.6387,1.6458,1.6564,1.6705,0.3432,0.3424,0.3419,0.3495,0.35,0.3929,0.5212,0.5374,0.5781,0.694,0.728,0.7821,0.891,0.9313,0.9865,1.08,1.0994,1.0907,1.0529,1.0517,1.0573,1.0655,1.1183,1.1696,1.2149,1.3247,1.4142,1.4764,1.5076,1.5505,1.5996,1.5826,1.5826,1.5996,1.5968,1.6039,1.6163,1.5779,1.5468,1.5165,1.4062,1.2686,1.1235,1.102,1.0543,0.9962,0.99,0.9614,0.9167,0.8499,0.0,0.0,0.0,0.0,0.0,0.0,0.0,0.0,0.0,0.0,0.0,0.0,0.0,0.0,0.0,0.0,0.0,0.0,0.0,0.0,0.0,0.0,0.0,0.0,0.9888,1.086,1.1744,1.1847,1.2053,1.2659,1.3369,1.3912,1.4197,1.4359,1.4676,1.5146,1.5156,1.5164,1.5295,1.5389,1.5611,1.599,1.599,1.6141,1.6441,1.6454,1.6312,1.6064,1.6355,1.6398,1.6151,1.638,1.638,1.6194,1.6423,1.6423,1.6293,1.6194,1.6324,1.6574,0.0,0.0,0.0,0.0,1.7237,1.7421,0.3484,0.3432,0.3419,0.3485,0.3503,0.3929,0.5186,0.5336,0.5728,0.6935,0.7262,0.7793,0.8921,0.9309,0.9876,1.0865,1.1236,1.131,1.1155,1.1256,1.1606,1.224,1.255,1.2878,1.3254,1.417,1.4686,1.476,1.5125,1.5433,1.5667,1.527,1.5315,1.5652,1.5594,1.5754,1.6095,1.6095,1.5759,1.5261,1.5117,1.4067,1.2458,1.1851,1.1116,1.043,1.0343,1.0127,0.9829,0.9389,0.0,0.0,0.0,0.0,0.0,0.0,0.0,0.0,0.0,0.0,0.0,0.0,0.0,0.0,0.0,0.0,0.0,0.0,0.0,0.0,0.0,0.0,0.0,0.0,1.0789,1.161,1.3053,1.3465,1.3649,1.3654,1.4558,1.5184,1.5171,1.4745,1.4678,1.5143,1.488,1.4879,1.5271,1.5362,0.0,0.0,0.0,1.5389,1.5389,1.5389,1.5389,1.5332,1.5511,1.5543,1.5499,1.6139,1.6194,1.592,1.671,1.6892,1.6582,1.6219,1.6262,1.6582,1.6509,1.685,1.7434,1.7909,1.8242,1.8439,0.3424,0.3403,0.3424,0.3479,0.35,0.3907,0.5136,0.5311,0.5714,0.6863,0.7101,0.7405,0.8081,0.8813,0.9471,0.9999,1.0889,1.1378,1.1333,1.1024,1.1208,1.2021,1.2124,1.2649,1.3757,1.4126,1.4586,1.5184,1.5256,1.5329,1.5389,1.5299,1.5285,1.5374,1.5344,1.5404,1.5477,1.5477,1.5506,1.5542,1.4711,1.4184,1.3899,1.3713,1.2901,1.1858,1.1622,1.084,0.9851,0.9558,0.9409,0.9274,0.8731,0.8435,0.0,0.0,0.0,0.0,0.0,0.0,0.0,0.0,0.0,0.0,0.0,0.0,0.0,0.0,0.0,0.0,0.0,0.0,0.0,1.062,1.1715,1.2608,1.2928,1.3782,1.4434,1.4613,1.4854,1.504,1.502,1.5028,1.5085,1.5139,1.5189,1.5236,1.5292,1.5374,1.5389,1.5389,1.5389,1.5389,1.5389,1.5389,1.5209,1.4835,1.5242,0.0,1.488,1.5499,1.5952,1.6182,1.6095,1.6008,1.592,1.5501,1.5244,1.5187,1.612,1.6765,1.7131,1.7434,1.7733,1.8043,0.3403,0.3403,0.3424,0.3484,0.3475,0.3875,0.5111,0.5274,0.5674,0.6857,0.7036,0.725,0.7787,0.8276,0.8756,0.9271,1.0096,1.0734,1.102,1.0825,1.1162,1.221,1.2423,1.2983,1.4076,1.4363,1.4669,1.5058,1.4873,1.4904,1.5027,1.4797,1.4752,1.4937,1.4876,1.4968,1.5195,1.5195,1.5315,1.5463,1.495,1.4786,1.4719,1.3983,1.341,1.294,1.2555,1.1777,1.0872,1.0342,0.9926,0.9562,0.9062,0.8667,0.8354,0.0,0.0,0.0,0.0,0.0,0.0,0.0,0.0,0.0,0.0,0.0,0.0,0.0,0.0,0.9629,0.973,0.0,1.1445,1.1815,1.2487,1.3141,1.3679,1.4052,1.4394,1.4728,1.4797,1.4837,1.4836,1.4695,1.4676,1.488,1.4525,1.4422,1.4617,1.4479,1.4376,1.4376,1.4479,1.4479,1.4479,1.4479,1.4387,1.4165,1.4444,1.449,1.4258,1.488,1.5332,1.5611,1.5688,1.5732,1.5744,1.5277,1.488,1.4605,1.5322,1.5976,1.6582,1.7047,1.7393,1.7706,0.3403,0.3403,0.3424,0.3475,0.3432,0.3782,0.494,0.5157,0.5581,0.6664,0.6921,0.7163,0.7574,0.7774,0.8131,0.8745,0.9398,0.9981,1.0478,1.0626,1.1222,1.244,1.2747,1.3344,1.4273,1.4556,1.4714,1.4714,1.4429,1.4429,1.4683,1.4195,1.4181,1.447,1.4374,1.4533,1.4921,1.4921,1.5013,1.5209,1.5149,1.5165,1.5168,1.377,1.3402,1.3572,1.3075,1.245,1.1721,1.1014,1.0416,0.9891,0.946,0.8935,0.8503,0.8466,0.8114,0.0,0.0,0.0,0.0,0.0,0.0,0.0,0.0,0.8631,0.9073,0.8991,0.9821,1.0522,1.033,1.158,1.2693,1.2851,1.3061,1.3478,1.4244,1.4004,1.3884,1.4279,1.4553,1.4663,1.456,1.4201,1.4107,1.4376,1.3674,1.3399,1.3826,1.3552,1.342,1.342,1.3515,1.3621,1.3621,1.3621,1.3621,1.3621,1.3716,1.3763,1.3773,1.4305,1.4617,1.4858,1.5287,1.5511,1.5567,1.5142,1.4743,1.443,1.4569,1.5096,1.5812,1.6484,1.6909,1.7173,0.3403,0.3403,0.3403,0.3403,0.3403,0.3624,0.43,0.4859,0.5424,0.6038,0.6621,0.701,0.6999,0.7482,0.8074,0.8745,0.9354,0.9761,0.9895,1.0349,1.1184,1.244,1.2523,1.3109,1.4273,1.4332,1.4365,1.4365,1.4268,1.4235,1.4268,1.4065,1.4019,1.4052,1.4052,1.413,1.4287,1.4287,1.4511,1.4825,1.4543,1.478,1.5152,1.3887,1.3375,1.3324,1.3074,1.2232,1.116,1.0828,1.0664,1.0515,0.9918,0.9674,0.9546,0.9136,0.8969,0.8933,0.8991,0.8855,0.8605,0.818,0.8314,0.8571,0.0,0.9255,0.9881,1.0222,1.0776,1.1314,1.1712,1.2335,1.277,1.2715,1.3413,1.3858,1.3586,1.3407,1.328,1.3365,1.4157,1.4525,1.4118,1.4025,1.3826,1.3399,1.3256,1.3218,1.3314,1.3362,1.342,1.342,1.3515,1.3621,1.3621,1.3621,1.3621,1.3621,1.3621,1.3621,1.3621,1.381,1.4118,1.4549,1.4846,1.4994,1.4994,1.4605,1.4477,1.4373,1.4419,1.4605,1.4926,1.5534,1.5952,1.6287,0.3403,0.3403,0.3403,0.3403,0.3403,0.3611,0.4211,0.4509,0.4992,0.588,0.6234,0.654,0.6868,0.7135,0.7534,0.8154,0.8452,0.8932,0.9693,0.9939,1.061,1.1804,1.1912,1.2465,1.3633,1.3691,1.3853,1.4144,1.4111,1.4078,1.4078,1.3993,1.3927,1.3927,1.3927,1.398,1.4078,1.417,1.4332,1.4493,1.4365,1.4273,1.4128,1.3591,1.2909,1.2288,1.2595,1.2087,0.0,1.1195,1.0915,1.0543,1.0278,0.9864,0.9419,0.9316,0.892,0.8511,0.8448,0.8584,0.8657,0.838,0.8863,0.9449,0.9598,1.0128,1.0636,1.0821,1.1207,1.1618,1.1885,1.2335,1.2765,1.3037,1.3151,1.3236,1.3279,1.3022,1.2803,1.2803,1.317,1.3314,1.3132,1.3132,1.3084,1.29,1.29,1.2958,1.3007,1.3152,1.3248,1.3248,1.3324,1.3372,1.3372,1.3372,1.342,1.3467,1.3467,1.3515,1.3621,1.3668,1.3847,1.4118,1.4269,1.4408,1.449,1.4362,1.4326,1.4373,1.4373,1.4477,1.4605,1.5175,1.5579,1.5876,0.3403,0.3403,0.3403,0.3403,0.3403,0.3546,0.3989,0.4198,0.4602,0.5423,0.5671,0.5999,0.659,0.6655,0.6894,0.7508,0.7688,0.8174,0.9119,0.9493,1.012,1.1148,1.1388,1.1951,1.2924,1.3011,1.3199,1.352,1.352,1.3581,1.3728,1.3657,1.3717,1.3888,1.3888,1.3927,1.4019,1.3982,1.3992,1.4042,1.3866,1.351,1.3104,1.2912,1.2182,1.1294,1.1993,1.1764,1.1148,1.1065,1.0761,1.036,1.0202,0.9773,0.9363,0.9445,0.9126,0.8703,0.8549,0.8834,0.9186,0.9015,0.9573,1.0214,1.0468,1.0848,1.1188,1.1355,1.1514,1.1715,1.1788,1.2265,1.269,1.2899,1.2812,1.2762,1.2938,1.2608,1.2382,1.2382,1.2382,1.2382,1.2382,1.248,1.2529,1.2627,1.2676,1.2735,1.2783,1.2988,1.3085,1.3036,1.3142,1.3218,1.3218,1.3218,1.3266,1.3372,1.3362,1.3467,1.3573,1.3563,1.3668,1.3763,1.3868,1.401,1.4093,1.4176,1.4269,1.4326,1.4384,1.4373,1.4466,1.4915,1.513,1.5322,0.3403,0.3403,0.3403,0.3403,0.3403,0.3416,0.3429,0.3924,0.4315,0.4354,0.486,0.5437,0.5971,0.6023,0.6273,0.6881,0.7397,0.7756,0.7851,0.8941,0.9914,1.0588,1.1135,1.1696,1.2297,1.2339,1.2352,1.2337,1.229,1.2509,1.3037,1.2975,1.3258,1.3821,1.3888,1.3927,1.396,1.3521,1.3385,1.3361,1.2723,1.2438,1.2357,1.171,1.1069,1.063,1.1359,1.1145,1.0456,0.9999,0.9973,0.9995,0.9433,0.9441,0.9688,0.9688,1.0005,1.0298,1.0094,1.0374,1.0689,1.0493,1.0464,1.0612,1.117,1.1285,1.1434,1.1964,1.1813,1.1616,1.1605,1.2164,1.2436,1.1933,1.2487,1.2812,1.2363,1.2175,1.2126,1.2126,1.2126,1.2126,1.2126,1.2332,1.248,1.2529,1.2627,1.2627,1.2529,1.2881,1.3036,1.2929,1.3084,1.3218,1.3218,1.3218,1.3218,1.3218,1.3314,1.342,1.3409,1.3515,1.3621,1.361,1.3773,1.3821,1.3821,1.4082,1.4222,1.4222,1.4326,1.4373,1.4373,1.4419,1.4419,1.4466,0.3403,0.3403,0.3403,0.3403,0.3403,0.3403,0.3403,0.3572,0.3846,0.425,0.4821,0.0,0.0,0.0,0.0,0.0,0.6822,0.7336,0.7716,0.8109,0.8628,0.9254,0.9867,1.0436,1.0965,1.1401,1.1785,1.2095,1.2066,1.217,1.2354,1.2324,1.2338,1.2334,1.2471,1.2396,1.2221,1.2312,1.2367,1.2384,1.2173,1.1635,1.0952,1.0522,0.9752,0.895,0.0,0.9205,0.9002,0.8752,0.8912,0.9206,0.9009,0.9092,0.9345,0.9573,0.9811,0.998,0.9917,1.0233,1.0575,1.0426,1.0583,1.0959,1.1494,1.1635,1.1644,1.1766,1.1768,1.1715,1.1391,1.1623,1.1826,1.1772,1.1818,1.1861,1.1891,1.1728,1.1578,1.1578,1.1578,1.1628,1.1828,1.2076,1.2274,1.2382,1.2431,1.2421,1.248,1.2627,1.2676,1.2627,1.2813,1.2861,1.2861,1.2958,1.3065,1.3104,1.3228,1.3314,1.342,1.3467,1.3515,1.3621,1.3668,1.3716,1.3821,1.3905,1.4046,1.4222,1.4233,1.4326,1.4373,1.4373,1.4373,1.4419,0.3403,0.3403,0.3403,0.3403,0.3403,0.0,0.0,0.0,0.0,0.0,0.0,0.0,0.0,0.0,0.0,0.0,0.0,0.6825,0.7384,0.7588,0.7874,0.8266,0.8904,0.9389,0.9687,1.0101,1.0467,1.0795,1.0795,1.0873,1.1001,1.118,1.1232,1.1232,1.1492,1.1407,1.1048,1.1121,1.136,1.1623,1.085,1.0441,1.021,0.9442,0.8576,0.0,0.7747,0.7625,0.7522,0.774,0.8061,0.837,0.8347,0.8722,0.9186,0.931,0.964,0.997,0.9869,1.0186,1.0516,1.0417,1.0623,1.0943,1.1282,1.1367,1.1367,1.1244,1.126,1.1164,1.0875,1.0878,1.101,1.1193,1.1195,1.1277,1.1487,1.144,1.1427,1.1318,1.1158,1.1158,1.1519,1.156,1.176,1.2175,1.2274,1.2323,1.2382,1.2431,1.248,1.2421,1.2578,1.2627,1.2676,1.2783,1.2929,1.3085,1.3152,1.3228,1.3314,1.3362,1.3467,1.3515,1.3563,1.3668,1.3716,1.3773,1.3905,1.4093,1.4176,1.4269,1.4326,1.4373,1.4373,1.443,0.3403,0.3403,0.3403,0.0,0.0,0.0,0.0,0.0,0.0,0.0,0.0,0.0,0.0,0.0,0.0,0.0,0.0,0.0,0.6868,0.7384,0.7666,0.7666,0.824,0.8552,0.8552,0.8592,0.8605,0.8605,0.8605,0.88,0.9179,0.9616,1.0015,1.0383,1.089,1.087,1.0405,0.9914,1.0247,1.0927,0.8898,0.8888,0.996,0.8488,0.7599,0.7098,0.6923,0.6479,0.6114,0.6953,0.7381,0.7554,0.7497,0.8297,0.9228,0.8993,0.9578,1.0215,0.9975,1.0223,1.0544,1.0544,1.0544,1.0544,1.0582,1.0562,1.0552,1.0542,1.0263,1.005,1.0021,0.9921,0.9962,1.0191,1.0669,1.1001,1.1045,1.1381,1.1519,1.1267,1.0838,1.0728,1.1217,1.0838,1.0981,1.1968,1.2175,1.2224,1.2126,1.2323,1.2431,1.2274,1.2431,1.2529,1.2676,1.2676,1.2832,1.3085,1.3085,1.3113,1.3218,1.3314,1.3409,1.342,1.3515,1.3621,1.3621,1.3716,1.3773,1.3763,1.4093,1.4176,1.4176,1.4326,1.4373,1.4373,0.0,0.0,0.0,0.0,0.0,0.0,0.0,0.0,0.0,0.0,0.0,0.0,0.0,0.0,0.0,0.0,0.0,0.0,0.6927,0.7052,0.7131,0.7174,0.7658,0.7959,0.8003,0.8451,0.8675,0.8669,0.8669,0.8665,0.8615,0.8711,0.8624,0.8334,0.8476,0.8354,0.8055,0.8134,0.8311,0.8488,0.7956,0.7745,0.7711,0.7119,0.6569,0.6159,0.6102,0.5986,0.5878,0.6106,0.655,0.7042,0.7279,0.7973,0.8766,0.9091,0.9589,0.9979,0.9848,0.9896,1.0021,1.0021,0.9903,0.9913,1.0467,1.0133,0.9684,0.9656,0.9469,0.9211,0.8783,0.9078,0.9406,0.9546,0.9594,0.98,1.0421,1.0366,1.0277,1.0174,1.0072,1.0123,1.0431,1.0372,1.0626,1.1418,1.1728,1.1927,1.2076,1.2175,1.2175,1.2175,1.2274,1.2382,1.2382,1.2578,1.2725,1.2783,1.2881,1.3027,1.3113,1.3228,1.3314,1.342,1.3515,1.3621,1.3621,1.3621,1.3467,1.3266,1.3705,1.38,1.3658,1.4082,1.4326,1.4373,0.0,0.0,0.0,0.0,0.0,0.0,0.0,0.0,0.0,0.0,0.0,0.0,0.0,0.0,0.0,0.0,0.0,0.0,0.0,0.6822,0.6967,0.6997,0.724,0.7411,0.746,0.7777,0.7955,0.7955,0.7955,0.7841,0.7611,0.7731,0.7594,0.7243,0.7383,0.7237,0.6914,0.7046,0.735,0.0,0.0,0.7021,0.7248,0.6379,0.5899,0.5662,0.5595,0.5576,0.5589,0.5722,0.6177,0.6793,0.7337,0.8138,0.893,0.9244,0.9643,0.9961,0.9778,0.9677,0.9588,0.9588,0.9439,0.9363,0.961,0.9385,0.9032,0.8857,0.8812,0.8721,0.8271,0.8451,0.8692,0.8932,0.8831,0.9067,0.9902,0.974,0.9606,0.9799,0.9503,0.9406,0.971,0.9607,0.9814,1.0498,1.1065,1.1528,1.1877,1.1819,1.1877,1.2076,1.1927,1.1877,1.1927,1.2372,1.2529,1.2332,1.2431,1.2529,1.2676,1.2745,1.2977,1.3314,1.3467,1.3573,1.3621,1.3621,1.3314,1.2967,1.3314,1.3208,1.2957,1.36,1.3894,1.3988,0.0,0.0,0.0,0.0,0.0,0.0,0.0,0.0,0.0,0.5423,0.5292,0.52,0.52,0.52,0.0,0.0,0.0,0.0,0.0,0.0,0.6798,0.6894,0.6884,0.691,0.7013,0.702,0.702,0.7013,0.6997,0.6833,0.6577,0.6775,0.6805,0.6678,0.6914,0.6782,0.641,0.641,0.6881,0.7527,0.6258,0.6498,0.7422,0.0,0.5473,0.5454,0.5349,0.5291,0.5333,0.567,0.6113,0.6696,0.746,0.8395,0.9219,0.9322,0.9677,0.998,0.9778,0.9502,0.9297,0.935,0.9088,0.8813,0.8642,0.8479,0.8306,0.8078,0.8072,0.8066,0.7923,0.7774,0.7816,0.8168,0.8236,0.8503,0.9337,0.9247,0.9255,0.9622,0.904,0.8732,0.9106,0.8784,0.889,0.951,1.019,1.0863,1.1418,1.1318,1.1469,1.1977,1.1469,1.1267,1.1427,1.1968,1.2067,1.1769,1.1769,1.1868,1.1968,1.2058,1.2442,1.3025,1.3122,1.3266,1.3372,1.3372,1.3074,1.2618,1.2822,1.257,1.2316,1.3064,1.3409,1.36,0.0,0.0,0.0,0.0,0.0,0.0,0.0,0.0,0.0,0.0,0.5792,0.52,0.0,0.0,0.0,0.0,0.0,0.0,0.0,0.0,0.0,0.6315,0.6286,0.6514,0.7066,0.7082,0.7082,0.7079,0.6921,0.6706,0.6436,0.6307,0.6153,0.5982,0.6032,0.6002,0.5914,0.5914,0.6013,0.6125,0.5721,0.5697,0.5876,0.5479,0.0,0.0,0.531,0.5233,0.5254,0.5953,0.6271,0.6473,0.7111,0.7922,0.8711,0.9041,0.9468,0.9787,0.9828,0.9462,0.9174,0.9652,0.8886,0.8175,0.8836,0.7861,0.6863,0.7138,0.6628,0.6117,0.6198,0.6512,0.6727,0.6673,0.7317,0.7906,0.8172,0.8535,0.8804,0.8797,0.8672,0.8626,0.8679,0.8626,0.8784,0.9263,0.9197,0.9503,1.0277,1.0576,1.0939,1.1427,1.0838,1.0694,1.1023,1.0939,1.0939,1.1006,1.1082,1.1233,1.136,1.1484,1.1683,1.19,1.2021,1.2169,1.2295,1.2295,1.1999,1.161,1.1999,1.2187,1.2267,1.2967,1.36,1.4082,0.0,0.0,0.0,0.0,0.0,0.0,0.0,0.6707,0.6908,0.6937,0.6479,0.6123,0.608,0.608,0.6067,0.0,0.0,0.0,0.0,0.0,0.0,0.0,0.0,0.0,0.6626,0.6642,0.6729,0.6894,0.0,0.6621,0.6348,0.6141,0.5998,0.5911,0.5819,0.5793,0.5793,0.5793,0.5793,0.5774,0.5587,0.5492,0.5473,0.0,0.0,0.0,0.5039,0.5,0.5035,0.5624,0.5979,0.6356,0.7513,0.8176,0.8618,0.9244,0.9566,0.972,0.979,0.9479,0.9212,0.9526,0.8853,0.8156,0.8422,0.7531,0.6665,0.6672,0.6216,0.5802,0.5793,0.5915,0.6112,0.6318,0.6447,0.6822,0.7779,0.7804,0.7869,0.8351,0.8279,0.8215,0.8215,0.8215,0.8315,0.8533,0.8421,0.8778,0.9762,1.0115,1.0269,1.019,1.0269,1.0218,1.0138,1.0372,1.0415,1.0285,1.0423,1.0568,1.0685,1.0838,1.1141,1.1601,1.1692,1.1792,1.2008,1.2008,1.171,1.1368,1.181,1.19,1.1841,1.2822,1.3256,1.3447,0.0,0.0,0.0,0.0,0.0,0.0,0.0,0.6924,0.6937,0.7,0.7,0.6984,0.6924,0.6924,0.6756,0.0,0.0,0.0,0.0,0.0,0.0,0.0,0.0,0.0,0.614,0.0,0.0,0.6702,0.6608,0.0,0.0,0.0,0.0,0.0,0.5893,0.5837,0.583,0.583,0.5811,0.0,0.0,0.5454,0.5435,0.0,0.0,0.0,0.0,0.4793,0.4867,0.526,0.5671,0.6248,0.7748,0.8351,0.8645,0.9373,0.9649,0.9741,0.9824,0.9569,0.9319,0.9368,0.8849,0.8202,0.7826,0.719,0.6584,0.6242,0.5936,0.5691,0.5595,0.5511,0.5608,0.6079,0.5854,0.6056,0.7386,0.7151,0.7163,0.7978,0.7945,0.7835,0.7895,0.7901,0.7901,0.7901,0.7901,0.8315,0.9354,0.9555,0.951,0.9211,0.9607,0.9658,0.9309,0.9814,0.9909,0.9614,0.971,0.9865,1.0012,1.0138,1.0549,1.12,1.12,1.1351,1.1551,1.1551,1.136,1.1124,1.151,1.1519,1.1418,1.2482,1.2774,1.2716,0.0,0.0,0.0,0.0,0.0,0.0,0.0,0.6997,0.7,0.7006,0.7006,0.699,0.6984,0.7003,0.6977,0.0,0.0,0.0,0.0,0.0,0.0,0.0,0.0,0.0,0.0,0.0,0.0,0.6706,0.6336,0.0,0.0,0.0,0.0,0.0,0.0,0.5954,0.5893,0.5893,0.0,0.0,0.0,0.0,0.0,0.0,0.0,0.0,0.0,0.4793,0.4867,0.526,0.5671,0.6148,0.7031,0.7858,0.8581,0.9023,0.9419,0.9765,1.0164,0.9767,0.9368,0.9585,0.8787,0.7826,0.7364,0.6564,0.5818,0.5552,0.5141,0.4838,0.4881,0.4976,0.5107,0.5269,0.5867,0.6339,0.6415,0.6874,0.7286,0.7604,0.7613,0.7677,0.7877,0.7901,0.7901,0.7901,0.7901,0.8109,0.8679,0.8474,0.8639,0.9159,0.889,0.8837,0.9061,0.8956,0.9008,0.9061,0.9113,0.9211,0.9458,0.9465,0.9681,0.9947,0.9947,1.0051,1.0198,1.0198,1.0257,1.0419,1.0419,1.082,1.1368,1.176,1.2187,1.2667,0.0,0.0,0.0,0.0,0.0,0.0,0.7003,0.7,0.7013,0.7066,0.7023,0.7006,0.7063,0.702,0.699,0.6997,0.0,0.0,0.0,0.0,0.0,0.0,0.0,0.0,0.0,0.0,0.6228,0.6522,0.6331,0.0,0.0,0.0,0.0,0.0,0.0,0.5991,0.5954,0.5954,0.0,0.0,0.0,0.0,0.0,0.0,0.0,0.0,0.0,0.0,0.493,0.5068,0.538,0.58,0.6319,0.7041,0.7849,0.8544,0.9023,0.9373,0.9538,0.9378,0.9212,0.9298,0.8585,0.7712,0.7293,0.653,0.5826,0.5479,0.5065,0.4773,0.4793,0.4797,0.4898,0.5153,0.5496,0.5888,0.6364,0.6653,0.7045,0.7592,0.7648,0.7704,0.7877,0.7901,0.7901,0.7901,0.7901,0.8008,0.8156,0.8055,0.8162,0.8427,0.8374,0.8427,0.8639,0.8692,0.8745,0.8857,0.8956,0.9113,0.9263,0.9361,0.9524,0.9799,0.9799,0.9895,0.9999,0.9999,1.011,1.0316,1.0608,1.0964,1.1368,1.2039,1.2295,1.2353,0.0,0.0,0.0,0.0,0.0,0.7023,0.7023,0.7033,0.7046,0.7099,0.7053,0.7053,0.7066,0.7036,0.697,0.6884,0.6349,0.0,0.0,0.0,0.0,0.0,0.0,0.0,0.0,0.0,0.6035,0.6366,0.626,0.6153,0.0,0.0,0.6063,0.6099,0.0,0.0,0.0,0.0,0.0,0.0,0.0,0.0,0.0,0.0,0.0,0.0,0.0,0.0,0.0,0.0,0.0,0.5506,0.5791,0.6327,0.7031,0.8005,0.8599,0.8912,0.8912,0.8912,0.8885,0.8765,0.8179,0.7497,0.6967,0.6319,0.5716,0.5306,0.5004,0.4793,0.4793,0.4762,0.4826,0.5156,0.5313,0.5615,0.625,0.6449,0.678,0.7438,0.7504,0.7568,0.7865,0.7901,0.7901,0.7901,0.7901,0.7901,0.7901,0.7901,0.7901,0.7901,0.8115,0.8275,0.8421,0.8521,0.8685,0.8804,0.891,0.9008,0.9159,0.9263,0.942,0.9688,0.9688,0.974,0.9888,0.9888,0.9999,1.0265,1.0557,1.0854,1.1167,1.194,1.2058,1.1927,0.0,0.0,0.0,0.0,0.0,0.0,0.7096,0.7096,0.7099,0.7091,0.7101,0.7082,0.7006,0.6987,0.6884,0.6633,0.6655,0.0,0.0,0.0,0.0,0.0,0.0,0.0,0.0,0.0,0.6088,0.6295,0.6099,0.6063,0.6201,0.6201,0.6236,0.6295,0.0,0.0,0.0,0.0,0.0,0.0,0.0,0.0,0.0,0.0,0.0,0.0,0.0,0.0,0.0,0.0,0.0,0.0,0.0,0.5792,0.6248,0.7439,0.8152,0.8507,0.8507,0.8507,0.8406,0.7935,0.7515,0.6995,0.6193,0.5707,0.5287,0.4895,0.4793,0.4793,0.4793,0.4793,0.4879,0.5156,0.541,0.5661,0.5892,0.615,0.6505,0.7045,0.717,0.7369,0.7847,0.7901,0.7901,0.7901,0.7901,0.7901,0.7901,0.7901,0.7901,0.7901,0.8115,0.8275,0.8421,0.8521,0.8685,0.8804,0.8804,0.8857,0.9008,0.9008,0.9166,0.9413,0.9413,0.9465,0.9614,0.9614,0.9777,0.9999,0.9999,1.0205,1.0565,1.1124,1.1318,1.1377,0.0,0.0,0.0,0.0,0.0,0.0,0.0,0.7099,0.705,0.6908,0.6861,0.6781,0.6664,0.6655,0.6582,0.6413,0.6495,0.0,0.0,0.0,0.0,0.0,0.0,0.0,0.0,0.0,0.6242,0.6295,0.6242,0.6224,0.6272,0.6272,0.629,0.6295,0.6153,0.6045,0.0,0.0,0.0,0.0,0.0,0.0,0.5108,0.0,0.0,0.0,0.0,0.0,0.0,0.0,0.0,0.0,0.0,0.0,0.0,0.6497,0.7126,0.762,0.762,0.7831,0.7917,0.7497,0.7095,0.6584,0.578,0.5488,0.5287,0.4895,0.4793,0.4793,0.4793,0.4793,0.4818,0.4841,0.5348,0.5767,0.5884,0.6246,0.6742,0.7452,0.7617,0.7715,0.7883,0.7901,0.7901,0.7901,0.7901,0.7901,0.7901,0.7901,0.7901,0.7901,0.7955,0.8062,0.8275,0.8368,0.8527,0.8685,0.8752,0.8857,0.9008,0.9008,0.9106,0.9263,0.9361,0.9413,0.9458,0.9681,0.9844,0.9999,1.0162,1.0419,1.082,1.1175,1.1427,1.1628,0.0,0.0,0.0,0.0,0.0,0.0,0.0,0.7055,0.6987,0.6921,0.6778,0.6681,0.6625,0.6569,0.6478,0.6325,0.6425,0.0,0.0,0.0,0.0,0.0,0.0,0.0,0.5799,0.6127,0.6403,0.6595,0.6595,0.6665,0.6759,0.6759,0.6614,0.6333,0.6208,0.6012,0.0,0.0,0.0,0.0,0.0,0.0,0.5108,0.0,0.0,0.0,0.0,0.0,0.0,0.0,0.0,0.0,0.0,0.0,0.0,0.0,0.6176,0.6638,0.6758,0.6969,0.7106,0.6821,0.6447,0.6018,0.5516,0.5278,0.5105,0.4858,0.4793,0.4793,0.4793,0.4793,0.4818,0.4868,0.5287,0.5652,0.5884,0.615,0.6619,0.7395,0.7725,0.7901,0.7901,0.7901,0.7901,0.7901,0.7901,0.7901,0.7901,0.7901,0.7901,0.7901,0.7901,0.8008,0.8221,0.8268,0.8368,0.8527,0.8633,0.8745,0.8844,0.8903,0.9008,0.9106,0.9263,0.9361,0.0,0.9688,0.9895,0.9999,1.0213,1.047,1.0769,1.1175,1.1427,1.1628,0.0,0.0,0.0,0.0,0.0,0.0,0.0,0.6977,0.6941,0.7033,0.6837,0.6706,0.6757,0.6651,0.6512,0.6313,0.0,0.0,0.0,0.0,0.0,0.0,0.0,0.0,0.6295,0.6331,0.6595,0.7107,0.7139,0.7276,0.7486,0.7508,0.7125,0.6435,0.6403,0.6001,0.0,0.0,0.0,0.0,0.5108,0.5108,0.0,0.0,0.0,0.0,0.0,0.0,0.0,0.0,0.0,0.0,0.0,0.0,0.0,0.0,0.0,0.0,0.0,0.6061,0.6074,0.5981,0.5689,0.5388,0.536,0.5068,0.0,0.4793,0.4793,0.4793,0.4793,0.4793,0.4879,0.5134,0.5224,0.5382,0.583,0.5964,0.6291,0.7109,0.7635,0.7901,0.7901,0.7901,0.7901,0.7901,0.7901,0.7901,0.7901,0.7901,0.7901,0.7901,0.7848,0.7955,0.8168,0.8168,0.8275,0.8374,0.8468,0.8521,0.8521,0.8639,0.8745,0.8956,0.9054,0.9211,0.9413,0.9688,0.9903,0.9999,1.0213,1.0419,1.0624,1.1124,1.1326,1.1427,0.0,0.0,0.0,0.0,0.0,0.0,0.0,0.0,0.0,0.0,0.6604,0.6564,0.636,0.6307,0.629,0.0,0.0,0.0,0.0,0.0,0.0,0.0,0.0,0.0,0.6295,0.6691,0.6986,0.7107,0.761,0.7737,0.7497,0.7618,0.7374,0.6832,0.6371,0.5797,0.0,0.0,0.0,0.0,0.5108,0.5108,0.0,0.0,0.0,0.0,0.5098,0.5098,0.0,0.0,0.0,0.0,0.0,0.0,0.0,0.0,0.5146,0.5222,0.5306,0.0,0.6033,0.5764,0.5537,0.5337,0.0,0.4907,0.4793,0.4793,0.4793,0.4793,0.4793,0.4793,0.4859,0.5023,0.5296,0.5582,0.5795,0.6459,0.704,0.7449,0.775,0.7901,0.7901,0.7901,0.7901,0.7901,0.7901,0.7901,0.7901,0.7901,0.7901,0.7901,0.7521,0.7521,0.7955,0.8115,0.8221,0.8221,0.7931,0.7818,0.7883,0.7503,0.7664,0.8196,0.8474,0.8844,0.9263,0.974,0.9947,1.0051,1.0316,1.0718,1.1124,1.1267,1.1578,1.1927,0.0,0.0,0.0,0.0,0.0,0.0,0.0,0.0,0.0,0.0,0.0,0.643,0.6355,0.6272,0.0,0.0,0.0,0.0,0.0,0.0,0.0,0.0,0.0,0.6415,0.6655,0.7203,0.7708,0.8213,0.8841,0.8981,0.865,0.8798,0.8314,0.7318,0.6429,0.5714,0.0,0.0,0.0,0.5137,0.5108,0.0,0.0,0.0,0.0,0.0,0.5108,0.5108,0.0,0.5108,0.5108,0.5108,0.0,0.0,0.0,0.0,0.5108,0.5098,0.5108,0.5363,0.5593,0.5378,0.528,0.5152,0.4939,0.4873,0.4843,0.4812,0.4793,0.4867,0.505,0.493,0.4978,0.5462,0.5482,0.5561,0.6026,0.6829,0.7437,0.7577,0.7786,0.7901,0.7901,0.7901,0.7901,0.7901,0.7901,0.7901,0.7901,0.7681,0.7521,0.7521,0.6972,0.6972,0.7521,0.7354,0.7295,0.7295,0.7069,0.7009,0.7122,0.6961,0.7122,0.7498,0.8096,0.858,0.8896,0.9636,0.9947,1.0051,1.0316,1.0718,1.1124,1.1267,1.1578,1.1927,0.0,0.0,0.0,0.0,0.0,0.0,0.0,0.0,0.0,0.0,0.0,0.0,0.0,0.0,0.0,0.0,0.0,0.0,0.0,0.0,0.0,0.0,0.0,0.665,0.7114,0.7802,0.8658,0.9644,1.0288,1.0456,1.0212,1.0267,0.9351,0.7673,0.6513,0.5721,0.0,0.0,0.5137,0.5185,0.5117,0.0,0.0,0.0,0.0,0.0,0.0,0.0,0.0,0.5108,0.5108,0.5108,0.5108,0.0,0.0,0.0,0.0,0.0,0.5108,0.5088,0.5088,0.5039,0.499,0.4961,0.4912,0.4912,0.4892,0.4885,0.4904,0.5002,0.5348,0.5114,0.515,0.5989,0.5741,0.567,0.6435,0.7145,0.7613,0.765,0.781,0.7901,0.7901,0.7848,0.7794,0.7794,0.7681,0.7628,0.7628,0.7192,0.6972,0.6972,0.6372,0.6317,0.681,0.6426,0.6209,0.6209,0.6199,0.6253,0.6308,0.6524,0.6691,0.6966,0.7883,0.0,0.858,0.9427,0.9895,0.9999,1.0154,1.0462,1.0922,1.1065,1.1368,1.1669,0.0,0.0,0.0,0.0,0.0,0.0,0.0,0.0,0.0,0.0,0.0,0.0,0.0,0.0,0.0,0.0,0.0,0.0,0.0,0.0,0.0,0.6295,0.6802,0.7088,0.7173,0.8655,0.9692,1.0258,1.11,1.141,1.1171,1.074,0.9406,0.7353,0.6706,0.5965,0.5205,0.5185,0.5166,0.5117,0.5108,0.0,0.0,0.0,0.0,0.0,0.0,0.0,0.0,0.5108,0.5108,0.5108,0.5108,0.0,0.0,0.0,0.0,0.0,0.5108,0.5088,0.5097,0.5088,0.499,0.4912,0.4912,0.4912,0.4966,0.5254,0.5358,0.5398,0.5414,0.5349,0.5404,0.564,0.6142,0.6615,0.704,0.7376,0.768,0.7811,0.7877,0.7901,0.7901,0.7467,0.7246,0.7246,0.675,0.648,0.648,0.6372,0.6317,0.6317,0.5769,0.5496,0.555,0.5991,0.6209,0.6209,0.5714,0.5605,0.5878,0.5391,0.5882,0.7079,0.0,0.819,0.9106,0.9584,0.9895,0.9999,0.9777,1.019,1.0871,1.0482,1.0795,1.1377,0.0,0.0,0.0,0.0,0.0,0.0,0.0,0.0,0.0,0.0,0.0,0.0,0.0,0.0,0.0,0.0,0.0,0.0,0.0,0.0,0.0,0.6295,0.7186,0.78,0.8047,0.9362,1.0561,1.1709,1.2378,1.2528,1.2162,1.0791,0.9237,0.755,0.683,0.6037,0.5243,0.5185,0.5137,0.5137,0.0,0.0,0.0,0.0,0.0,0.0,0.0,0.0,0.0,0.0,0.5108,0.5108,0.5108,0.0,0.0,0.0,0.0,0.0,0.5108,0.5098,0.5146,0.5316,0.511,0.4898,0.5077,0.5068,0.5133,0.5536,0.564,0.573,0.5902,0.5767,0.5702,0.5976,0.6571,0.7056,0.7358,0.7593,0.781,0.7883,0.7901,0.7901,0.7901,0.7681,0.7467,0.73,0.6918,0.6588,0.6308,0.5932,0.566,0.5601,0.5117,0.4846,0.4846,0.5117,0.5281,0.5281,0.5007,0.4952,0.5117,0.4952,0.5281,0.5937,0.0,0.7331,0.7818,0.8514,0.8942,0.9204,0.9093,0.951,1.0241,1.0372,1.0626,1.0947,0.0,0.0,0.0,0.0,0.0,0.0,0.0,0.0,0.0,0.0,0.0,0.0,0.0,0.0,0.0,0.0,0.0,0.0,0.0,0.0,0.6343,0.6343,0.7469,0.8346,0.8838,1.0009,1.1392,1.3021,1.3322,1.3219,1.2657,1.0695,0.9081,0.7839,0.6909,0.6037,0.5272,0.5175,0.5137,0.5166,0.0,0.0,0.0,0.0,0.0,0.0,0.0,0.0,0.0,0.0,0.0,0.0,0.0,0.0,0.0,0.5108,0.5108,0.5108,0.5108,0.5098,0.5185,0.5545,0.5305,0.5059,0.5348,0.5345,0.5397,0.5796,0.5914,0.6037,0.645,0.6299,0.6208,0.6396,0.6908,0.7364,0.7565,0.778,0.7901,0.7901,0.7901,0.7901,0.7901,0.7794,0.7574,0.7246,0.6864,0.6426,0.5928,0.5386,0.5003,0.4835,0.4622,0.4463,0.4408,0.4408,0.4463,0.4519,0.4519,0.4519,0.4574,0.4739,0.4956,0.5226,0.61,0.6642,0.6853,0.7551,0.8084,0.8461,0.8362,0.8725,0.9347,1.0012,1.0312,1.0415,0.0,0.0,0.0,0.0,0.0,0.0,0.0,0.0,0.0,0.0,0.0,0.0,0.0,0.0,0.0,0.0,0.0,0.0,0.0,0.0,0.649,0.649,0.7522,0.8368,0.897,1.0628,1.22,1.3656,1.3379,1.2866,1.2117,1.0412,0.9067,0.8039,0.696,0.6024,0.5215,0.5195,0.5166,0.5108,0.5108,0.0,0.0,0.0,0.0,0.0,0.0,0.0,0.0,0.0,0.0,0.0,0.0,0.0,0.5108,0.5108,0.5108,0.5108,0.5108,0.5108,0.5194,0.5585,0.5609,0.5573,0.5735,0.5804,0.59,0.6117,0.6221,0.6409,0.6868,0.7018,0.6962,0.655,0.7101,0.7571,0.7589,0.778,0.7901,0.7901,0.7901,0.7901,0.7901,0.7467,0.6918,0.6317,0.5773,0.5117,0.4411,0.4463,0.4405,0.4076,0.4353,0.4353,0.4021,0.4135,0.4301,0.4519,0.4519,0.4574,0.4688,0.4691,0.5179,0.5946,0.6159,0.6691,0.7439,0.7664,0.7871,0.8078,0.7723,0.783,0.829,0.904,0.951,0.9865,0.0,0.0,0.0,0.0,0.0,0.0,0.0,0.0,0.0,0.0,0.0,0.0,0.0,0.0,0.0,0.0,0.0,0.0,0.0,0.6408,0.639,0.6437,0.7502,0.8381,0.8983,1.0537,1.2337,1.4335,1.387,1.3193,1.233,1.0474,0.8988,0.782,0.6858,0.596,0.5137,0.5137,0.5117,0.5108,0.5108,0.5108,0.0,0.0,0.0,0.0,0.0,0.0,0.0,0.0,0.4548,0.4718,0.4764,0.4922,0.5108,0.5108,0.5108,0.5108,0.5108,0.5129,0.5386,0.6294,0.6416,0.6366,0.6405,0.6228,0.6251,0.7074,0.6977,0.6843,0.7195,0.7207,0.7176,0.721,0.7394,0.7656,0.7774,0.7835,0.7901,0.7901,0.7901,0.7901,0.7901,0.7348,0.6804,0.6362,0.555,0.4787,0.4239,0.4187,0.4076,0.391,0.4076,0.4132,0.4024,0.4024,0.4135,0.4187,0.4301,0.4411,0.4574,0.4688,0.4853,0.5183,0.5513,0.5837,0.6159,0.6485,0.681,0.7074,0.7192,0.7348,0.7557,0.8243,0.8606,0.8862,0.0,0.0,0.0,0.0,0.0,0.0,0.0,0.0,0.0,0.0,0.0,0.0,0.0,0.0,0.0,0.0,0.0,0.0,0.6249,0.6345,0.6425,0.6455,0.7555,0.8426,0.9007,1.0337,1.1981,1.3935,1.3429,1.2786,1.2027,1.0256,0.8828,0.7715,0.6807,0.5905,0.5108,0.5108,0.5108,0.5108,0.5108,0.503,0.0,0.0,0.0,0.0,0.0,0.0,0.0,0.0,0.4093,0.4342,0.4513,0.4715,0.4942,0.5098,0.5117,0.5107,0.5132,0.5251,0.5579,0.653,0.6783,0.6836,0.7049,0.6877,0.6804,0.7391,0.7527,0.7497,0.7393,0.7607,0.772,0.7665,0.7668,0.7737,0.7877,0.7901,0.7901,0.7901,0.7901,0.7901,0.7901,0.7295,0.6745,0.6303,0.5441,0.4677,0.4125,0.4021,0.391,0.3744,0.391,0.3968,0.3858,0.391,0.391,0.3965,0.4024,0.419,0.4408,0.4577,0.4632,0.4746,0.5018,0.5242,0.5352,0.5732,0.6055,0.6327,0.6815,0.7031,0.7192,0.7717,0.8084,0.8343,0.0,0.0,0.0,0.0,0.0,0.0,0.0,0.0,0.0,0.0,0.0,0.0,0.0,0.0,0.0,0.0,0.0,0.0,0.5709,0.6265,0.6599,0.6599,0.7696,0.8537,0.9075,1.0077,1.1131,1.2294,1.191,1.147,1.1043,0.9672,0.8609,0.784,0.6858,0.5905,0.5108,0.5108,0.5108,0.5108,0.5108,0.4855,0.4453,0.0,0.0,0.0,0.0,0.0,0.0,0.0,0.3891,0.399,0.4513,0.4604,0.459,0.5067,0.5166,0.5114,0.5178,0.5451,0.5801,0.6195,0.6496,0.6876,0.7636,0.778,0.7607,0.6859,0.7712,0.832,0.7452,0.8241,0.8728,0.7854,0.7832,0.7901,0.7901,0.7901,0.7901,0.7901,0.7901,0.7901,0.7901,0.7295,0.6637,0.6032,0.5332,0.4567,0.3852,0.391,0.3858,0.3585,0.3858,0.3858,0.3585,0.3744,0.3796,0.3796,0.3796,0.3965,0.4193,0.4408,0.4574,0.4691,0.4846,0.5014,0.5297,0.5513,0.5727,0.6055,0.6485,0.6864,0.7139,0.7413,0.7943,0.8573,0.0,0.0,0.0,0.0,0.0,0.0,0.0,0.0,0.0,0.0,0.0,0.0,0.0,0.0,0.0,0.0,0.0,0.0,0.577,0.6249,0.653,0.654,0.7256,0.7751,0.7901,0.8757,1.0038,1.1788,1.1783,1.1395,1.0646,0.9534,0.8389,0.732,0.667,0.5905,0.5108,0.5108,0.5108,0.5108,0.5108,0.4855,0.4453,0.0,0.0,0.0,0.0,0.0,0.0,0.0,0.0,0.0,0.398,0.4296,0.459,0.5067,0.5146,0.5175,0.5535,0.5482,0.5617,0.678,0.6859,0.6818,0.7574,0.7886,0.8,0.8049,0.8276,0.8326,0.7838,0.7982,0.8143,0.7887,0.7847,0.7901,0.7901,0.7901,0.7901,0.7901,0.7901,0.7901,0.7901,0.7074,0.6362,0.5878,0.4948,0.4236,0.3796,0.3747,0.3747,0.3744,0.3747,0.3694,0.3585,0.3638,0.3635,0.3635,0.3744,0.391,0.4079,0.4245,0.4304,0.4359,0.4187,0.4239,0.4411,0.457,0.4893,0.5386,0.5778,0.6168,0.6549,0.7031,0.7354,0.767,0.0,0.0,0.0,0.0,0.0,0.0,0.0,0.0,0.0,0.0,0.4859,0.4909,0.0,0.0,0.0,0.0,0.0,0.0,0.5463,0.5942,0.6323,0.6527,0.7094,0.7506,0.7718,0.8211,0.9011,1.0145,1.0519,1.0423,0.9866,0.893,0.7998,0.707,0.6436,0.5771,0.5108,0.5108,0.5108,0.5098,0.4932,0.4629,0.4209,0.0,0.0,0.0,0.0,0.0,0.0,0.0,0.0,0.0,0.3707,0.4069,0.4375,0.4895,0.5,0.5014,0.5311,0.5432,0.5672,0.6688,0.6914,0.7088,0.7875,0.7983,0.7992,0.8283,0.8415,0.8371,0.7978,0.8055,0.8109,0.7955,0.7901,0.7901,0.7901,0.7794,0.7735,0.7735,0.7628,0.7574,0.7574,0.675,0.6041,0.5609,0.4728,0.407,0.3744,0.3638,0.3638,0.3744,0.3638,0.3585,0.3585,0.3585,0.3585,0.3585,0.3691,0.3747,0.3858,0.4082,0.4082,0.386,0.3633,0.3741,0.4073,0.4181,0.4395,0.478,0.5175,0.5673,0.6173,0.6647,0.7025,0.7354,0.0,0.0,0.0,0.0,0.0,0.0,0.0,0.0,0.0,0.403,0.4506,0.4644,0.0,0.0,0.0,0.3344,0.3791,0.4331,0.4884,0.5475,0.6014,0.6499,0.7031,0.7561,0.8109,0.8134,0.8051,0.7856,0.8572,0.8867,0.8818,0.8007,0.7394,0.6943,0.6166,0.5537,0.5108,0.5108,0.5108,0.5069,0.465,0.4264,0.3843,0.3376,0.0,0.0,0.0,0.0,0.0,0.0,0.0,0.0,0.3579,0.3862,0.4018,0.4613,0.4756,0.4732,0.4848,0.532,0.5829,0.6145,0.6752,0.7497,0.8345,0.8062,0.7704,0.7953,0.8262,0.8421,0.7955,0.8262,0.8421,0.7955,0.7901,0.7901,0.7901,0.7681,0.7521,0.7521,0.7246,0.7085,0.7085,0.649,0.5887,0.5391,0.4673,0.4073,0.3694,0.3638,0.3585,0.3638,0.3585,0.3585,0.3585,0.3585,0.3585,0.3585,0.3585,0.3585,0.3641,0.4027,0.386,0.3302,0.3077,0.335,0.3901,0.3956,0.4067,0.4122,0.4622,0.523,0.5946,0.6258,0.6799,0.7461,0.0,0.0,0.0,0.0,0.0,0.0,0.0,0.0,0.3474,0.3474,0.3584,0.3622,0.3487,0.3474,0.0,0.3306,0.3791,0.4156,0.4281,0.5235,0.585,0.5963,0.6427,0.6939,0.7469,0.7208,0.7213,0.7587,0.8025,0.797,0.751,0.7324,0.6816,0.6078,0.5891,0.5537,0.5108,0.5108,0.5108,0.5069,0.465,0.4264,0.3843,0.3376,0.2958,0.0,0.0,0.0,0.0,0.0,0.0,0.0,0.3255,0.3638,0.3999,0.4502,0.4669,0.4815,0.5427,0.5466,0.5517,0.6314,0.6899,0.737,0.7753,0.7811,0.8035,0.8659,0.8362,0.8002,0.7901,0.8002,0.8002,0.7901,0.7901,0.7901,0.7901,0.7681,0.7521,0.7521,0.7246,0.7085,0.7085,0.6761,0.6376,0.5887,0.5175,0.4625,0.4298,0.3858,0.3638,0.3744,0.3635,0.3585,0.3585,0.3585,0.3585,0.3585,0.3585,0.3585,0.3585,0.3913,0.3633,0.285,0.2406,0.2069,0.179,0.2293,0.279,0.3398,0.3846,0.4515,0.523,0.5832,0.6317,0.6745,0.0,0.0,0.0,0.0,0.0,0.0,0.0,0.0,0.3587,0.3332,0.3306,0.3306,0.3306,0.3306,0.0,0.0,0.3562,0.3829,0.4082,0.4658,0.5223,0.5775,0.6253,0.6641,0.6914,0.667,0.6645,0.6787,0.6854,0.6917,0.691,0.6612,0.6244,0.5793,0.5566,0.5322,0.5108,0.5108,0.5108,0.5069,0.465,0.4375,0.4146,0.3701,0.3271,0.2889,0.2889,0.0,0.0,0.0,0.0,0.0,0.0,0.0,0.3955,0.4268,0.453,0.4794,0.5208,0.527,0.5474,0.6646,0.7222,0.7595,0.7903,0.8004,0.8162,0.8521,0.8215,0.7901,0.7901,0.7901,0.7901,0.7901,0.7901,0.7901,0.7901,0.7574,0.73,0.73,0.6923,0.6657,0.6657,0.6549,0.6277,0.5837,0.523,0.4732,0.4405,0.3858,0.3638,0.3691,0.3638,0.3585,0.3585,0.3585,0.3585,0.3585,0.3585,0.3638,0.3691,0.3299,0.3074,0.2963,0.2015,0.1569,0.1569,0.179,0.2124,0.2512,0.3019,0.3514,0.4116,0.4725,0.5269,0.581,0.0,0.0,0.0,0.0,0.0,0.0,0.0,0.0,0.0,0.3357,0.3306,0.3306,0.3306,0.3306,0.3306,0.0,0.0,0.0,0.393,0.4055,0.457,0.5626,0.6016,0.6232,0.6224,0.6237,0.6123,0.5907,0.5771,0.5988,0.6518,0.594,0.5685,0.5654,0.5273,0.5108,0.5108,0.5108,0.5108,0.5069,0.465,0.4502,0.4453,0.4048,0.3666,0.3327,0.3327,0.3055,0.2705,0.2705,0.0,0.0,0.0,0.0,0.3819,0.4007,0.4329,0.4636,0.4812,0.5105,0.5652,0.691,0.7472,0.7808,0.8184,0.8237,0.8168,0.8168,0.8008,0.7901,0.7901,0.7901,0.7901,0.7901,0.7901,0.7901,0.7848,0.7408,0.7085,0.7031,0.6549,0.6178,0.6178,0.6178,0.6064,0.5732,0.5175,0.4732,0.4343,0.3855,0.3585,0.3585,0.3527,0.3527,0.3527,0.3527,0.3527,0.3527,0.3583,0.3635,0.3741,0.2629,0.2575,0.319,0.1681,0.1345,0.1792,0.1736,0.1734,0.179,0.224,0.2627,0.3065,0.3561,0.4168,0.4882,0.0,0.0,0.0,0.0,0.0,0.0,0.0,0.0,0.0,0.0,0.3306,0.3306,0.3306,0.3306,0.3306,0.3306,0.3306,0.3332,0.3398,0.0,0.0,0.5073,0.5107,0.5116,0.5116,0.5441,0.5608,0.5564,0.5669,0.5751,0.5813,0.5392,0.5195,0.5195,0.5137,0.5108,0.5108,0.5108,0.5108,0.5069,0.465,0.4502,0.4453,0.4048,0.3852,0.3803,0.3803,0.3506,0.3121,0.3121,0.2889,0.0,0.0,0.0,0.3373,0.3799,0.4038,0.4327,0.4967,0.5561,0.6131,0.6717,0.7276,0.7708,0.7785,0.7995,0.8168,0.7955,0.7901,0.7901,0.7901,0.7901,0.7901,0.7901,0.7901,0.7794,0.7574,0.73,0.7031,0.6756,0.644,0.6178,0.6178,0.6178,0.6178,0.6119,0.5344,0.4897,0.4787,0.4024,0.3585,0.3585,0.3302,0.3188,0.3188,0.3188,0.3188,0.3188,0.3471,0.3585,0.3583,0.2519,0.224,0.2577,0.1289,0.0841,0.1065,0.1178,0.1344,0.1677,0.1959,0.2294,0.2631,0.3178,0.3788,0.434,0.0,0.0,0.0,0.0,0.0,0.0,0.0,0.0,0.0,0.0,0.0,0.3306,0.3306,0.3306,0.3306,0.3306,0.3306,0.3306,0.3306,0.3804,0.422,0.4484,0.4746,0.488,0.4842,0.5018,0.5228,0.55,0.5338,0.5408,0.5686,0.5291,0.5098,0.5098,0.5068,0.5068,0.5098,0.5068,0.5059,0.5069,0.4735,0.4604,0.4567,0.4248,0.3956,0.3756,0.3945,0.3735,0.3393,0.3543,0.3301,0.2938,0.2938,0.0,0.0,0.0,0.4107,0.441,0.4855,0.533,0.5847,0.6321,0.6897,0.7445,0.7976,0.8057,0.808,0.8184,0.8008,0.7901,0.7901,0.7901,0.7901,0.7901,0.7901,0.7848,0.7735,0.7354,0.7031,0.6923,0.65,0.6178,0.6178,0.6178,0.6178,0.6178,0.5395,0.4897,0.4897,0.4079,0.3585,0.3585,0.3299,0.3188,0.3357,0.3188,0.3188,0.3357,0.3527,0.3585,0.3583,0.2406,0.2015,0.2183,0.1008,0.0617,0.0785,0.0842,0.1009,0.1232,0.1401,0.1569,0.1737,0.2069,0.2458,0.2956,0.0,0.0,0.0,0.0,0.0,0.0,0.0,0.0,0.0,0.0,0.0,0.3306,0.3306,0.0,0.0,0.0,0.3306,0.3306,0.3306,0.3675,0.3897,0.3891,0.4263,0.4449,0.4389,0.4535,0.4762,0.5106,0.4972,0.5097,0.5458,0.5194,0.5039,0.5039,0.5019,0.5039,0.5068,0.5019,0.5,0.4971,0.4755,0.4626,0.4547,0.4345,0.4055,0.3792,0.4039,0.387,0.3559,0.3778,0.3541,0.3141,0.3066,0.3075,0.0,0.0,0.0,0.4445,0.4543,0.4989,0.5507,0.5896,0.6465,0.715,0.7815,0.7941,0.7923,0.8209,0.8057,0.787,0.7943,0.7955,0.7901,0.7901,0.7901,0.7901,0.7794,0.7467,0.7139,0.7031,0.6603,0.6282,0.6232,0.6123,0.6064,0.6064,0.523,0.4732,0.4732,0.4024,0.3585,0.3585,0.319,0.3135,0.3471,0.3244,0.3244,0.3585,0.3585,0.3585,0.3583,0.2516,0.2069,0.2125,0.0896,0.0449,0.0617,0.0673,0.0785,0.0842,0.101,0.1122,0.1122,0.1234,0.1513,0.1902,0.0,0.0,0.0,0.0,0.0,0.0,0.0,0.0,0.0,0.0,0.0,0.3306,0.3306,0.3306,0.3306,0.3306,0.3306,0.3306,0.3306,0.3332,0.3339,0.3342,0.3306,0.0,0.328,0.3785,0.4017,0.3984,0.4595,0.4877,0.4836,0.4894,0.4912,0.4912,0.4961,0.501,0.501,0.499,0.4882,0.4715,0.4644,0.4455,0.4236,0.4216,0.4179,0.4163,0.4183,0.3947,0.3597,0.3684,0.34,0.2961,0.2711,0.2724,0.2825,0.0,0.0,0.0,0.3998,0.4704,0.5468,0.5356,0.6122,0.6901,0.6901,0.7302,0.7775,0.791,0.7822,0.7807,0.8119,0.8008,0.7901,0.7901,0.7901,0.7794,0.7574,0.7521,0.73,0.6756,0.6701,0.6544,0.6232,0.5845,0.5622,0.5622,0.4787,0.4233,0.4233,0.3858,0.3585,0.3585,0.3026,0.2856,0.313,0.313,0.3244,0.3585,0.3585,0.3585,0.3583,0.2961,0.2681,0.2569,0.0952,0.028,0.0449,0.0617,0.0729,0.0729,0.101,0.1122,0.1122,0.1234,0.1513,0.1846,0.0,0.0,0.0,0.0,0.0,0.0,0.0,0.0,0.0,0.0,0.0,0.0,0.0,0.3306,0.3306,0.3306,0.3306,0.3311,0.3361,0.3327,0.328,0.3233,0.3215,0.3198,0.3204,0.3348,0.3579,0.3901,0.3921,0.424,0.4805,0.4596,0.466,0.4893,0.4882,0.4902,0.4941,0.4882,0.4892,0.4863,0.4435,0.4232,0.4125,0.3944,0.3871,0.3935,0.4312,0.4244,0.4008,0.4221,0.3913,0.3431,0.3345,0.3008,0.2686,0.2775,0.3288,0.3813,0.3834,0.4167,0.4595,0.4843,0.5387,0.5996,0.6554,0.6885,0.7309,0.7907,0.7848,0.7789,0.8119,0.8062,0.7901,0.7901,0.7901,0.7848,0.7788,0.7628,0.7354,0.6972,0.681,0.6544,0.6232,0.6064,0.5896,0.5622,0.5007,0.4508,0.4233,0.3802,0.3527,0.3299,0.2914,0.2747,0.2856,0.3021,0.3244,0.3585,0.3357,0.3299,0.3244,0.2629,0.2293,0.2068,0.084,0.0505,0.0842,0.0617,0.0561,0.0729,0.0898,0.0954,0.0954,0.101,0.1121,0.1288,0.0,0.0,0.0,0.0,0.0,0.0,0.0,0.0,0.3999,0.3894,0.0,0.0,0.0,0.0,0.3949,0.3716,0.3499,0.3374,0.3394,0.3336,0.3271,0.3203,0.3194,0.321,0.3199,0.313,0.3246,0.3565,0.3427,0.3666,0.423,0.4113,0.4205,0.4465,0.4557,0.4695,0.4853,0.4823,0.4783,0.4724,0.4252,0.4054,0.401,0.3752,0.3787,0.3979,0.4422,0.4462,0.4316,0.4409,0.4097,0.3663,0.3513,0.3005,0.2485,0.2634,0.2939,0.3255,0.3372,0.3624,0.3964,0.4333,0.4747,0.5253,0.5936,0.6298,0.6703,0.7457,0.7502,0.7511,0.7891,0.786,0.7846,0.7883,0.7901,0.7901,0.7901,0.7681,0.7408,0.7139,0.6869,0.6544,0.6232,0.6064,0.5841,0.5399,0.4956,0.0,0.4018,0.3747,0.3416,0.2965,0.28,0.2691,0.2691,0.2856,0.3132,0.3413,0.3132,0.2965,0.2965,0.2575,0.2296,0.2071,0.1232,0.1008,0.1121,0.0561,0.0505,0.0842,0.0785,0.0729,0.0729,0.0729,0.0729,0.0785,0.0,0.0,0.0,0.0,0.0,0.0,0.0,0.0,0.5383,0.5061,0.0,0.0,0.0,0.0,0.0,0.4559,0.3912,0.3497,0.3403,0.3336,0.3272,0.3203,0.3194,0.3201,0.319,0.3121,0.3028,0.2887,0.3146,0.3217,0.3115,0.3439,0.3589,0.3616,0.4016,0.4401,0.4774,0.4783,0.4604,0.4293,0.4089,0.3958,0.3879,0.3706,0.3947,0.4412,0.4495,0.4518,0.4468,0.4202,0.3942,0.3629,0.3162,0.2644,0.2238,0.2356,0.2441,0.2514,0.0,0.0,0.0,0.3846,0.4243,0.4671,0.5007,0.5506,0.6028,0.6585,0.6799,0.6997,0.7323,0.7499,0.7668,0.7835,0.7889,0.7901,0.7901,0.7681,0.7408,0.7139,0.6869,0.6598,0.6232,0.5845,0.5399,0.4952,0.4453,0.4018,0.3638,0.3583,0.3304,0.2691,0.2691,0.2691,0.2691,0.2691,0.28,0.3074,0.28,0.2691,0.2691,0.2691,0.2691,0.2635,0.2071,0.1621,0.1286,0.0504,0.0561,0.101,0.0561,0.0393,0.0393,0.0393,0.0393,0.0449,0.0,0.0,0.0,0.0,0.0,0.5286,0.5252,0.5391,0.5467,0.0,0.0,0.0,0.5431,0.5467,0.5252,0.4619,0.4353,0.4016,0.351,0.3357,0.3272,0.3203,0.3162,0.31,0.306,0.2937,0.2844,0.275,0.2726,0.2845,0.3106,0.314,0.3292,0.3526,0.3649,0.3884,0.4237,0.4586,0.4573,0.4289,0.4193,0.4066,0.3977,0.4118,0.4308,0.4503,0.4708,0.4796,0.4742,0.4354,0.4246,0.4154,0.3444,0.2976,0.263,0.2289,0.2337,0.2532,0.2692,0.0,0.0,0.0,0.0,0.0,0.4385,0.4913,0.5486,0.6009,0.6385,0.6718,0.7036,0.7222,0.7334,0.7363,0.7701,0.7901,0.7901,0.7848,0.7628,0.7139,0.7031,0.6761,0.6228,0.6123,0.5732,0.0,0.4787,0.4405,0.3638,0.3193,0.2745,0.2352,0.2352,0.2352,0.2352,0.2352,0.2519,0.28,0.2464,0.2352,0.2352,0.2352,0.2242,0.202,0.1626,0.1624,0.1847,0.0784,0.0336,0.028,0.028,0.0336,0.0393,0.0393,0.0393,0.0393,0.0,0.0,0.4799,0.4799,0.5497,0.6028,0.5954,0.6178,0.6308,0.0,0.0,0.0,0.6295,0.5967,0.5615,0.5261,0.4909,0.4436,0.3783,0.3682,0.3507,0.3213,0.3112,0.304,0.2994,0.2863,0.275,0.2655,0.2549,0.2603,0.2807,0.2771,0.2853,0.305,0.3183,0.3425,0.3733,0.4081,0.4221,0.4215,0.4133,0.4066,0.4026,0.423,0.4528,0.4856,0.5089,0.5247,0.5246,0.4812,0.4437,0.4071,0.3525,0.314,0.2843,0.2521,0.2458,0.2553,0.2772,0.288,0.3014,0.3426,0.0,0.0,0.3892,0.43,0.4777,0.5186,0.5523,0.5817,0.6188,0.6226,0.6372,0.6808,0.6886,0.7121,0.7703,0.7629,0.7459,0.7128,0.7025,0.6761,0.6228,0.6178,0.5841,0.4956,0.4897,0.446,0.3469,0.2968,0.2635,0.241,0.2186,0.213,0.2408,0.2186,0.2186,0.2465,0.2186,0.2018,0.2018,0.1962,0.185,0.1685,0.1403,0.1233,0.1119,0.0448,0.0224,0.028,-0.0112,-0.028,-0.0336,-0.0336,-0.0224,-0.0168,0.0,0.0,0.492,0.4973,0.5983,0.6698,0.6506,0.7084,0.7392,0.0,0.7282,0.7499,0.7376,0.6678,0.6179,0.6099,0.5488,0.4845,0.4232,0.4125,0.3859,0.3307,0.3093,0.2985,0.2976,0.2835,0.2702,0.2578,0.252,0.2461,0.2403,0.2403,0.2393,0.2402,0.2698,0.2993,0.327,0.3439,0.3724,0.4048,0.4007,0.4012,0.4033,0.4188,0.4671,0.5328,0.5503,0.5723,0.5837,0.5407,0.4552,0.3689,0.3526,0.3213,0.2925,0.2888,0.2718,0.2564,0.2825,0.2845,0.2875,0.3204,0.3257,0.0,0.35,0.3761,0.4022,0.4271,0.4454,0.4688,0.5042,0.5022,0.5217,0.6109,0.5793,0.5939,0.7262,0.7205,0.6984,0.6924,0.6737,0.6426,0.6136,0.6086,0.5706,0.4897,0.4732,0.4236,0.313,0.28,0.2635,0.2579,0.2077,0.2077,0.2579,0.2077,0.1908,0.2128,0.1908,0.1797,0.1797,0.1628,0.1572,0.1572,0.1291,0.0673,-0.0168,-0.028,0.0,0.0335,-0.0616,-0.1122,-0.1291,-0.1291,-0.1122,-0.0954,0.4517,0.5099,0.5636,0.6013,0.6744,0.7193,0.6993,0.7103,0.7171,0.7075,0.7139,0.7187,0.7155,0.6999,0.668,0.6083,0.5882,0.5512,0.4795,0.4337,0.4019,0.3847,0.3247,0.2889,0.2844,0.2655,0.252,0.2442,0.2423,0.2413,0.2403,0.2403,0.2373,0.2322,0.2391,0.2621,0.2976,0.302,0.3285,0.3707,0.3905,0.4036,0.4109,0.4398,0.4863,0.5305,0.5348,0.5614,0.585,0.5618,0.4786,0.3848,0.3868,0.3513,0.3034,0.287,0.2709,0.2625,0.2776,0.2807,0.2874,0.3141,0.3208,0.0,0.3275,0.3488,0.3694,0.3749,0.4131,0.4472,0.4539,0.4867,0.5162,0.5178,0.5132,0.5464,0.656,0.6493,0.6214,0.6007,0.5808,0.5673,0.5479,0.5173,0.4805,0.4391,0.3793,0.3241,0.2802,0.2464,0.2186,0.1965,0.1853,0.1853,0.1965,0.1853,0.1853,0.1852,0.174,0.1629,0.1628,0.1459,0.1347,0.1347,0.0785,0.0449,0.0224,-0.0615,-0.1006,-0.1174,-0.1398,-0.14,-0.1291,-0.1291,-0.129,-0.1178,0.4677,0.5235,0.5756,0.631,0.688,0.7219,0.7107,0.7107,0.7075,0.7009,0.6924,0.6996,0.7371,0.7048,0.6765,0.6659,0.6373,0.592,0.524,0.4961,0.4546,0.397,0.3535,0.3142,0.2807,0.2636,0.2539,0.2501,0.2402,0.2353,0.2353,0.2353,0.2273,0.2151,0.2286,0.2539,0.2843,0.2886,0.3175,0.3621,0.3785,0.3909,0.4054,0.4497,0.4918,0.5316,0.5524,0.5715,0.5873,0.556,0.5035,0.4485,0.4065,0.3718,0.3389,0.3124,0.2939,0.2835,0.2967,0.2988,0.3044,0.3172,0.3208,0.0,0.0,0.3311,0.3403,0.3403,0.36,0.3817,0.3983,0.4037,0.4176,0.4596,0.4217,0.4241,0.5158,0.5406,0.5475,0.541,0.5282,0.5167,0.5018,0.4735,0.4496,0.4177,0.3485,0.2966,0.2689,0.2408,0.2128,0.2018,0.1852,0.1852,0.2018,0.1852,0.1741,0.1685,0.1628,0.1572,0.1459,0.129,0.101,0.0729,0.028,-0.0224,-0.084,-0.1398,-0.19,-0.2293,-0.2014,-0.1961,-0.2076,-0.2076,-0.2074,-0.1962,0.4847,0.5289,0.5762,0.6464,0.6887,0.7107,0.7107,0.7075,0.705,0.7052,0.6961,0.7093,0.7617,0.7094,0.6839,0.7198,0.6679,0.6159,0.5736,0.5513,0.5031,0.422,0.3869,0.3451,0.2965,0.2726,0.2588,0.2568,0.2393,0.2312,0.2302,0.2302,0.2224,0.2077,0.2288,0.2541,0.2828,0.2905,0.3184,0.3583,0.3732,0.3875,0.4024,0.4567,0.5029,0.5405,0.5821,0.5944,0.5831,0.5516,0.5318,0.508,0.4332,0.3972,0.3805,0.3526,0.3241,0.305,0.3237,0.3223,0.3159,0.3187,0.3187,0.3159,0.0,0.0,0.0,0.3208,0.3169,0.3206,0.3477,0.326,0.3279,0.3989,0.3447,0.0,0.0,0.4227,0.0,0.4849,0.471,0.0,0.4487,0.4278,0.4089,0.3929,0.3279,0.2797,0.266,0.2345,0.2128,0.2128,0.1908,0.1908,0.2128,0.1908,0.1685,0.1572,0.1515,0.1403,0.1234,0.1122,0.0729,0.028,-0.0224,-0.095,-0.1902,-0.2238,-0.2685,-0.3074,-0.2573,-0.2631,-0.2914,-0.2914,-0.2858,-0.28,0.5448,0.569,0.6014,0.7097,0.7193,0.7107,0.7107,0.6993,0.7078,0.7549,0.7839,0.7916,0.7639,0.7482,0.727,0.6962,0.6456,0.6233,0.6464,0.5529,0.5049,0.5227,0.4196,0.3583,0.3517,0.2908,0.2539,0.2423,0.2393,0.2353,0.2302,0.2302,0.2325,0.2347,0.2321,0.2535,0.2893,0.3018,0.3255,0.3548,0.3975,0.4141,0.4225,0.4752,0.5207,0.5628,0.6043,0.6072,0.5897,0.5826,0.5609,0.5199,0.4807,0.4402,0.4035,0.3957,0.3526,0.3162,0.3483,0.3288,0.3046,0.3159,0.3111,0.3046,0.3181,0.0,0.3208,0.3208,0.0,0.3207,0.3229,0.0,0.0,0.0,0.0,0.3306,0.3002,0.3037,0.3348,0.3958,0.369,0.0,0.0,0.3206,0.3016,0.3279,0.2661,0.2344,0.2515,0.2098,0.1853,0.1853,0.1797,0.1797,0.1853,0.1685,0.1628,0.1572,0.1291,0.1122,0.1122,0.0842,0.0729,0.0561,-0.0671,-0.1229,-0.1454,-0.2571,-0.3019,-0.3074,-0.3019,-0.3019,-0.3077,-0.3077,-0.3077,-0.3074,0.511,0.5316,0.5691,0.6545,0.6751,0.6807,0.6807,0.7022,0.7261,0.7446,0.8168,0.869,0.8815,0.8753,0.8529,0.8046,0.7509,0.7072,0.6802,0.6114,0.5712,0.5694,0.4979,0.4361,0.3904,0.3353,0.2907,0.2578,0.2412,0.2303,0.2243,0.2201,0.2216,0.2283,0.2371,0.2501,0.2687,0.2984,0.3286,0.3593,0.4014,0.4374,0.4716,0.5062,0.55,0.5991,0.6117,0.6171,0.6023,0.5854,0.5841,0.5729,0.4951,0.4668,0.4541,0.4116,0.37,0.3432,0.3651,0.3392,0.3054,0.3036,0.2956,0.2875,0.2848,0.2982,0.3089,0.3089,0.0,0.0,0.0,0.0,0.0,0.0,0.3073,0.3077,0.0,0.0,0.2973,0.0,0.0,0.0,0.0,0.0,0.0,0.0,0.2297,0.2137,0.2334,0.1945,0.176,0.1796,0.1797,0.1741,0.1685,0.1628,0.1515,0.1291,0.1066,0.0784,0.0336,0.0168,-0.0112,-0.0503,-0.1564,-0.2066,-0.2178,-0.3128,-0.3574,-0.3633,-0.3633,-0.3524,-0.3413,-0.3466,-0.3574,-0.3633,0.4566,0.4945,0.5471,0.6119,0.648,0.6685,0.6685,0.7244,0.7658,0.7611,0.8638,0.9462,0.9695,0.9607,0.934,0.8861,0.815,0.7504,0.6991,0.6562,0.6178,0.5826,0.5465,0.4937,0.4189,0.3749,0.3301,0.2816,0.2619,0.2419,0.2233,0.2249,0.2284,0.2318,0.2493,0.2638,0.2738,0.3104,0.3425,0.3713,0.423,0.4719,0.5213,0.5358,0.5728,0.6119,0.6119,0.6119,0.6046,0.5841,0.5963,0.0,0.5146,0.4925,0.4933,0.4418,0.4029,0.3769,0.3792,0.3463,0.3088,0.29,0.2754,0.2668,0.2621,0.2719,0.2805,0.2826,0.2671,0.0,0.0,0.0,0.0,0.0,0.0,0.2753,0.0,0.2714,0.0,0.0,0.0,0.0,0.0,0.0,0.0,0.0,0.0,0.1941,0.2191,0.1906,0.1734,0.1796,0.1741,0.1685,0.1628,0.1459,0.129,0.1066,0.0729,0.028,-0.028,-0.056,-0.1008,-0.1454,-0.2289,-0.2681,-0.2847,-0.3574,-0.391,-0.4024,-0.4024,-0.3968,-0.3858,-0.3855,-0.391,-0.4021,0.3956,0.4722,0.5659,0.6201,0.6622,0.6891,0.6891,0.7733,0.8372,0.8372,0.9515,1.0216,0.984,0.9562,0.9274,0.8936,0.7767,0.7036,0.7077,0.6653,0.6175,0.5643,0.5342,0.494,0.4395,0.4062,0.3619,0.3087,0.3087,0.281,0.2301,0.2561,0.2642,0.2587,0.272,0.2966,0.3295,0.357,0.3776,0.3955,0.4687,0.5274,0.5686,0.569,0.5822,0.6,0.6,0.0,0.0,0.5941,0.5912,0.0,0.0,0.0,0.5087,0.4981,0.4582,0.4122,0.3869,0.35,0.3105,0.279,0.2514,0.2391,0.2638,0.2502,0.2333,0.2398,0.2415,0.2415,0.242,0.0,0.0,0.0,0.0,0.0,0.0,0.0,0.0,0.0,0.0,0.0,0.0,0.0,0.0,0.0,0.0,0.0,0.2261,0.1934,0.1734,0.1796,0.1685,0.1628,0.1572,0.1122,0.0898,0.0898,0.0056,-0.0393,-0.0393,-0.1231,-0.1621,-0.1846,-0.2571,-0.2961,-0.313,-0.3744,-0.4021,-0.4024,-0.4138,-0.4301,-0.4408,-0.4132,-0.4021,-0.4076,0.4557,0.5215,0.5875,0.562,0.5935,0.6349,0.6655,0.7584,0.8242,0.8216,0.9485,1.0444,1.0601,1.0667,1.0484,0.9923,0.9325,0.8671,0.8009,0.7609,0.7178,0.6729,0.6164,0.5584,0.5004,0.4365,0.3903,0.3632,0.3089,0.274,0.2561,0.2608,0.27,0.2805,0.2803,0.2984,0.3298,0.3336,0.3612,0.4048,0.4974,0.5417,0.5618,0.0,0.5946,0.6005,0.59,0.5845,0.0,0.5732,0.5742,0.5721,0.5383,0.5309,0.5322,0.5091,0.4546,0.4049,0.0,0.0,0.2612,0.2423,0.2276,0.22,0.227,0.2297,0.2307,0.2334,0.212,0.2014,0.2285,0.0,0.0,0.0,0.0,0.0,0.0,0.0,0.0,0.0,0.0,0.0,0.0,0.0,0.0,0.0,0.0,0.0,0.0,0.174,0.1622,0.1626,0.1609,0.1291,0.0673,0.0448,0.0056,-0.0447,-0.0951,-0.1454,-0.1956,-0.2291,-0.2516,-0.2683,-0.3352,-0.3461,-0.3292,-0.391,-0.4245,-0.4467,-0.4522,-0.4629,-0.4736,-0.4522,-0.4519,-0.4625,0.516,0.5483,0.5781,0.5253,0.5716,0.6297,0.6776,0.7469,0.8061,0.8322,0.9473,1.0401,1.0812,1.0985,1.0926,1.0468,1.0039,0.9436,0.864,0.8295,0.7901,0.732,0.6707,0.6045,0.5362,0.472,0.4241,0.3903,0.3254,0.2858,0.2707,0.2781,0.2844,0.2906,0.2948,0.314,0.3394,0.3355,0.3625,0.4195,0.5136,0.5536,0.0,0.0,0.5841,0.5841,0.0,0.5686,0.5626,0.5622,0.5626,0.5555,0.5272,0.5133,0.5052,0.4836,0.4326,0.3731,0.3546,0.2993,0.0,0.2185,0.2039,0.0,0.2064,0.2075,0.2053,0.2107,0.1855,0.1703,0.191,0.0,0.0,0.0,0.0,0.0,0.0,0.1827,0.0,0.0,0.0,0.0,0.0,0.0,0.0,0.0,0.0,0.0,0.0,0.0,0.1519,0.149,0.1253,0.0775,0.0112,-0.028,-0.0726,-0.1285,-0.1789,-0.2291,-0.2792,-0.3128,-0.3352,-0.3522,-0.3965,-0.4018,-0.3846,-0.4298,-0.4574,-0.4794,-0.4794,-0.4849,-0.4956,-0.4794,-0.4849,-0.4952,0.5706,0.5532,0.545,0.5202,0.5959,0.6751,0.7234,0.7438,0.7837,0.8672,0.9487,1.0136,1.0514,1.0531,1.0499,1.0516,0.9852,0.9302,0.8977,0.8762,0.8286,0.7412,0.6983,0.6353,0.5487,0.5165,0.4663,0.3945,0.358,0.3173,0.2728,0.3044,0.3099,0.292,0.3168,0.34,0.3618,0.358,0.3859,0.4404,0.5157,0.5513,0.5567,0.5567,0.5567,0.5567,0.5567,0.5462,0.5352,0.5513,0.5458,0.5242,0.5242,0.4854,0.4404,0.4355,0.3885,0.3299,0.2841,0.2648,0.2478,0.2069,0.1797,0.0,0.0,0.0,0.1647,0.1768,0.1629,0.1454,0.1324,0.0,0.0,0.0,0.0,0.0,0.0,0.0,0.0,0.0,0.0,0.0,0.0,0.0,0.0,0.0,0.0,0.0,0.0,0.0,0.1329,0.1432,0.0639,0.0108,-0.0112,-0.095,-0.1454,-0.1733,-0.2571,-0.2961,-0.2961,-0.3688,-0.4079,-0.4249,-0.4463,-0.4629,-0.4743,-0.4901,-0.5007,-0.5007,-0.5007,-0.5066,-0.5179,-0.5011,-0.4952,-0.5007,0.6337,0.597,0.5876,0.6105,0.6353,0.6691,0.7222,0.7621,0.8038,0.8518,0.9312,0.9937,1.0186,1.0312,1.0485,1.0754,1.0441,1.0041,0.9684,0.9573,0.926,0.8524,0.7847,0.718,0.645,0.5583,0.4941,0.4484,0.3896,0.3402,0.3002,0.3089,0.3099,0.3053,0.2958,0.3205,0.3661,0.3522,0.3906,0.4733,0.5149,0.5366,0.5352,0.0,0.5352,0.5352,0.5352,0.5352,0.5301,0.5352,0.5073,0.4684,0.4684,0.4601,0.4406,0.3963,0.3664,0.3399,0.2817,0.2261,0.1908,0.1857,0.1804,0.1801,0.0,0.0,0.0,0.0,0.0,0.0,0.0,0.0,0.0,0.0,0.0,0.0,0.0,0.0,0.0,0.0,0.0,0.0,0.0,0.0,0.0,0.0,0.0,0.0,0.0,0.0,0.0,0.0306,0.0157,-0.0487,-0.1621,-0.2011,-0.2514,-0.3077,-0.3408,-0.3688,-0.3858,-0.4082,-0.4301,-0.4581,-0.5058,-0.5332,-0.5559,-0.5991,-0.6258,-0.6367,-0.6367,-0.6529,-0.6637,-0.6095,-0.5932,-0.6145,0.6823,0.6619,0.6621,0.6815,0.7054,0.7285,0.7559,0.8092,0.8694,0.9419,0.9772,1.0145,1.0558,1.0488,1.0456,1.0702,1.0573,1.0383,1.0176,1.0017,0.9747,0.9366,0.8398,0.7579,0.7019,0.5876,0.5105,0.4707,0.406,0.3603,0.3369,0.3327,0.3319,0.3317,0.3108,0.3269,0.3694,0.3803,0.4198,0.4836,0.5152,0.5297,0.0,0.5297,0.5297,0.5297,0.5297,0.5297,0.5297,0.5297,0.4963,0.4519,0.4519,0.4128,0.3624,0.3292,0.3016,0.273,0.2355,0.1995,0.1689,0.1722,0.1733,0.1741,0.1895,0.1859,0.1736,0.0,0.152,0.1369,0.0,0.0,0.0,0.0,0.0,0.0,0.0,0.0,0.0,0.0,0.0,0.0,0.0,0.0,0.0,0.0,0.0,0.0,0.0,0.0,0.0,-0.0343,-0.0713,-0.132,-0.2244,-0.2773,-0.3294,-0.3691,-0.3858,-0.4242,-0.4684,-0.4736,-0.5062,-0.5559,-0.5928,-0.6199,-0.6312,-0.675,-0.6966,-0.7069,-0.7117,-0.7283,-0.7391,-0.7235,-0.7069,-0.6956,0.7245,0.7276,0.7404,0.7485,0.7854,0.8183,0.8224,0.8701,0.942,1.0484,1.0438,1.047,1.0977,1.0731,1.0522,1.0522,1.0522,1.0522,1.0522,1.0176,0.9994,0.9945,0.8723,0.7844,0.7385,0.6103,0.5205,0.4791,0.4145,0.3819,0.3762,0.3658,0.3606,0.3585,0.338,0.343,0.374,0.4231,0.4592,0.4836,0.5152,0.5297,0.5297,0.5297,0.5297,0.5297,0.5297,0.5297,0.5297,0.5297,0.4908,0.446,0.4349,0.3627,0.2736,0.2569,0.224,0.1852,0.1741,0.1704,0.1718,0.1664,0.1679,0.1689,0.1885,0.1884,0.177,0.1793,0.1624,0.143,0.0,0.0,0.0,0.0,0.0,0.0,0.0,0.0,0.0,0.0,0.0,0.0,0.0,0.0,0.0,0.0,0.0,0.0,0.0,0.0,0.0,-0.0847,-0.1673,-0.2254,-0.2446,0.0,-0.3852,-0.3907,-0.419,-0.4684,-0.5386,-0.5546,-0.5982,-0.6642,-0.6907,-0.7015,-0.7069,-0.7396,-0.7557,-0.7551,-0.7706,-0.7759,-0.7865,-0.8415,-0.8302,-0.7913,0.7604,0.7408,0.7571,0.8412,0.8467,0.8667,0.9389,0.9392,0.9413,0.9672,1.0232,1.051,1.0148,1.0348,1.0522,1.0522,1.0522,1.0522,1.0522,1.0407,1.0375,1.0222,0.9271,0.8425,0.7722,0.6311,0.548,0.5287,0.4454,0.4083,0.4111,0.3816,0.3652,0.3585,0.3285,0.334,0.3729,0.4376,0.0,0.4836,0.5152,0.5297,0.5297,0.5297,0.5297,0.5297,0.5297,0.5297,0.5297,0.5297,0.4849,0.4177,0.3677,0.3292,0.2852,0.1849,0.1958,0.2237,0.157,0.1566,0.1781,0.167,0.1717,0.1752,0.1755,0.1735,0.171,0.1645,0.1575,0.1458,0.1398,0.0,0.0,0.0,0.0,0.0,0.0,0.0,0.0,0.0,0.0,0.0,0.0,0.0,0.0,0.0,0.0,0.0,0.0,0.0,0.0,0.0,-0.2037,0.0,0.0,0.0,-0.4018,-0.4408,-0.4901,-0.5336,-0.5719,-0.6204,-0.6583,-0.6853,-0.7444,-0.7812,-0.7919,-0.862,-0.889,-0.889,-0.904,-0.919,-0.9444,-0.9621,-0.9836,-0.9932,0.8372,0.848,0.8682,0.9142,0.9445,0.9692,0.9797,0.9956,1.0157,1.0362,1.0674,1.081,1.0713,1.0554,1.0522,1.0522,1.0522,1.047,1.0419,1.0419,1.0316,1.0162,0.9112,0.8364,0.8024,0.641,0.5621,0.5615,0.4953,0.4554,0.4457,0.4261,0.4067,0.3847,0.3662,0.3665,0.3884,0.0,0.0,0.497,0.5189,0.5297,0.5297,0.5297,0.5297,0.5297,0.5297,0.5297,0.5246,0.4963,0.4629,0.4181,0.3178,0.2845,0.2571,0.1569,0.1569,0.1792,0.1402,0.1403,0.1572,0.1572,0.1572,0.1566,0.1649,0.1643,0.1627,0.157,0.1588,0.1582,0.1547,0.155,0.0,0.0,0.0,0.0,0.0,0.0,0.0,0.0,0.0,0.0,0.0,0.0,0.0,0.0,0.0,0.0,0.0,0.0,0.0,0.0,0.0,0.0,0.0,0.0,0.0,-0.5391,-0.5714,-0.6199,-0.6804,-0.7122,-0.7551,-0.8037,-0.8408,-0.862,-0.8725,-0.9302,-0.9569,-0.9629,-0.9888,-1.0043,-1.0198,-1.0257,-1.0257,-1.0205,0.9243,0.9583,0.9836,0.9872,1.0266,1.0459,1.0099,1.0346,1.0663,1.0971,1.0985,1.1054,1.1174,1.0761,1.0522,1.0522,1.0522,1.0419,1.0324,1.0316,1.0213,0.9947,0.8922,0.8259,0.8099,0.6539,0.5739,0.5754,0.5267,0.4901,0.4625,0.4601,0.4408,0.4071,0.0,0.0,0.0,0.0,0.489,0.5096,0.5225,0.5297,0.5297,0.5297,0.5297,0.5297,0.5297,0.5297,0.5242,0.4684,0.446,0.4181,0.2845,0.24,0.2178,0.1457,0.1234,0.1234,0.1234,0.1234,0.1347,0.1459,0.1403,0.1347,0.1515,0.1515,0.156,0.1518,0.1608,0.1714,0.1709,0.1609,0.0,0.0,0.0,0.0,0.0,0.0,0.0,0.0,0.0,0.0,0.0,0.0,0.0,0.0,0.0,0.0,0.0,0.0,0.0,0.0,0.0,-0.3866,-0.4356,0.0,-0.5605,-0.6263,-0.6367,-0.6902,-0.7771,-0.8037,-0.8468,-0.9061,-0.9159,-0.9316,-0.942,-0.9769,-0.9984,-1.0102,-1.0419,-1.0565,-1.0624,-1.0624,-1.0462,-1.036,1.0096,1.0087,1.0288,1.0776,1.0459,1.0322,1.0819,1.0379,1.0076,1.0334,1.0714,1.083,1.0616,1.0522,1.0522,1.0522,1.0522,1.0419,1.0324,1.0316,1.0162,0.9851,0.9221,0.8507,0.7702,0.6607,0.593,0.5625,0.5104,0.4699,0.4439,0.4557,0.4394,0.0,0.0,0.0,0.0,0.4819,0.5002,0.5096,0.5225,0.5297,0.5297,0.5297,0.5297,0.5297,0.5297,0.5297,0.5242,0.4684,0.4291,0.3843,0.2627,0.2069,0.1734,0.1121,0.101,0.1066,0.0954,0.1122,0.129,0.1178,0.1234,0.1291,0.1347,0.1347,0.1402,0.1566,0.1635,0.1702,0.1684,0.1291,0.0896,0.0,0.0,0.0,0.0,0.0,0.0105,0.0,0.0,0.0,0.0,0.0,0.0,0.0,0.0,0.0,0.0,0.0,0.0,-0.2211,-0.3527,-0.4306,-0.4496,-0.4885,-0.5601,-0.6588,-0.6588,-0.7117,-0.8078,-0.8626,-0.9001,-0.9211,-0.9309,-0.9577,-0.9947,-1.0308,-1.0419,-1.047,-1.047,-1.0718,-1.1023,-1.0922,-1.1074,-1.1368,1.1063,1.0944,1.0812,1.0869,1.0742,1.0648,1.0603,1.0409,1.0306,1.0414,1.0535,1.0624,1.0522,1.0522,1.0522,1.0522,1.0419,1.0316,1.011,1.0058,0.9895,0.9681,0.9145,0.8508,0.7774,0.6951,0.6292,0.5779,0.5462,0.5132,0.4834,0.4866,0.4718,0.0,0.0,0.4554,0.4708,0.4965,0.5128,0.5251,0.5269,0.5297,0.5297,0.5297,0.5297,0.5297,0.5297,0.5297,0.5242,0.4684,0.457,0.4346,0.2738,0.2294,0.2237,0.1233,0.0954,0.0954,0.0898,0.0954,0.1066,0.1066,0.1066,0.1066,0.1178,0.1178,0.1234,0.1403,0.1387,0.1311,0.1284,0.0884,0.0557,0.0,0.0,0.0,0.0,0.0,0.0,0.0,0.0,0.0,0.0,0.0,0.0,0.0,0.0,0.0,0.0,0.0,0.0,-0.319,0.0,-0.5091,-0.5576,-0.6144,-0.6848,-0.767,-0.7771,-0.809,-0.8626,-0.8949,-0.9263,-0.9465,-0.951,-0.9725,-1.0051,-1.0368,-1.0624,-1.0871,-1.1023,-1.1226,-1.1318,-1.1276,-1.1226,-1.1175,1.1885,1.1603,1.1227,1.0888,1.0973,1.0905,1.0442,1.0463,1.0522,1.0522,1.047,1.047,1.0522,1.047,1.0419,1.0419,1.0316,1.011,0.9955,0.9844,0.974,0.9614,0.9249,0.8666,0.7925,0.7356,0.6657,0.5891,0.5771,0.5468,0.5027,0.4989,0.4872,0.0,0.474,0.4843,0.4948,0.5079,0.5186,0.5297,0.5297,0.5297,0.5297,0.5297,0.5297,0.5297,0.5297,0.5297,0.5242,0.4684,0.4625,0.4457,0.2738,0.2238,0.2125,0.1177,0.0898,0.0898,0.0898,0.0898,0.0898,0.101,0.0954,0.0898,0.101,0.1066,0.1066,0.1122,0.1122,0.1002,0.076,0.0378,0.0,-0.0209,0.0,0.0,0.0,-0.1047,0.0,0.0,-0.1423,-0.1383,-0.1419,0.0,0.0,0.0,0.0,0.0,0.0,0.0,0.0,0.0,0.0,0.0,0.0,-0.7026,-0.7664,-0.8421,-0.8415,-0.8626,-0.9061,-0.9263,-0.9413,-0.9614,-0.9673,-0.9829,-1.0051,-1.0368,-1.0718,-1.1074,-1.1226,-1.1427,-1.1528,-1.1477,-1.1276,-1.1124,1.251,1.1956,1.147,1.106,1.1185,1.1116,1.0565,1.0514,1.0522,1.0522,1.0368,1.0368,1.047,1.0368,1.0316,1.0316,1.011,0.9947,0.9799,0.9799,0.974,0.0,0.0,0.9086,0.7925,0.7671,0.703,0.5902,0.0,0.0,0.4883,0.4713,0.4723,0.4908,0.4908,0.4982,0.5076,0.508,0.5186,0.5297,0.5297,0.5297,0.5297,0.5297,0.5297,0.5297,0.5297,0.5297,0.5242,0.4684,0.4291,0.3785,0.2571,0.1624,0.0898,0.0898,0.0898,0.0898,0.0898,0.0898,0.0898,0.0898,0.0898,0.0898,0.0898,0.0898,0.0842,0.0729,0.0898,0.0898,0.0168,-0.0392,-0.0896,-0.1453,0.0,0.0,0.0,-0.2063,0.0,-0.2855,-0.2561,-0.2369,-0.2647,0.0,0.0,0.0,0.0,0.0,0.0,0.0,0.0,-0.3807,-0.4837,0.0,-0.6702,-0.7109,-0.7664,-0.8368,-0.809,-0.8355,-0.9211,-0.9458,-0.9614,-0.9614,-0.9888,-0.9999,-1.0051,-1.0368,-1.0667,-1.0922,-1.0922,-1.1175,-1.1477,-1.1368,-1.1377,-1.1469,1.2929,1.2082,1.1239,1.0753,1.0714,1.0718,1.0522,1.0522,1.047,1.0308,1.0316,1.0265,1.0154,1.011,1.011,0.0,0.9955,0.9851,0.0,0.9732,0.9621,0.9614,0.9614,0.9086,0.7925,0.7846,0.7194,0.5906,0.0,0.0,0.0,0.5332,0.5297,0.5312,0.5312,0.5302,0.5213,0.5213,0.5249,0.5297,0.5297,0.5242,0.5183,0.5183,0.5183,0.5183,0.5183,0.5242,0.5242,0.4684,0.4012,0.3231,0.246,0.1903,0.1456,0.1009,0.0898,0.0898,0.0898,0.0898,0.0898,0.0898,0.0898,0.0898,0.0898,0.0842,0.0561,-0.0112,-0.0168,-0.028,-0.0671,-0.1119,-0.1511,-0.1679,-0.1887,0.0,-0.2314,0.0,-0.2464,-0.2684,-0.2594,-0.2536,0.0,-0.2643,0.0,0.0,0.0,0.0,0.0,0.0,0.0,0.0,-0.6277,0.0,-0.7443,-0.7862,-0.8262,-0.8699,-0.8633,-0.889,-0.9361,-0.988,-1.0138,-1.0138,-1.0249,-1.0403,-1.0616,-1.0257,-1.0514,-1.1023,-1.1023,-1.1226,-1.1469,-1.1469,-1.1427,-1.1377,1.3355,1.2098,1.0871,1.0573,1.0522,1.0522,1.0522,1.0522,1.0411,1.0249,1.0154,1.0102,0.9947,0.9895,0.0,0.9895,0.9792,0.9732,0.9732,0.9621,0.9614,0.9614,0.9406,0.8876,0.7925,0.7711,0.0,0.6029,0.6029,0.5963,0.5845,0.5845,0.5756,0.5606,0.5606,0.5515,0.5297,0.5297,0.5297,0.5297,0.5297,0.5242,0.5124,0.5124,0.5069,0.5014,0.5014,0.4959,0.4794,0.4242,0.3516,0.2679,0.2071,0.1681,0.14,0.1009,0.0898,0.0898,0.0898,0.0898,0.0898,0.0898,0.0898,0.0842,0.0617,0.0336,-0.0056,-0.0783,-0.0895,-0.1008,-0.1454,-0.1734,-0.2015,-0.2127,-0.2296,-0.2408,-0.2408,0.0,-0.2726,0.0,0.0,0.0,0.0,-0.3254,0.0,0.0,0.0,0.0,0.0,0.0,0.0,-0.6252,-0.6843,0.0,-0.7966,-0.8233,-0.8639,-0.9113,-0.9562,-0.9865,-1.0079,-1.0293,-1.0403,-1.0403,-1.019,-1.0241,-1.0395,-1.0198,-1.0506,-1.1065,-1.1318,-1.1628,-1.1877,-1.1877,-1.1728,-1.1528,1.3467,1.185,1.0522,0.0,1.0522,0.0,1.0522,1.0522,1.0411,1.0249,1.0043,0.9836,0.974,0.9621,0.9621,0.974,0.0,0.0,0.0,0.9614,0.9614,0.9614,0.9145,0.856,0.7925,0.7396,0.6815,0.6178,0.6178,0.6178,0.6178,0.6178,0.6069,0.5795,0.5795,0.5631,0.5297,0.5297,0.5297,0.5297,0.5297,0.5242,0.5069,0.5069,0.5011,0.4901,0.4901,0.4567,0.4122,0.3577,0.2854,0.2073,0.1458,0.1122,0.0898,0.0898,0.0898,0.0898,0.0898,0.0898,0.0898,0.0898,0.0842,0.0673,0.0,-0.0448,-0.0894,-0.1285,-0.1285,-0.1398,-0.2127,-0.224,-0.2352,-0.2635,-0.2691,-0.2691,-0.2691,-0.2691,-0.2858,0.0,0.0,0.0,0.0,-0.4205,-0.437,0.0,0.0,0.0,0.0,0.0,-0.6206,-0.656,-0.6729,-0.7264,-0.8268,-0.8427,-0.889,-0.9718,-1.0568,-1.1082,-1.12,-1.0753,-1.0498,-1.0498,-0.9976,-0.9769,-0.9821,-1.0241,-1.0651,-1.1057,-1.1619,-1.2076,-1.2421,-1.2382,-1.2175,-1.1877,0.0,0.0,1.0522,1.0522,1.0522,1.0522,1.0522,1.0522,1.047,1.0419,1.0095,0.9614,0.8883,0.8935,0.8988,0.904,0.9406,0.9614,0.9614,0.9614,0.9614,0.9614,0.9458,0.8928,0.7925,0.7771,0.7241,0.6178,0.6178,0.6178,0.6178,0.6114,0.5955,0.5795,0.5681,0.5517,0.5297,0.5297,0.5297,0.5297,0.5297,0.5183,0.4956,0.4956,0.4849,0.4743,0.4743,0.446,0.3953,0.335,0.2685,0.1959,0.1346,0.101,0.0898,0.0898,0.0898,0.0898,0.0898,0.0898,0.0898,0.0898,0.0561,-0.0056,-0.1119,-0.1286,-0.1398,-0.2184,-0.2127,-0.2071,-0.2521,-0.2577,-0.2635,-0.2691,-0.2691,-0.2691,-0.2691,-0.2691,-0.2747,0.0,-0.3329,-0.3767,-0.419,-0.4717,-0.5315,0.0,0.0,0.0,0.0,-0.7175,-0.7269,-0.7195,-0.7587,-0.8193,-0.8949,-0.9106,-0.9614,-1.0549,-1.0939,-1.115,-1.1209,-1.156,-1.1719,-1.1669,-1.156,-1.151,-1.146,-1.0964,-1.0964,-1.1217,-1.1175,-1.1326,-1.1578,-1.1368,-1.1326,-1.1418,1.0522,1.0522,1.0522,1.0522,1.0522,1.0522,1.0522,1.0522,1.0522,1.0522,1.0095,0.9458,0.8613,0.8666,0.8672,0.8402,0.8666,0.8928,0.919,0.9249,0.9086,0.8823,0.8823,0.8402,0.7557,0.7182,0.6701,0.6014,0.6014,0.6014,0.6014,0.5955,0.5845,0.5681,0.5622,0.5513,0.5305,0.5382,0.5414,0.5422,0.5563,0.5423,0.5121,0.5046,0.4907,0.4674,0.4657,0.4128,0.3456,0.3128,0.2348,0.1513,0.1178,0.101,0.0898,0.0898,0.0898,0.0898,0.0898,0.0898,0.0842,0.0561,0.0056,-0.0671,-0.1567,-0.1846,-0.2071,-0.2577,-0.2577,-0.2465,-0.2691,-0.2691,-0.2691,-0.2691,-0.2691,-0.2691,-0.2691,-0.2691,-0.2802,-0.319,-0.3574,-0.4094,-0.4927,-0.5398,-0.5933,-0.6744,-0.6902,0.0,-0.7461,-0.7622,-0.7817,-0.8036,-0.839,-0.8935,-0.9658,-1.0131,-1.0643,-1.115,-1.161,-1.1819,-1.1868,-1.1977,-1.2026,-1.2076,-1.1819,-1.1719,-1.1678,-1.1796,-1.1815,-1.1841,-1.2234,-1.2244,-1.214,-1.2149,-1.1992,-1.1825,1.0522,1.0522,1.0585,1.0801,1.0841,1.0841,1.0841,1.0727,1.0604,1.0391,0.9806,0.9224,0.8584,0.8584,0.8422,0.7937,0.7775,0.8009,0.862,0.8672,0.8455,0.7925,0.7925,0.7664,0.7139,0.6381,0.595,0.5795,0.5795,0.5808,0.5835,0.5839,0.5737,0.5652,0.5652,0.5541,0.539,0.5592,0.5653,0.5665,0.5823,0.5707,0.5449,0.5302,0.5002,0.4731,0.4601,0.3811,0.285,0.285,0.2069,0.1066,0.1066,0.101,0.0898,0.0898,0.0898,0.0898,0.0898,0.0842,0.0617,0.0,-0.0615,-0.1174,-0.179,-0.2352,-0.2747,-0.2747,-0.2747,-0.2747,-0.2747,-0.2747,-0.2747,-0.2747,-0.2691,-0.2691,-0.2747,0.0,-0.3132,-0.3741,-0.4015,-0.4615,-0.5869,-0.6091,-0.6475,-0.7257,-0.7317,-0.7413,-0.767,-0.7723,-0.809,-0.8823,-0.8876,-0.934,-1.0218,-1.1049,-1.1569,-1.171,-1.2274,-1.2607,-1.2772,-1.2317,-1.2195,-1.2351,-1.1888,-1.1626,-1.1754,-1.2693,-1.2883,-1.272,-1.3666,-1.3638,-1.3141,-1.3431,-1.3095,-1.2483,1.0522,1.0522,1.0897,1.2094,1.2294,1.2294,1.2294,1.1805,1.1041,0.9866,0.915,0.8716,0.8601,0.8137,0.7852,0.7735,0.7277,0.7281,0.8008,0.8031,0.7978,0.7925,0.7925,0.7664,0.7139,0.6381,0.595,0.5795,0.5795,0.5874,0.6028,0.5861,0.5889,0.6032,0.5922,0.5862,0.5807,0.5835,0.5848,0.5848,0.5876,0.5828,0.5638,0.5434,0.5214,0.4915,0.4721,0.3829,0.2736,0.2736,0.1902,0.0954,0.0954,0.0898,0.0898,0.0898,0.0898,0.0898,0.0898,0.0505,0.0,-0.0615,-0.123,-0.179,-0.241,-0.2747,-0.286,-0.286,-0.2968,-0.3021,-0.2916,-0.286,-0.286,-0.286,-0.2747,-0.28,-0.3021,0.0,-0.3738,-0.3953,-0.4995,-0.576,-0.5982,-0.6583,-0.7031,-0.7257,-0.7419,-0.7515,-0.767,-0.7788,-0.8209,-0.8928,-0.8679,-0.9086,-1.0364,-1.1099,-1.1719,-1.2175,-1.2382,-1.2759,-1.3195,-1.3093,-1.3336,-1.3777,-1.3662,-1.3724,-1.3902,-1.3864,-1.3777,-1.3733,-1.3683,-1.3549,-1.3322,-1.3095,-1.2767,-1.2389,1.1655,1.1655,1.1863,1.2509,1.2621,1.2498,1.212,1.1809,1.1409,1.0741,0.9721,0.8955,0.852,0.8012,0.7558,0.7265,0.6971,0.6944,0.7307,0.7632,0.7632,0.7348,0.7632,0.7462,0.673,0.6386,0.6103,0.5876,0.5876,0.5918,0.5999,0.588,0.5926,0.6005,0.5949,0.5888,0.5896,0.5986,0.6088,0.6096,0.6136,0.6046,0.578,0.5626,0.5359,0.5026,0.4803,0.3892,0.2803,0.2697,0.1902,0.0898,0.0898,0.0898,0.0898,0.0898,0.0898,0.0898,0.0898,0.0449,-0.0168,-0.0727,-0.1342,-0.1959,-0.2635,-0.286,-0.2916,-0.2968,-0.3077,-0.3077,-0.2916,-0.2916,-0.2916,-0.2916,-0.286,-0.2858,-0.3077,-0.3297,-0.3572,-0.4064,-0.467,-0.5324,-0.614,-0.6524,-0.6966,-0.7461,-0.7568,-0.7676,-0.7783,-0.7842,-0.8262,-0.8974,-0.9235,-0.9858,-1.0813,-1.1396,-1.2031,-1.2651,-1.2884,-1.3195,-1.3523,-1.3638,-1.3849,-1.4077,-1.4077,-1.4141,-1.4277,-1.4459,-1.4153,-1.3654,-1.3818,-1.3394,-1.2706,-1.2697,-1.2522,-1.2236,1.2621,1.2621,1.2621,1.2621,1.2498,1.2182,1.1685,1.1622,1.1622,1.1622,1.0345,0.922,0.8578,0.8021,0.7471,0.6993,0.6932,0.6932,0.6932,0.7355,0.737,0.6796,0.7265,0.7141,0.6435,0.6375,0.625,0.5888,0.5888,0.5908,0.5949,0.5949,0.5973,0.601,0.601,0.601,0.6018,0.6152,0.6273,0.6285,0.6363,0.6218,0.6009,0.5811,0.5545,0.5224,0.4836,0.3954,0.2861,0.2767,0.1902,0.0898,0.0898,0.0898,0.0898,0.0898,0.0898,0.0842,0.0842,0.0336,-0.0336,-0.0838,-0.151,-0.2184,-0.2747,-0.2972,-0.3026,-0.3132,-0.3188,-0.319,-0.3026,-0.3028,-0.3028,-0.3028,-0.2972,-0.3026,-0.3188,-0.3297,-0.3572,-0.4181,-0.4508,-0.5109,-0.6303,-0.6529,-0.6907,-0.767,-0.7723,-0.7806,-0.7985,-0.7991,-0.828,-0.8971,-0.9693,-1.0478,-1.1172,-1.1472,-1.2051,-1.3029,-1.3184,-1.3432,-1.3898,-1.4026,-1.4192,-1.4379,-1.4379,-1.4434,-1.4517,-1.4972,-1.4639,-1.3896,-1.439,-1.3795,-1.2666,-1.2911,-1.2666,-1.2174,1.2621,1.2621,1.2621,1.2621,1.2065,1.1685,1.1622,1.1622,1.1622,1.1622,1.0345,0.9314,0.8837,0.7996,0.7478,0.7478,0.7478,0.7478,0.7478,0.7288,0.7121,0.681,0.6851,0.6731,0.6435,0.6375,0.625,0.5888,0.5888,0.5969,0.6191,0.6191,0.6217,0.6379,0.6379,0.6379,0.6379,0.6392,0.6396,0.64,0.6412,0.6416,0.635,0.6009,0.5776,0.5616,0.5078,0.4028,0.2861,0.2767,0.1902,0.0898,0.0898,0.0898,0.0898,0.0898,0.0785,0.0729,0.0729,-0.0056,-0.0894,-0.1062,-0.1959,-0.286,-0.286,-0.3137,-0.3357,-0.3357,-0.3471,-0.3527,-0.3416,-0.3357,-0.3357,-0.3357,-0.3188,-0.3188,-0.3527,-0.3907,-0.4236,-0.446,-0.5391,-0.615,-0.6362,-0.6918,-0.7359,-0.767,-0.7723,-0.7889,-0.8249,-0.8261,-0.8482,-0.8957,-0.9549,-1.0254,-1.1168,-1.0805,-1.1551,-1.3467,-1.2703,-1.3119,-1.4503,-1.442,-1.4687,-1.5312,-1.5312,-1.539,-1.5583,-1.5613,-1.5623,-1.5507,-1.5594,-1.5069,-1.435,-1.435,-1.3554,-1.2451,1.1996,1.2003,1.2003,1.2003,1.1747,1.1622,1.1622,1.1622,1.1303,1.0415,0.9576,0.8935,0.8613,0.7972,0.7461,0.733,0.733,0.7265,0.7138,0.7073,0.6945,0.6863,0.6981,0.6917,0.6731,0.6731,0.6599,0.6404,0.6281,0.625,0.6314,0.6314,0.6351,0.642,0.642,0.642,0.642,0.642,0.642,0.642,0.642,0.635,0.6214,0.602,0.5782,0.5506,0.4719,0.3779,0.2949,0.2332,0.1594,0.0898,0.0898,0.0898,0.0898,0.0785,0.0729,0.0673,0.0449,-0.0336,-0.1174,-0.1229,-0.2125,-0.3079,-0.3193,-0.3304,-0.3413,-0.3527,-0.3583,-0.3583,-0.3413,-0.3413,-0.3413,-0.3413,-0.3357,-0.3413,-0.3688,-0.3852,-0.4125,-0.468,-0.5117,-0.5714,-0.6632,-0.7044,-0.7522,-0.8025,-0.8229,-0.8366,-0.8525,-0.8531,-0.8768,-0.9209,-0.9538,-1.0031,-1.0629,-1.0777,-1.1399,-1.2503,-1.2963,-1.3503,-1.4064,-1.455,-1.4693,-1.4569,-1.5069,-1.5069,-1.4815,-1.5303,-1.5303,-1.4951,-1.4951,-1.4529,-1.3803,-1.3433,-1.294,-1.2451,1.1685,1.1622,1.1622,1.1622,1.0919,1.0338,1.0338,1.0661,1.0534,0.9454,0.8748,0.8425,0.849,0.7912,0.7396,0.7199,0.7204,0.7138,0.6881,0.6881,0.6881,0.6881,0.7012,0.7007,0.6811,0.6811,0.6745,0.6609,0.6482,0.642,0.642,0.642,0.642,0.642,0.642,0.642,0.642,0.642,0.642,0.642,0.642,0.635,0.6148,0.5954,0.5752,0.546,0.447,0.3675,0.2981,0.211,0.1403,0.0912,0.0912,0.0905,0.0898,0.0729,0.0673,0.0505,0.0056,-0.0728,-0.1454,-0.1398,-0.2291,-0.3244,-0.3357,-0.3413,-0.3471,-0.3583,-0.3585,-0.3583,-0.3471,-0.3498,-0.3521,-0.3521,-0.3553,-0.3634,-0.3803,-0.386,-0.42,-0.4936,-0.522,-0.5841,-0.7017,-0.7445,-0.7886,-0.8411,-0.8579,-0.8711,-0.8795,-0.8945,-0.9193,-0.9562,-0.9767,-1.0038,-1.0363,-1.0753,-1.1337,-1.217,-1.2712,-1.3199,-1.3502,-1.4052,-1.4103,-1.3795,-1.4529,-1.4529,-1.4034,-1.4815,-1.4756,-1.4172,-1.4103,-1.3674,-1.3078,-1.2634,-1.2328,-1.2089,1.1685,1.156,1.156,1.156,0.932,0.7521,0.7521,0.8619,0.9326,0.8871,0.8037,0.7782,0.8425,0.7907,0.7396,0.7199,0.7204,0.7138,0.6881,0.6745,0.6741,0.6881,0.6881,0.6811,0.6675,0.6675,0.6609,0.642,0.642,0.642,0.642,0.642,0.642,0.642,0.642,0.642,0.642,0.642,0.642,0.642,0.642,0.635,0.6148,0.5954,0.5752,0.546,0.447,0.3722,0.3068,0.2177,0.145,0.0884,0.0884,0.0922,0.0898,0.0729,0.0561,0.0224,-0.0505,-0.1233,-0.1792,-0.1623,-0.2517,-0.3416,-0.3416,-0.353,-0.3588,-0.3588,-0.3588,-0.3588,-0.3588,-0.3735,-0.3812,-0.3812,-0.3857,-0.3872,-0.3872,-0.4061,-0.4424,-0.5136,-0.5924,-0.6713,-0.7612,-0.821,-0.8569,-0.8681,-0.8687,-0.8795,-0.912,-0.9523,-0.9862,-0.9983,-1.0174,-1.0371,-1.0624,-1.0624,-1.1358,-1.2765,-1.1911,-1.2035,-1.3009,-1.2887,-1.2948,-1.3252,-1.3906,-1.3914,-1.3571,-1.4231,-1.4112,-1.3511,-1.3252,-1.2818,-1.2328,-1.2328,-1.1911,-1.1373,1.1622,1.0021,0.8742,0.8742,0.8037,0.7521,0.7521,0.8361,0.8742,0.7972,0.8102,0.8102,0.7847,0.7652,0.733,0.7007,0.7012,0.6881,0.6552,0.6482,0.6482,0.6552,0.6679,0.6741,0.6675,0.6675,0.6675,0.6609,0.6482,0.642,0.642,0.642,0.642,0.642,0.642,0.642,0.642,0.642,0.642,0.642,0.642,0.635,0.6148,0.5954,0.5752,0.5408,0.3977,0.3329,0.3015,0.1722,0.1124,0.0975,0.0792,0.0786,0.072,0.042,0.03,0.006,-0.0779,-0.1438,-0.2026,-0.2445,-0.3122,-0.3666,-0.3749,-0.3771,-0.383,-0.383,-0.383,-0.383,-0.383,-0.3857,-0.3879,-0.3879,-0.3912,-0.3936,-0.4122,-0.4183,-0.4485,-0.52,-0.5924,-0.6588,-0.731,-0.8242,-0.8774,-0.8835,-0.9074,-0.9343,-0.9605,-0.9691,-0.9926,-1.0174,-1.0238,-1.0371,-1.0624,-1.0624,-1.0807,-1.1233,-1.1421,-1.167,-1.1973,-1.2397,-1.2458,-1.222,-1.2948,-1.294,-1.2512,-1.3183,-1.3312,-1.313,-1.307,-1.3009,-1.2879,-1.232,-1.2081,-1.1911,1.0212,0.8613,0.7521,0.7521,0.7521,0.7521,0.7521,0.7972,0.8102,0.7587,0.7842,0.7972,0.7521,0.7456,0.7265,0.6946,0.6749,0.6618,0.642,0.642,0.642,0.642,0.6548,0.6613,0.6613,0.6613,0.6613,0.6613,0.6482,0.642,0.642,0.642,0.642,0.642,0.642,0.642,0.642,0.642,0.642,0.642,0.635,0.6218,0.6083,0.5885,0.5686,0.5286,0.3749,0.3181,0.3004,0.1508,0.0966,0.0879,0.0744,0.0617,0.0556,0.0247,0.0185,-0.0062,-0.117,-0.1725,-0.2214,-0.3173,-0.362,-0.3844,-0.3917,-0.3872,-0.3872,-0.3872,-0.3872,-0.3872,-0.3872,-0.3912,-0.4007,-0.4007,-0.4047,-0.408,-0.4209,-0.4336,-0.4769,-0.5825,-0.6386,-0.7011,-0.8008,-0.8703,-0.9113,-0.9113,-0.9394,-0.9548,-0.9676,-0.974,-0.9926,-1.0174,-1.0238,-1.0371,-1.0624,-1.0624,-1.0624,-1.0624,-1.0996,-1.1115,-1.1178,-1.1538,-1.16,-1.1428,-1.2089,-1.2151,-1.1717,-1.2328,-1.2458,-1.222,-1.2158,-1.2151,-1.2212,-1.171,-1.1593,-1.1663,0.8231,0.7587,0.7521,0.7521,0.7521,0.7521,0.7461,0.7456,0.7456,0.7461,0.7456,0.7456,0.7461,0.7265,0.7073,0.6881,0.6618,0.642,0.642,0.642,0.642,0.642,0.642,0.642,0.642,0.642,0.642,0.642,0.642,0.642,0.642,0.642,0.642,0.642,0.642,0.642,0.635,0.635,0.635,0.635,0.6214,0.6086,0.5822,0.5683,0.5488,0.5226,0.3751,0.3215,0.2948,0.1545,0.0926,0.0775,0.0691,0.056,0.0374,0.0249,0.0187,-0.0124,-0.1614,-0.1988,-0.2374,-0.3786,-0.405,-0.3904,-0.3904,-0.3904,-0.3904,-0.3904,-0.3904,-0.3904,-0.3904,-0.4058,-0.4134,-0.4134,-0.4227,-0.43,-0.43,-0.4495,-0.5153,-0.6597,-0.6985,-0.7772,-0.9221,-0.9414,-0.9484,-0.9484,-0.9484,-0.9484,-0.9548,-0.9676,-0.9862,-0.9983,-1.0174,-1.0371,-1.0561,-1.0561,-1.0561,-1.0624,-1.0624,-1.0624,-1.0624,-1.0624,-1.0681,-1.08,-1.1406,-1.1476,-1.1122,-1.1655,-1.1531,-1.1059,-1.087,-1.0807,-1.0807,-1.0807,-1.0807,-1.0807,0.9901,0.849,0.7521,0.7521,0.7521,0.7461,0.7265,0.7396,0.7396,0.7073,0.7138,0.7204,0.7073,0.7012,0.6876,0.6741,0.6548,0.642,0.642,0.642,0.642,0.642,0.642,0.642,0.642,0.642,0.642,0.642,0.642,0.642,0.642,0.642,0.642,0.642,0.642,0.635,0.6214,0.6214,0.6152,0.6024,0.5954,0.5818,0.5683,0.5617,0.5488,0.5226,0.3751,0.3215,0.295,0.1413,0.0805,0.0734,0.0464,0.0331,0.0265,0.0066,0.0066,-0.0265,-0.1714,-0.2109,-0.2441,-0.3921,-0.424,-0.4221,-0.4221,-0.4221,-0.4221,-0.4221,-0.4221,-0.4221,-0.4221,-0.4243,-0.4262,-0.4262,-0.4284,-0.43,-0.43,-0.4495,-0.4888,-0.5811,-0.6531,-0.7316,-0.8226,-0.8947,-0.9408,-0.9484,-0.9484,-0.9548,-0.974,-0.9804,-0.9862,-0.9983,-1.0047,-1.018,-1.0371,-1.0371,-1.0428,-1.0624,-1.0624,-1.0624,-1.0624,-1.0624,-1.0681,-1.0807,-1.0863,-1.0863,-1.087,-1.0863,-1.0807,-1.0688,-1.0681,-1.0681,-1.0807,-1.0681,-1.0681,-1.0807,1.0098,0.9134,0.8231,0.7587,0.7396,0.733,0.7199,0.7204,0.7138,0.6946,0.7012,0.7007,0.6881,0.6811,0.6745,0.6544,0.6482,0.642,0.642,0.642,0.642,0.642,0.642,0.642,0.642,0.642,0.642,0.642,0.642,0.642,0.642,0.642,0.642,0.642,0.642,0.635,0.621,0.621,0.6083,0.5888,0.5818,0.5686,0.555,0.515,0.4954,0.4688,0.3215,0.248,0.208,0.1145,0.0742,0.0607,0.0404,0.0202,0.0135,0.0,0.0,-0.0269,-0.1344,-0.1612,-0.1879,-0.2952,-0.3489,-0.3892,-0.4233,-0.43,-0.43,-0.43,-0.43,-0.43,-0.43,-0.43,-0.43,-0.43,-0.43,-0.43,-0.43,-0.4495,-0.502,-0.6071,-0.6728,-0.7377,-0.8161,-0.8683,-0.8947,-0.9017,-0.935,-0.9548,-0.9676,-0.9676,-0.974,-0.9926,-0.9926,-1.0053,-1.0301,-1.0301,-1.0371,-1.0624,-1.0624,-1.0624,-1.0624,-1.0624,-1.0624,-1.0681,-1.0618,-1.0624,-1.0681,-1.0624,-1.0624,-1.0624,-1.0624,-1.0624,-1.0681,-1.0624,-1.0624,-1.0681,0.9773,0.9518,0.9081,0.7766,0.7386,0.7268,0.7233,0.7109,0.6976,0.691,0.691,0.691,0.691,0.6839,0.6693,0.6465,0.6465,0.6453,0.642,0.642,0.642,0.642,0.642,0.642,0.642,0.642,0.642,0.642,0.642,0.642,0.642,0.642,0.642,0.642,0.635,0.6284,0.6148,0.6083,0.6017,0.5826,0.562,0.555,0.5484,0.4619,0.4287,0.4087,0.2614,0.1679,0.1009,0.0809,0.0607,0.0472,0.027,0.0135,0.0,0.0,0.0,-0.0135,-0.0875,-0.1076,-0.1276,-0.1946,-0.2681,-0.3351,-0.3961,-0.4231,-0.43,-0.43,-0.43,-0.43,-0.43,-0.43,-0.43,-0.43,-0.43,-0.4364,-0.4364,-0.4561,-0.5219,-0.6597,-0.7051,-0.7507,-0.8231,-0.8296,-0.8361,-0.849,-0.9017,-0.935,-0.9484,-0.9484,-0.9548,-0.974,-0.9804,-0.9926,-1.0244,-1.0308,-1.0371,-1.0624,-1.0624,-1.0624,-1.0624,-1.0624,-1.0624,-1.0624,-1.0624,-1.0624,-1.0624,-1.0624,-1.0624,-1.0624,-1.0624,-1.0624,-1.0624,-1.0624,-1.0624,-1.0624,0.9773,0.9518,0.9139,0.7971,0.7604,0.7459,0.7491,0.7447,0.7306,0.702,0.7086,0.7082,0.702,0.695,0.6884,0.6656,0.6652,0.6591,0.6428,0.642,0.642,0.642,0.642,0.642,0.642,0.642,0.642,0.642,0.642,0.642,0.642,0.642,0.642,0.642,0.628,0.6148,0.5954,0.5752,0.562,0.5495,0.5428,0.5428,0.5359,0.4622,0.4287,0.4087,0.2614,0.1546,0.0809,0.0607,0.0472,0.027,0.0067,0.0,0.0,0.0,0.0,-0.0135,-0.0875,-0.1076,-0.1276,-0.1946,-0.2681,-0.3215,-0.3351,-0.3825,-0.43,-0.43,-0.43,-0.43,-0.43,-0.43,-0.43,-0.43,-0.4431,-0.4558,-0.4558,-0.4824,-0.5352,-0.6141,-0.6929,-0.7451,-0.7517,-0.7582,-0.7842,-0.8425,-0.8554,-0.8882,-0.9484,-0.9484,-0.9484,-0.9548,-0.974,-0.9862,-1.0047,-1.0238,-1.0371,-1.0624,-1.0624,-1.0624,-1.0624,-1.0624,-1.0624,-1.0624,-1.0624,-1.0624,-1.0624,-1.0624,-1.0624,-1.0624,-1.0624,-1.0624,-1.0624,-1.0624,-1.0624,-1.0624,0.9925,0.9784,0.9524,0.8072,0.7604,0.7495,0.7362,0.7237,0.7166,0.7023,0.7019,0.7091,0.7023,0.7023,0.6991,0.6909,0.6834,0.6806,0.6721,0.6717,0.6717,0.6717,0.6717,0.6717,0.6717,0.6623,0.6574,0.6574,0.6469,0.642,0.642,0.642,0.642,0.642,0.628,0.6083,0.5888,0.5683,0.5554,0.5428,0.5428,0.516,0.4688,0.3951,0.3418,0.2948,0.1879,0.1211,0.0742,0.0539,0.0404,0.027,0.0067,0.0,0.0,0.0,0.0,-0.0067,-0.0404,-0.0471,-0.0539,-0.0875,-0.1745,-0.2614,-0.2614,-0.3489,-0.43,-0.43,-0.4364,-0.4495,-0.4495,-0.4498,-0.4564,-0.4564,-0.4631,-0.4694,-0.4694,-0.4957,-0.5418,-0.6203,-0.6597,-0.6859,-0.6859,-0.7186,-0.7517,-0.7837,-0.8624,-0.9215,-0.9484,-0.9484,-0.9484,-0.9484,-0.9612,-0.9734,-0.9862,-0.9989,-1.0117,-1.0238,-1.0238,-1.0364,-1.0624,-1.0624,-1.0624,-1.0624,-1.0624,-1.0624,-1.0624,-1.0624,-1.0624,-1.0624,-1.0624,-1.0624,-1.0624,-1.0624,-1.0624,-1.0624]}]]